<?xml version="1.0" encoding="UTF-8" standalone="no" ?>
<gpx xmlns="http://www.topografix.com/GPX/1/1" xmlns:xsi="http://www.w3.org/2001/XMLSchema-instance" xsi:schemaLocation="http://www.topografix.com/GPX/1/1 http://www.topografix.com/GPX/1/1/gpx.xsd" version="1.1" creator="VisuGPX - https://www.visugpx.com">
  <metadata>
    <name>mrt la cascade</name>
    <desc><![CDATA[la cascade,bon abri]]></desc>
  </metadata>
  <trk>
    <name><![CDATA[mrt la cascade_1]]></name>
    <trkseg>
      <trkpt lat="48.50723" lon="-2.61554">
        <ele>46</ele>
        <time>2016-02-19T08:21:32Z</time>
      </trkpt>
      <trkpt lat="48.50722" lon="-2.61595">
        <ele>47</ele>
        <time>2016-02-19T08:21:52Z</time>
      </trkpt>
      <trkpt lat="48.50722" lon="-2.61601">
        <ele>47</ele>
        <time>2016-02-19T08:21:55Z</time>
      </trkpt>
      <trkpt lat="48.50722" lon="-2.61607">
        <ele>47</ele>
        <time>2016-02-19T08:21:58Z</time>
      </trkpt>
      <trkpt lat="48.50722" lon="-2.61612">
        <ele>47</ele>
        <time>2016-02-19T08:22:01Z</time>
      </trkpt>
      <trkpt lat="48.50723" lon="-2.61617">
        <ele>47</ele>
        <time>2016-02-19T08:22:05Z</time>
      </trkpt>
      <trkpt lat="48.50723" lon="-2.61622">
        <ele>47</ele>
        <time>2016-02-19T08:22:08Z</time>
      </trkpt>
      <trkpt lat="48.50723" lon="-2.61628">
        <ele>47</ele>
        <time>2016-02-19T08:22:11Z</time>
      </trkpt>
      <trkpt lat="48.50723" lon="-2.61633">
        <ele>47</ele>
        <time>2016-02-19T08:22:14Z</time>
      </trkpt>
      <trkpt lat="48.50722" lon="-2.61639">
        <ele>47</ele>
        <time>2016-02-19T08:22:17Z</time>
      </trkpt>
      <trkpt lat="48.50721" lon="-2.61645">
        <ele>47</ele>
        <time>2016-02-19T08:22:20Z</time>
      </trkpt>
      <trkpt lat="48.50721" lon="-2.61651">
        <ele>47</ele>
        <time>2016-02-19T08:22:23Z</time>
      </trkpt>
      <trkpt lat="48.50721" lon="-2.61656">
        <ele>47</ele>
        <time>2016-02-19T08:22:26Z</time>
      </trkpt>
      <trkpt lat="48.50721" lon="-2.61662">
        <ele>47</ele>
        <time>2016-02-19T08:22:29Z</time>
      </trkpt>
      <trkpt lat="48.5072" lon="-2.61667">
        <ele>47</ele>
        <time>2016-02-19T08:22:32Z</time>
      </trkpt>
      <trkpt lat="48.5072" lon="-2.61672">
        <ele>47</ele>
        <time>2016-02-19T08:22:35Z</time>
      </trkpt>
      <trkpt lat="48.50719" lon="-2.61676">
        <ele>47</ele>
        <time>2016-02-19T08:22:38Z</time>
      </trkpt>
      <trkpt lat="48.50718" lon="-2.61682">
        <ele>47</ele>
        <time>2016-02-19T08:22:42Z</time>
      </trkpt>
      <trkpt lat="48.50717" lon="-2.61687">
        <ele>47</ele>
        <time>2016-02-19T08:22:46Z</time>
      </trkpt>
      <trkpt lat="48.50717" lon="-2.61693">
        <ele>47</ele>
        <time>2016-02-19T08:22:49Z</time>
      </trkpt>
      <trkpt lat="48.50716" lon="-2.61698">
        <ele>47</ele>
        <time>2016-02-19T08:22:52Z</time>
      </trkpt>
      <trkpt lat="48.50716" lon="-2.61703">
        <ele>47</ele>
        <time>2016-02-19T08:22:55Z</time>
      </trkpt>
      <trkpt lat="48.50715" lon="-2.61709">
        <ele>47</ele>
        <time>2016-02-19T08:22:58Z</time>
      </trkpt>
      <trkpt lat="48.50714" lon="-2.61714">
        <ele>47</ele>
        <time>2016-02-19T08:23:01Z</time>
      </trkpt>
      <trkpt lat="48.50714" lon="-2.6172">
        <ele>47</ele>
        <time>2016-02-19T08:23:04Z</time>
      </trkpt>
      <trkpt lat="48.50713" lon="-2.61725">
        <ele>47</ele>
        <time>2016-02-19T08:23:07Z</time>
      </trkpt>
      <trkpt lat="48.50713" lon="-2.61731">
        <ele>47</ele>
        <time>2016-02-19T08:23:10Z</time>
      </trkpt>
      <trkpt lat="48.50713" lon="-2.61736">
        <ele>47</ele>
        <time>2016-02-19T08:23:13Z</time>
      </trkpt>
      <trkpt lat="48.50713" lon="-2.61743">
        <ele>47</ele>
        <time>2016-02-19T08:23:16Z</time>
      </trkpt>
      <trkpt lat="48.50713" lon="-2.61749">
        <ele>47</ele>
        <time>2016-02-19T08:23:19Z</time>
      </trkpt>
      <trkpt lat="48.50712" lon="-2.61755">
        <ele>47</ele>
        <time>2016-02-19T08:23:22Z</time>
      </trkpt>
      <trkpt lat="48.50712" lon="-2.6176">
        <ele>47</ele>
        <time>2016-02-19T08:23:25Z</time>
      </trkpt>
      <trkpt lat="48.50712" lon="-2.61766">
        <ele>47</ele>
        <time>2016-02-19T08:23:28Z</time>
      </trkpt>
      <trkpt lat="48.50712" lon="-2.61772">
        <ele>47</ele>
        <time>2016-02-19T08:23:31Z</time>
      </trkpt>
      <trkpt lat="48.50712" lon="-2.61777">
        <ele>47</ele>
        <time>2016-02-19T08:23:34Z</time>
      </trkpt>
      <trkpt lat="48.50711" lon="-2.61783">
        <ele>47</ele>
        <time>2016-02-19T08:23:37Z</time>
      </trkpt>
      <trkpt lat="48.50711" lon="-2.61788">
        <ele>47</ele>
        <time>2016-02-19T08:23:40Z</time>
      </trkpt>
      <trkpt lat="48.50711" lon="-2.61794">
        <ele>47</ele>
        <time>2016-02-19T08:23:43Z</time>
      </trkpt>
      <trkpt lat="48.5071" lon="-2.618">
        <ele>47</ele>
        <time>2016-02-19T08:23:46Z</time>
      </trkpt>
      <trkpt lat="48.5071" lon="-2.61806">
        <ele>47</ele>
        <time>2016-02-19T08:23:49Z</time>
      </trkpt>
      <trkpt lat="48.5071" lon="-2.61812">
        <ele>47</ele>
        <time>2016-02-19T08:23:52Z</time>
      </trkpt>
      <trkpt lat="48.5071" lon="-2.61818">
        <ele>47</ele>
        <time>2016-02-19T08:23:55Z</time>
      </trkpt>
      <trkpt lat="48.5071" lon="-2.61825">
        <ele>49</ele>
        <time>2016-02-19T08:23:59Z</time>
      </trkpt>
      <trkpt lat="48.5071" lon="-2.61831">
        <ele>50</ele>
        <time>2016-02-19T08:24:02Z</time>
      </trkpt>
      <trkpt lat="48.5071" lon="-2.61836">
        <ele>50</ele>
        <time>2016-02-19T08:24:05Z</time>
      </trkpt>
      <trkpt lat="48.5071" lon="-2.61842">
        <ele>50</ele>
        <time>2016-02-19T08:24:08Z</time>
      </trkpt>
      <trkpt lat="48.50709" lon="-2.61847">
        <ele>50</ele>
        <time>2016-02-19T08:24:11Z</time>
      </trkpt>
      <trkpt lat="48.50709" lon="-2.61854">
        <ele>50</ele>
        <time>2016-02-19T08:24:15Z</time>
      </trkpt>
      <trkpt lat="48.50708" lon="-2.61859">
        <ele>50</ele>
        <time>2016-02-19T08:24:19Z</time>
      </trkpt>
      <trkpt lat="48.50708" lon="-2.61864">
        <ele>50</ele>
        <time>2016-02-19T08:24:22Z</time>
      </trkpt>
      <trkpt lat="48.50708" lon="-2.6187">
        <ele>51</ele>
        <time>2016-02-19T08:24:25Z</time>
      </trkpt>
      <trkpt lat="48.50707" lon="-2.61876">
        <ele>51</ele>
        <time>2016-02-19T08:24:28Z</time>
      </trkpt>
      <trkpt lat="48.50706" lon="-2.61882">
        <ele>52</ele>
        <time>2016-02-19T08:24:31Z</time>
      </trkpt>
      <trkpt lat="48.50706" lon="-2.61888">
        <ele>52</ele>
        <time>2016-02-19T08:24:34Z</time>
      </trkpt>
      <trkpt lat="48.50705" lon="-2.61893">
        <ele>53</ele>
        <time>2016-02-19T08:24:37Z</time>
      </trkpt>
      <trkpt lat="48.50704" lon="-2.61899">
        <ele>53</ele>
        <time>2016-02-19T08:24:40Z</time>
      </trkpt>
      <trkpt lat="48.50703" lon="-2.61904">
        <ele>54</ele>
        <time>2016-02-19T08:24:43Z</time>
      </trkpt>
      <trkpt lat="48.50703" lon="-2.61909">
        <ele>54</ele>
        <time>2016-02-19T08:24:46Z</time>
      </trkpt>
      <trkpt lat="48.50703" lon="-2.61914">
        <ele>54</ele>
        <time>2016-02-19T08:24:49Z</time>
      </trkpt>
      <trkpt lat="48.50703" lon="-2.61919">
        <ele>54</ele>
        <time>2016-02-19T08:24:52Z</time>
      </trkpt>
      <trkpt lat="48.50703" lon="-2.61925">
        <ele>55</ele>
        <time>2016-02-19T08:24:55Z</time>
      </trkpt>
      <trkpt lat="48.50703" lon="-2.61931">
        <ele>55</ele>
        <time>2016-02-19T08:24:58Z</time>
      </trkpt>
      <trkpt lat="48.50703" lon="-2.61936">
        <ele>55</ele>
        <time>2016-02-19T08:25:01Z</time>
      </trkpt>
      <trkpt lat="48.50702" lon="-2.61942">
        <ele>55</ele>
        <time>2016-02-19T08:25:04Z</time>
      </trkpt>
      <trkpt lat="48.50702" lon="-2.61948">
        <ele>55</ele>
        <time>2016-02-19T08:25:07Z</time>
      </trkpt>
      <trkpt lat="48.50702" lon="-2.61954">
        <ele>55</ele>
        <time>2016-02-19T08:25:10Z</time>
      </trkpt>
      <trkpt lat="48.50701" lon="-2.61961">
        <ele>55</ele>
        <time>2016-02-19T08:25:13Z</time>
      </trkpt>
      <trkpt lat="48.50701" lon="-2.61966">
        <ele>56</ele>
        <time>2016-02-19T08:25:16Z</time>
      </trkpt>
      <trkpt lat="48.50701" lon="-2.61972">
        <ele>56</ele>
        <time>2016-02-19T08:25:19Z</time>
      </trkpt>
      <trkpt lat="48.507" lon="-2.61977">
        <ele>56</ele>
        <time>2016-02-19T08:25:22Z</time>
      </trkpt>
      <trkpt lat="48.507" lon="-2.61984">
        <ele>56</ele>
        <time>2016-02-19T08:25:25Z</time>
      </trkpt>
      <trkpt lat="48.507" lon="-2.6199">
        <ele>57</ele>
        <time>2016-02-19T08:25:28Z</time>
      </trkpt>
      <trkpt lat="48.50699" lon="-2.61996">
        <ele>57</ele>
        <time>2016-02-19T08:25:31Z</time>
      </trkpt>
      <trkpt lat="48.50698" lon="-2.62001">
        <ele>57</ele>
        <time>2016-02-19T08:25:34Z</time>
      </trkpt>
      <trkpt lat="48.50698" lon="-2.62007">
        <ele>57</ele>
        <time>2016-02-19T08:25:38Z</time>
      </trkpt>
      <trkpt lat="48.50698" lon="-2.62012">
        <ele>57</ele>
        <time>2016-02-19T08:25:41Z</time>
      </trkpt>
      <trkpt lat="48.50697" lon="-2.62017">
        <ele>57</ele>
        <time>2016-02-19T08:25:44Z</time>
      </trkpt>
      <trkpt lat="48.50697" lon="-2.62022">
        <ele>57</ele>
        <time>2016-02-19T08:25:47Z</time>
      </trkpt>
      <trkpt lat="48.50696" lon="-2.62028">
        <ele>57</ele>
        <time>2016-02-19T08:25:50Z</time>
      </trkpt>
      <trkpt lat="48.50695" lon="-2.62033">
        <ele>57</ele>
        <time>2016-02-19T08:25:53Z</time>
      </trkpt>
      <trkpt lat="48.50694" lon="-2.62038">
        <ele>57</ele>
        <time>2016-02-19T08:25:56Z</time>
      </trkpt>
      <trkpt lat="48.50694" lon="-2.62043">
        <ele>57</ele>
        <time>2016-02-19T08:25:59Z</time>
      </trkpt>
      <trkpt lat="48.50692" lon="-2.62049">
        <ele>57</ele>
        <time>2016-02-19T08:26:02Z</time>
      </trkpt>
      <trkpt lat="48.50691" lon="-2.62054">
        <ele>58</ele>
        <time>2016-02-19T08:26:05Z</time>
      </trkpt>
      <trkpt lat="48.5069" lon="-2.62059">
        <ele>58</ele>
        <time>2016-02-19T08:26:08Z</time>
      </trkpt>
      <trkpt lat="48.50689" lon="-2.62065">
        <ele>58</ele>
        <time>2016-02-19T08:26:11Z</time>
      </trkpt>
      <trkpt lat="48.50688" lon="-2.6207">
        <ele>59</ele>
        <time>2016-02-19T08:26:14Z</time>
      </trkpt>
      <trkpt lat="48.50687" lon="-2.62076">
        <ele>60</ele>
        <time>2016-02-19T08:26:17Z</time>
      </trkpt>
      <trkpt lat="48.50686" lon="-2.62083">
        <ele>60</ele>
        <time>2016-02-19T08:26:20Z</time>
      </trkpt>
      <trkpt lat="48.50684" lon="-2.62088">
        <ele>61</ele>
        <time>2016-02-19T08:26:23Z</time>
      </trkpt>
      <trkpt lat="48.50683" lon="-2.62094">
        <ele>61</ele>
        <time>2016-02-19T08:26:26Z</time>
      </trkpt>
      <trkpt lat="48.50682" lon="-2.62099">
        <ele>61</ele>
        <time>2016-02-19T08:26:29Z</time>
      </trkpt>
      <trkpt lat="48.50681" lon="-2.62105">
        <ele>61</ele>
        <time>2016-02-19T08:26:32Z</time>
      </trkpt>
      <trkpt lat="48.5068" lon="-2.6211">
        <ele>61</ele>
        <time>2016-02-19T08:26:35Z</time>
      </trkpt>
      <trkpt lat="48.50679" lon="-2.62116">
        <ele>62</ele>
        <time>2016-02-19T08:26:38Z</time>
      </trkpt>
      <trkpt lat="48.50678" lon="-2.62122">
        <ele>62</ele>
        <time>2016-02-19T08:26:41Z</time>
      </trkpt>
      <trkpt lat="48.50677" lon="-2.62127">
        <ele>62</ele>
        <time>2016-02-19T08:26:44Z</time>
      </trkpt>
      <trkpt lat="48.50677" lon="-2.62133">
        <ele>62</ele>
        <time>2016-02-19T08:26:47Z</time>
      </trkpt>
      <trkpt lat="48.50676" lon="-2.62138">
        <ele>62</ele>
        <time>2016-02-19T08:26:50Z</time>
      </trkpt>
      <trkpt lat="48.50676" lon="-2.62143">
        <ele>63</ele>
        <time>2016-02-19T08:26:53Z</time>
      </trkpt>
      <trkpt lat="48.50675" lon="-2.62148">
        <ele>63</ele>
        <time>2016-02-19T08:26:56Z</time>
      </trkpt>
      <trkpt lat="48.50675" lon="-2.62153">
        <ele>63</ele>
        <time>2016-02-19T08:26:59Z</time>
      </trkpt>
      <trkpt lat="48.50675" lon="-2.62159">
        <ele>63</ele>
        <time>2016-02-19T08:27:02Z</time>
      </trkpt>
      <trkpt lat="48.50674" lon="-2.62163">
        <ele>63</ele>
        <time>2016-02-19T08:27:05Z</time>
      </trkpt>
      <trkpt lat="48.50674" lon="-2.62168">
        <ele>63</ele>
        <time>2016-02-19T08:27:08Z</time>
      </trkpt>
      <trkpt lat="48.50674" lon="-2.62174">
        <ele>63</ele>
        <time>2016-02-19T08:27:11Z</time>
      </trkpt>
      <trkpt lat="48.50673" lon="-2.6218">
        <ele>63</ele>
        <time>2016-02-19T08:27:14Z</time>
      </trkpt>
      <trkpt lat="48.50673" lon="-2.62185">
        <ele>63</ele>
        <time>2016-02-19T08:27:17Z</time>
      </trkpt>
      <trkpt lat="48.50672" lon="-2.62191">
        <ele>63</ele>
        <time>2016-02-19T08:27:20Z</time>
      </trkpt>
      <trkpt lat="48.50671" lon="-2.62196">
        <ele>63</ele>
        <time>2016-02-19T08:27:23Z</time>
      </trkpt>
      <trkpt lat="48.50671" lon="-2.62201">
        <ele>63</ele>
        <time>2016-02-19T08:27:26Z</time>
      </trkpt>
      <trkpt lat="48.5067" lon="-2.62207">
        <ele>63</ele>
        <time>2016-02-19T08:27:29Z</time>
      </trkpt>
      <trkpt lat="48.5067" lon="-2.62213">
        <ele>63</ele>
        <time>2016-02-19T08:27:32Z</time>
      </trkpt>
      <trkpt lat="48.50669" lon="-2.62218">
        <ele>63</ele>
        <time>2016-02-19T08:27:35Z</time>
      </trkpt>
      <trkpt lat="48.50669" lon="-2.62224">
        <ele>64</ele>
        <time>2016-02-19T08:27:38Z</time>
      </trkpt>
      <trkpt lat="48.50668" lon="-2.62229">
        <ele>64</ele>
        <time>2016-02-19T08:27:41Z</time>
      </trkpt>
      <trkpt lat="48.50667" lon="-2.62234">
        <ele>64</ele>
        <time>2016-02-19T08:27:44Z</time>
      </trkpt>
      <trkpt lat="48.50667" lon="-2.62239">
        <ele>64</ele>
        <time>2016-02-19T08:27:47Z</time>
      </trkpt>
      <trkpt lat="48.50666" lon="-2.62244">
        <ele>64</ele>
        <time>2016-02-19T08:27:50Z</time>
      </trkpt>
      <trkpt lat="48.50666" lon="-2.62251">
        <ele>65</ele>
        <time>2016-02-19T08:27:54Z</time>
      </trkpt>
      <trkpt lat="48.50665" lon="-2.62257">
        <ele>65</ele>
        <time>2016-02-19T08:27:57Z</time>
      </trkpt>
      <trkpt lat="48.50664" lon="-2.62263">
        <ele>65</ele>
        <time>2016-02-19T08:28:00Z</time>
      </trkpt>
      <trkpt lat="48.50663" lon="-2.62268">
        <ele>65</ele>
        <time>2016-02-19T08:28:03Z</time>
      </trkpt>
      <trkpt lat="48.50663" lon="-2.62274">
        <ele>65</ele>
        <time>2016-02-19T08:28:06Z</time>
      </trkpt>
      <trkpt lat="48.50663" lon="-2.6228">
        <ele>65</ele>
        <time>2016-02-19T08:28:09Z</time>
      </trkpt>
      <trkpt lat="48.50663" lon="-2.62286">
        <ele>65</ele>
        <time>2016-02-19T08:28:12Z</time>
      </trkpt>
      <trkpt lat="48.50663" lon="-2.62292">
        <ele>65</ele>
        <time>2016-02-19T08:28:15Z</time>
      </trkpt>
      <trkpt lat="48.50662" lon="-2.62298">
        <ele>65</ele>
        <time>2016-02-19T08:28:18Z</time>
      </trkpt>
      <trkpt lat="48.50662" lon="-2.62305">
        <ele>66</ele>
        <time>2016-02-19T08:28:21Z</time>
      </trkpt>
      <trkpt lat="48.50663" lon="-2.62313">
        <ele>67</ele>
        <time>2016-02-19T08:28:24Z</time>
      </trkpt>
      <trkpt lat="48.50663" lon="-2.62319">
        <ele>67</ele>
        <time>2016-02-19T08:28:27Z</time>
      </trkpt>
      <trkpt lat="48.50663" lon="-2.62326">
        <ele>67</ele>
        <time>2016-02-19T08:28:30Z</time>
      </trkpt>
      <trkpt lat="48.50663" lon="-2.62332">
        <ele>67</ele>
        <time>2016-02-19T08:28:33Z</time>
      </trkpt>
      <trkpt lat="48.50663" lon="-2.62339">
        <ele>67</ele>
        <time>2016-02-19T08:28:36Z</time>
      </trkpt>
      <trkpt lat="48.50664" lon="-2.62345">
        <ele>67</ele>
        <time>2016-02-19T08:28:39Z</time>
      </trkpt>
      <trkpt lat="48.50665" lon="-2.62351">
        <ele>67</ele>
        <time>2016-02-19T08:28:42Z</time>
      </trkpt>
      <trkpt lat="48.50667" lon="-2.62357">
        <ele>67</ele>
        <time>2016-02-19T08:28:45Z</time>
      </trkpt>
      <trkpt lat="48.5067" lon="-2.62362">
        <ele>67</ele>
        <time>2016-02-19T08:28:48Z</time>
      </trkpt>
      <trkpt lat="48.50673" lon="-2.62368">
        <ele>67</ele>
        <time>2016-02-19T08:28:52Z</time>
      </trkpt>
      <trkpt lat="48.50676" lon="-2.62371">
        <ele>67</ele>
        <time>2016-02-19T08:28:55Z</time>
      </trkpt>
      <trkpt lat="48.5068" lon="-2.62375">
        <ele>67</ele>
        <time>2016-02-19T08:28:58Z</time>
      </trkpt>
      <trkpt lat="48.50683" lon="-2.62378">
        <ele>67</ele>
        <time>2016-02-19T08:29:01Z</time>
      </trkpt>
      <trkpt lat="48.50687" lon="-2.62381">
        <ele>68</ele>
        <time>2016-02-19T08:29:04Z</time>
      </trkpt>
      <trkpt lat="48.5069" lon="-2.62385">
        <ele>68</ele>
        <time>2016-02-19T08:29:07Z</time>
      </trkpt>
      <trkpt lat="48.50694" lon="-2.62388">
        <ele>68</ele>
        <time>2016-02-19T08:29:10Z</time>
      </trkpt>
      <trkpt lat="48.50697" lon="-2.62391">
        <ele>69</ele>
        <time>2016-02-19T08:29:13Z</time>
      </trkpt>
      <trkpt lat="48.507" lon="-2.62395">
        <ele>69</ele>
        <time>2016-02-19T08:29:16Z</time>
      </trkpt>
      <trkpt lat="48.50704" lon="-2.62399">
        <ele>69</ele>
        <time>2016-02-19T08:29:20Z</time>
      </trkpt>
      <trkpt lat="48.50707" lon="-2.62402">
        <ele>69</ele>
        <time>2016-02-19T08:29:23Z</time>
      </trkpt>
      <trkpt lat="48.50711" lon="-2.62405">
        <ele>70</ele>
        <time>2016-02-19T08:29:27Z</time>
      </trkpt>
      <trkpt lat="48.50714" lon="-2.62407">
        <ele>70</ele>
        <time>2016-02-19T08:29:31Z</time>
      </trkpt>
      <trkpt lat="48.50717" lon="-2.62407">
        <ele>70</ele>
        <time>2016-02-19T08:29:35Z</time>
      </trkpt>
      <trkpt lat="48.50721" lon="-2.62408">
        <ele>70</ele>
        <time>2016-02-19T08:29:39Z</time>
      </trkpt>
      <trkpt lat="48.50725" lon="-2.62408">
        <ele>70</ele>
        <time>2016-02-19T08:29:43Z</time>
      </trkpt>
      <trkpt lat="48.5073" lon="-2.62409">
        <ele>70</ele>
        <time>2016-02-19T08:29:47Z</time>
      </trkpt>
      <trkpt lat="48.50735" lon="-2.62411">
        <ele>70</ele>
        <time>2016-02-19T08:29:51Z</time>
      </trkpt>
      <trkpt lat="48.50739" lon="-2.62412">
        <ele>70</ele>
        <time>2016-02-19T08:29:54Z</time>
      </trkpt>
      <trkpt lat="48.50743" lon="-2.62414">
        <ele>70</ele>
        <time>2016-02-19T08:29:57Z</time>
      </trkpt>
      <trkpt lat="48.50746" lon="-2.62417">
        <ele>70</ele>
        <time>2016-02-19T08:30:00Z</time>
      </trkpt>
      <trkpt lat="48.5075" lon="-2.62419">
        <ele>70</ele>
        <time>2016-02-19T08:30:03Z</time>
      </trkpt>
      <trkpt lat="48.50754" lon="-2.62421">
        <ele>70</ele>
        <time>2016-02-19T08:30:06Z</time>
      </trkpt>
      <trkpt lat="48.50758" lon="-2.62425">
        <ele>70</ele>
        <time>2016-02-19T08:30:10Z</time>
      </trkpt>
      <trkpt lat="48.50761" lon="-2.62428">
        <ele>70</ele>
        <time>2016-02-19T08:30:13Z</time>
      </trkpt>
      <trkpt lat="48.50766" lon="-2.62432">
        <ele>70</ele>
        <time>2016-02-19T08:30:17Z</time>
      </trkpt>
      <trkpt lat="48.5077" lon="-2.62435">
        <ele>70</ele>
        <time>2016-02-19T08:30:20Z</time>
      </trkpt>
      <trkpt lat="48.50774" lon="-2.62438">
        <ele>70</ele>
        <time>2016-02-19T08:30:23Z</time>
      </trkpt>
      <trkpt lat="48.50778" lon="-2.62441">
        <ele>70</ele>
        <time>2016-02-19T08:30:26Z</time>
      </trkpt>
      <trkpt lat="48.50782" lon="-2.62444">
        <ele>70</ele>
        <time>2016-02-19T08:30:29Z</time>
      </trkpt>
      <trkpt lat="48.50787" lon="-2.62446">
        <ele>70</ele>
        <time>2016-02-19T08:30:32Z</time>
      </trkpt>
      <trkpt lat="48.50791" lon="-2.62449">
        <ele>70</ele>
        <time>2016-02-19T08:30:35Z</time>
      </trkpt>
      <trkpt lat="48.50795" lon="-2.62452">
        <ele>70</ele>
        <time>2016-02-19T08:30:38Z</time>
      </trkpt>
      <trkpt lat="48.50798" lon="-2.62454">
        <ele>70</ele>
        <time>2016-02-19T08:30:41Z</time>
      </trkpt>
      <trkpt lat="48.50803" lon="-2.62457">
        <ele>70</ele>
        <time>2016-02-19T08:30:45Z</time>
      </trkpt>
      <trkpt lat="48.50808" lon="-2.6246">
        <ele>70</ele>
        <time>2016-02-19T08:30:49Z</time>
      </trkpt>
      <trkpt lat="48.50812" lon="-2.62462">
        <ele>70</ele>
        <time>2016-02-19T08:30:52Z</time>
      </trkpt>
      <trkpt lat="48.50816" lon="-2.62464">
        <ele>70</ele>
        <time>2016-02-19T08:30:55Z</time>
      </trkpt>
      <trkpt lat="48.5082" lon="-2.62466">
        <ele>70</ele>
        <time>2016-02-19T08:30:58Z</time>
      </trkpt>
      <trkpt lat="48.50824" lon="-2.62469">
        <ele>70</ele>
        <time>2016-02-19T08:31:01Z</time>
      </trkpt>
      <trkpt lat="48.50827" lon="-2.62471">
        <ele>70</ele>
        <time>2016-02-19T08:31:04Z</time>
      </trkpt>
      <trkpt lat="48.50831" lon="-2.62473">
        <ele>70</ele>
        <time>2016-02-19T08:31:07Z</time>
      </trkpt>
      <trkpt lat="48.50836" lon="-2.62476">
        <ele>70</ele>
        <time>2016-02-19T08:31:10Z</time>
      </trkpt>
      <trkpt lat="48.5084" lon="-2.62479">
        <ele>70</ele>
        <time>2016-02-19T08:31:13Z</time>
      </trkpt>
      <trkpt lat="48.50844" lon="-2.62482">
        <ele>70</ele>
        <time>2016-02-19T08:31:16Z</time>
      </trkpt>
      <trkpt lat="48.50849" lon="-2.62484">
        <ele>70</ele>
        <time>2016-02-19T08:31:19Z</time>
      </trkpt>
      <trkpt lat="48.50853" lon="-2.62487">
        <ele>70</ele>
        <time>2016-02-19T08:31:22Z</time>
      </trkpt>
      <trkpt lat="48.50857" lon="-2.6249">
        <ele>70</ele>
        <time>2016-02-19T08:31:25Z</time>
      </trkpt>
      <trkpt lat="48.50861" lon="-2.62493">
        <ele>70</ele>
        <time>2016-02-19T08:31:28Z</time>
      </trkpt>
      <trkpt lat="48.50865" lon="-2.62496">
        <ele>70</ele>
        <time>2016-02-19T08:31:31Z</time>
      </trkpt>
      <trkpt lat="48.50869" lon="-2.62499">
        <ele>70</ele>
        <time>2016-02-19T08:31:34Z</time>
      </trkpt>
      <trkpt lat="48.50873" lon="-2.62501">
        <ele>70</ele>
        <time>2016-02-19T08:31:37Z</time>
      </trkpt>
      <trkpt lat="48.50877" lon="-2.62504">
        <ele>70</ele>
        <time>2016-02-19T08:31:40Z</time>
      </trkpt>
      <trkpt lat="48.50882" lon="-2.62507">
        <ele>70</ele>
        <time>2016-02-19T08:31:44Z</time>
      </trkpt>
      <trkpt lat="48.50886" lon="-2.62509">
        <ele>70</ele>
        <time>2016-02-19T08:31:47Z</time>
      </trkpt>
      <trkpt lat="48.5089" lon="-2.62512">
        <ele>70</ele>
        <time>2016-02-19T08:31:50Z</time>
      </trkpt>
      <trkpt lat="48.50894" lon="-2.62515">
        <ele>70</ele>
        <time>2016-02-19T08:31:53Z</time>
      </trkpt>
      <trkpt lat="48.50898" lon="-2.62518">
        <ele>70</ele>
        <time>2016-02-19T08:31:56Z</time>
      </trkpt>
      <trkpt lat="48.50903" lon="-2.62522">
        <ele>70</ele>
        <time>2016-02-19T08:32:00Z</time>
      </trkpt>
      <trkpt lat="48.50906" lon="-2.62525">
        <ele>70</ele>
        <time>2016-02-19T08:32:03Z</time>
      </trkpt>
      <trkpt lat="48.5091" lon="-2.62528">
        <ele>70</ele>
        <time>2016-02-19T08:32:06Z</time>
      </trkpt>
      <trkpt lat="48.50913" lon="-2.62531">
        <ele>70</ele>
        <time>2016-02-19T08:32:09Z</time>
      </trkpt>
      <trkpt lat="48.50917" lon="-2.62533">
        <ele>70</ele>
        <time>2016-02-19T08:32:12Z</time>
      </trkpt>
      <trkpt lat="48.50922" lon="-2.62535">
        <ele>70</ele>
        <time>2016-02-19T08:32:15Z</time>
      </trkpt>
      <trkpt lat="48.50926" lon="-2.62537">
        <ele>70</ele>
        <time>2016-02-19T08:32:18Z</time>
      </trkpt>
      <trkpt lat="48.5093" lon="-2.62538">
        <ele>70</ele>
        <time>2016-02-19T08:32:21Z</time>
      </trkpt>
      <trkpt lat="48.50935" lon="-2.62538">
        <ele>70</ele>
        <time>2016-02-19T08:32:24Z</time>
      </trkpt>
      <trkpt lat="48.50939" lon="-2.62538">
        <ele>70</ele>
        <time>2016-02-19T08:32:27Z</time>
      </trkpt>
      <trkpt lat="48.50943" lon="-2.62537">
        <ele>70</ele>
        <time>2016-02-19T08:32:30Z</time>
      </trkpt>
      <trkpt lat="48.50948" lon="-2.62537">
        <ele>70</ele>
        <time>2016-02-19T08:32:33Z</time>
      </trkpt>
      <trkpt lat="48.50951" lon="-2.62536">
        <ele>70</ele>
        <time>2016-02-19T08:32:36Z</time>
      </trkpt>
      <trkpt lat="48.50955" lon="-2.62536">
        <ele>70</ele>
        <time>2016-02-19T08:32:39Z</time>
      </trkpt>
      <trkpt lat="48.50959" lon="-2.62535">
        <ele>70</ele>
        <time>2016-02-19T08:32:42Z</time>
      </trkpt>
      <trkpt lat="48.50962" lon="-2.62536">
        <ele>71</ele>
        <time>2016-02-19T08:32:46Z</time>
      </trkpt>
      <trkpt lat="48.50964" lon="-2.62536">
        <ele>71</ele>
        <time>2016-02-19T08:32:56Z</time>
      </trkpt>
      <trkpt lat="48.50965" lon="-2.62536">
        <ele>71</ele>
        <time>2016-02-19T08:32:59Z</time>
      </trkpt>
      <trkpt lat="48.50968" lon="-2.62536">
        <ele>71</ele>
        <time>2016-02-19T08:33:03Z</time>
      </trkpt>
      <trkpt lat="48.50969" lon="-2.62535">
        <ele>72</ele>
        <time>2016-02-19T08:33:14Z</time>
      </trkpt>
      <trkpt lat="48.5097" lon="-2.62534">
        <ele>72</ele>
        <time>2016-02-19T08:33:20Z</time>
      </trkpt>
      <trkpt lat="48.50972" lon="-2.62534">
        <ele>72</ele>
        <time>2016-02-19T08:33:45Z</time>
      </trkpt>
      <trkpt lat="48.50975" lon="-2.62534">
        <ele>72</ele>
        <time>2016-02-19T08:33:48Z</time>
      </trkpt>
      <trkpt lat="48.50979" lon="-2.62534">
        <ele>72</ele>
        <time>2016-02-19T08:33:51Z</time>
      </trkpt>
      <trkpt lat="48.50983" lon="-2.62533">
        <ele>72</ele>
        <time>2016-02-19T08:33:54Z</time>
      </trkpt>
      <trkpt lat="48.50988" lon="-2.62532">
        <ele>72</ele>
        <time>2016-02-19T08:33:57Z</time>
      </trkpt>
      <trkpt lat="48.50991" lon="-2.62532">
        <ele>72</ele>
        <time>2016-02-19T08:34:00Z</time>
      </trkpt>
      <trkpt lat="48.50996" lon="-2.62531">
        <ele>72</ele>
        <time>2016-02-19T08:34:03Z</time>
      </trkpt>
      <trkpt lat="48.51" lon="-2.62532">
        <ele>72</ele>
        <time>2016-02-19T08:34:06Z</time>
      </trkpt>
      <trkpt lat="48.51004" lon="-2.62532">
        <ele>72</ele>
        <time>2016-02-19T08:34:09Z</time>
      </trkpt>
      <trkpt lat="48.5101" lon="-2.62532">
        <ele>72</ele>
        <time>2016-02-19T08:34:12Z</time>
      </trkpt>
      <trkpt lat="48.51015" lon="-2.62532">
        <ele>72</ele>
        <time>2016-02-19T08:34:15Z</time>
      </trkpt>
      <trkpt lat="48.51019" lon="-2.62532">
        <ele>72</ele>
        <time>2016-02-19T08:34:18Z</time>
      </trkpt>
      <trkpt lat="48.51023" lon="-2.62532">
        <ele>72</ele>
        <time>2016-02-19T08:34:21Z</time>
      </trkpt>
      <trkpt lat="48.51027" lon="-2.62531">
        <ele>72</ele>
        <time>2016-02-19T08:34:24Z</time>
      </trkpt>
      <trkpt lat="48.51031" lon="-2.62532">
        <ele>72</ele>
        <time>2016-02-19T08:34:27Z</time>
      </trkpt>
      <trkpt lat="48.51035" lon="-2.62532">
        <ele>72</ele>
        <time>2016-02-19T08:34:30Z</time>
      </trkpt>
      <trkpt lat="48.5104" lon="-2.62532">
        <ele>72</ele>
        <time>2016-02-19T08:34:33Z</time>
      </trkpt>
      <trkpt lat="48.51045" lon="-2.62534">
        <ele>72</ele>
        <time>2016-02-19T08:34:36Z</time>
      </trkpt>
      <trkpt lat="48.51049" lon="-2.62535">
        <ele>72</ele>
        <time>2016-02-19T08:34:39Z</time>
      </trkpt>
      <trkpt lat="48.51053" lon="-2.62537">
        <ele>72</ele>
        <time>2016-02-19T08:34:42Z</time>
      </trkpt>
      <trkpt lat="48.51057" lon="-2.62539">
        <ele>71</ele>
        <time>2016-02-19T08:34:45Z</time>
      </trkpt>
      <trkpt lat="48.51062" lon="-2.62543">
        <ele>71</ele>
        <time>2016-02-19T08:34:48Z</time>
      </trkpt>
      <trkpt lat="48.51065" lon="-2.62546">
        <ele>70</ele>
        <time>2016-02-19T08:34:51Z</time>
      </trkpt>
      <trkpt lat="48.5107" lon="-2.62549">
        <ele>70</ele>
        <time>2016-02-19T08:34:54Z</time>
      </trkpt>
      <trkpt lat="48.51074" lon="-2.62552">
        <ele>70</ele>
        <time>2016-02-19T08:34:57Z</time>
      </trkpt>
      <trkpt lat="48.51078" lon="-2.62555">
        <ele>70</ele>
        <time>2016-02-19T08:35:00Z</time>
      </trkpt>
      <trkpt lat="48.51082" lon="-2.62557">
        <ele>69</ele>
        <time>2016-02-19T08:35:03Z</time>
      </trkpt>
      <trkpt lat="48.51086" lon="-2.62559">
        <ele>69</ele>
        <time>2016-02-19T08:35:06Z</time>
      </trkpt>
      <trkpt lat="48.51091" lon="-2.62559">
        <ele>69</ele>
        <time>2016-02-19T08:35:09Z</time>
      </trkpt>
      <trkpt lat="48.51095" lon="-2.62561">
        <ele>68</ele>
        <time>2016-02-19T08:35:12Z</time>
      </trkpt>
      <trkpt lat="48.51099" lon="-2.6256">
        <ele>67</ele>
        <time>2016-02-19T08:35:15Z</time>
      </trkpt>
      <trkpt lat="48.51104" lon="-2.62559">
        <ele>67</ele>
        <time>2016-02-19T08:35:18Z</time>
      </trkpt>
      <trkpt lat="48.51108" lon="-2.62556">
        <ele>66</ele>
        <time>2016-02-19T08:35:21Z</time>
      </trkpt>
      <trkpt lat="48.51113" lon="-2.62551">
        <ele>66</ele>
        <time>2016-02-19T08:35:25Z</time>
      </trkpt>
      <trkpt lat="48.51117" lon="-2.62547">
        <ele>66</ele>
        <time>2016-02-19T08:35:30Z</time>
      </trkpt>
      <trkpt lat="48.51119" lon="-2.62546">
        <ele>66</ele>
        <time>2016-02-19T08:35:33Z</time>
      </trkpt>
      <trkpt lat="48.51122" lon="-2.62544">
        <ele>66</ele>
        <time>2016-02-19T08:35:36Z</time>
      </trkpt>
      <trkpt lat="48.51125" lon="-2.62549">
        <ele>65</ele>
        <time>2016-02-19T08:35:40Z</time>
      </trkpt>
      <trkpt lat="48.51129" lon="-2.62552">
        <ele>65</ele>
        <time>2016-02-19T08:35:44Z</time>
      </trkpt>
      <trkpt lat="48.51133" lon="-2.62553">
        <ele>64</ele>
        <time>2016-02-19T08:35:48Z</time>
      </trkpt>
      <trkpt lat="48.51136" lon="-2.62553">
        <ele>63</ele>
        <time>2016-02-19T08:35:51Z</time>
      </trkpt>
      <trkpt lat="48.5114" lon="-2.62554">
        <ele>63</ele>
        <time>2016-02-19T08:35:54Z</time>
      </trkpt>
      <trkpt lat="48.51144" lon="-2.62554">
        <ele>63</ele>
        <time>2016-02-19T08:35:57Z</time>
      </trkpt>
      <trkpt lat="48.51147" lon="-2.62555">
        <ele>62</ele>
        <time>2016-02-19T08:36:01Z</time>
      </trkpt>
      <trkpt lat="48.51151" lon="-2.62556">
        <ele>60</ele>
        <time>2016-02-19T08:36:05Z</time>
      </trkpt>
      <trkpt lat="48.51154" lon="-2.62556">
        <ele>60</ele>
        <time>2016-02-19T08:36:08Z</time>
      </trkpt>
      <trkpt lat="48.51158" lon="-2.62559">
        <ele>59</ele>
        <time>2016-02-19T08:36:11Z</time>
      </trkpt>
      <trkpt lat="48.51163" lon="-2.62562">
        <ele>59</ele>
        <time>2016-02-19T08:36:15Z</time>
      </trkpt>
      <trkpt lat="48.51165" lon="-2.62565">
        <ele>59</ele>
        <time>2016-02-19T08:36:18Z</time>
      </trkpt>
      <trkpt lat="48.51169" lon="-2.62566">
        <ele>59</ele>
        <time>2016-02-19T08:36:21Z</time>
      </trkpt>
      <trkpt lat="48.51173" lon="-2.62567">
        <ele>59</ele>
        <time>2016-02-19T08:36:24Z</time>
      </trkpt>
      <trkpt lat="48.51176" lon="-2.62569">
        <ele>59</ele>
        <time>2016-02-19T08:36:27Z</time>
      </trkpt>
      <trkpt lat="48.51179" lon="-2.62571">
        <ele>59</ele>
        <time>2016-02-19T08:36:31Z</time>
      </trkpt>
      <trkpt lat="48.51183" lon="-2.62572">
        <ele>59</ele>
        <time>2016-02-19T08:36:35Z</time>
      </trkpt>
      <trkpt lat="48.51184" lon="-2.62573">
        <ele>59</ele>
        <time>2016-02-19T08:36:38Z</time>
      </trkpt>
      <trkpt lat="48.51188" lon="-2.62574">
        <ele>59</ele>
        <time>2016-02-19T08:36:42Z</time>
      </trkpt>
      <trkpt lat="48.51189" lon="-2.62574">
        <ele>59</ele>
        <time>2016-02-19T08:36:47Z</time>
      </trkpt>
      <trkpt lat="48.51193" lon="-2.62575">
        <ele>59</ele>
        <time>2016-02-19T08:36:50Z</time>
      </trkpt>
      <trkpt lat="48.51196" lon="-2.62576">
        <ele>59</ele>
        <time>2016-02-19T08:36:53Z</time>
      </trkpt>
      <trkpt lat="48.51198" lon="-2.62577">
        <ele>59</ele>
        <time>2016-02-19T08:36:56Z</time>
      </trkpt>
      <trkpt lat="48.51202" lon="-2.62579">
        <ele>59</ele>
        <time>2016-02-19T08:37:00Z</time>
      </trkpt>
      <trkpt lat="48.51206" lon="-2.6258">
        <ele>59</ele>
        <time>2016-02-19T08:37:04Z</time>
      </trkpt>
      <trkpt lat="48.51208" lon="-2.62581">
        <ele>59</ele>
        <time>2016-02-19T08:37:07Z</time>
      </trkpt>
      <trkpt lat="48.51212" lon="-2.62582">
        <ele>59</ele>
        <time>2016-02-19T08:37:11Z</time>
      </trkpt>
      <trkpt lat="48.51215" lon="-2.62583">
        <ele>59</ele>
        <time>2016-02-19T08:37:15Z</time>
      </trkpt>
      <trkpt lat="48.51218" lon="-2.62585">
        <ele>59</ele>
        <time>2016-02-19T08:37:18Z</time>
      </trkpt>
      <trkpt lat="48.51222" lon="-2.62586">
        <ele>59</ele>
        <time>2016-02-19T08:37:21Z</time>
      </trkpt>
      <trkpt lat="48.51226" lon="-2.62589">
        <ele>59</ele>
        <time>2016-02-19T08:37:24Z</time>
      </trkpt>
      <trkpt lat="48.51229" lon="-2.62592">
        <ele>59</ele>
        <time>2016-02-19T08:37:27Z</time>
      </trkpt>
      <trkpt lat="48.51233" lon="-2.62596">
        <ele>58</ele>
        <time>2016-02-19T08:37:31Z</time>
      </trkpt>
      <trkpt lat="48.51236" lon="-2.626">
        <ele>57</ele>
        <time>2016-02-19T08:37:34Z</time>
      </trkpt>
      <trkpt lat="48.51241" lon="-2.62605">
        <ele>57</ele>
        <time>2016-02-19T08:37:37Z</time>
      </trkpt>
      <trkpt lat="48.51244" lon="-2.62611">
        <ele>57</ele>
        <time>2016-02-19T08:37:41Z</time>
      </trkpt>
      <trkpt lat="48.51249" lon="-2.62614">
        <ele>57</ele>
        <time>2016-02-19T08:37:45Z</time>
      </trkpt>
      <trkpt lat="48.51253" lon="-2.62618">
        <ele>57</ele>
        <time>2016-02-19T08:37:49Z</time>
      </trkpt>
      <trkpt lat="48.51256" lon="-2.62621">
        <ele>57</ele>
        <time>2016-02-19T08:37:53Z</time>
      </trkpt>
      <trkpt lat="48.51259" lon="-2.62626">
        <ele>57</ele>
        <time>2016-02-19T08:37:57Z</time>
      </trkpt>
      <trkpt lat="48.51262" lon="-2.62631">
        <ele>57</ele>
        <time>2016-02-19T08:38:01Z</time>
      </trkpt>
      <trkpt lat="48.51264" lon="-2.62635">
        <ele>57</ele>
        <time>2016-02-19T08:38:04Z</time>
      </trkpt>
      <trkpt lat="48.51267" lon="-2.62639">
        <ele>57</ele>
        <time>2016-02-19T08:38:07Z</time>
      </trkpt>
      <trkpt lat="48.51271" lon="-2.62643">
        <ele>57</ele>
        <time>2016-02-19T08:38:11Z</time>
      </trkpt>
      <trkpt lat="48.51276" lon="-2.62646">
        <ele>57</ele>
        <time>2016-02-19T08:38:14Z</time>
      </trkpt>
      <trkpt lat="48.5128" lon="-2.6265">
        <ele>57</ele>
        <time>2016-02-19T08:38:17Z</time>
      </trkpt>
      <trkpt lat="48.51284" lon="-2.62654">
        <ele>57</ele>
        <time>2016-02-19T08:38:20Z</time>
      </trkpt>
      <trkpt lat="48.51289" lon="-2.62657">
        <ele>57</ele>
        <time>2016-02-19T08:38:23Z</time>
      </trkpt>
      <trkpt lat="48.51294" lon="-2.62661">
        <ele>57</ele>
        <time>2016-02-19T08:38:26Z</time>
      </trkpt>
      <trkpt lat="48.51296" lon="-2.62666">
        <ele>57</ele>
        <time>2016-02-19T08:38:29Z</time>
      </trkpt>
      <trkpt lat="48.513" lon="-2.62672">
        <ele>56</ele>
        <time>2016-02-19T08:38:33Z</time>
      </trkpt>
      <trkpt lat="48.51303" lon="-2.62676">
        <ele>56</ele>
        <time>2016-02-19T08:38:36Z</time>
      </trkpt>
      <trkpt lat="48.51307" lon="-2.62679">
        <ele>56</ele>
        <time>2016-02-19T08:38:39Z</time>
      </trkpt>
      <trkpt lat="48.51311" lon="-2.62684">
        <ele>56</ele>
        <time>2016-02-19T08:38:43Z</time>
      </trkpt>
      <trkpt lat="48.51315" lon="-2.62688">
        <ele>56</ele>
        <time>2016-02-19T08:38:46Z</time>
      </trkpt>
      <trkpt lat="48.51318" lon="-2.62693">
        <ele>56</ele>
        <time>2016-02-19T08:38:50Z</time>
      </trkpt>
      <trkpt lat="48.51321" lon="-2.62699">
        <ele>56</ele>
        <time>2016-02-19T08:38:54Z</time>
      </trkpt>
      <trkpt lat="48.51324" lon="-2.62703">
        <ele>56</ele>
        <time>2016-02-19T08:38:58Z</time>
      </trkpt>
      <trkpt lat="48.51329" lon="-2.62706">
        <ele>56</ele>
        <time>2016-02-19T08:39:01Z</time>
      </trkpt>
      <trkpt lat="48.51332" lon="-2.6271">
        <ele>56</ele>
        <time>2016-02-19T08:39:05Z</time>
      </trkpt>
      <trkpt lat="48.51336" lon="-2.62713">
        <ele>56</ele>
        <time>2016-02-19T08:39:09Z</time>
      </trkpt>
      <trkpt lat="48.51338" lon="-2.62712">
        <ele>56</ele>
        <time>2016-02-19T08:39:15Z</time>
      </trkpt>
      <trkpt lat="48.5134" lon="-2.62713">
        <ele>56</ele>
        <time>2016-02-19T08:39:19Z</time>
      </trkpt>
      <trkpt lat="48.51342" lon="-2.62719">
        <ele>56</ele>
        <time>2016-02-19T08:39:22Z</time>
      </trkpt>
      <trkpt lat="48.51342" lon="-2.62724">
        <ele>56</ele>
        <time>2016-02-19T08:39:25Z</time>
      </trkpt>
      <trkpt lat="48.51342" lon="-2.62729">
        <ele>56</ele>
        <time>2016-02-19T08:39:28Z</time>
      </trkpt>
      <trkpt lat="48.51343" lon="-2.62734">
        <ele>56</ele>
        <time>2016-02-19T08:39:31Z</time>
      </trkpt>
      <trkpt lat="48.51345" lon="-2.6274">
        <ele>56</ele>
        <time>2016-02-19T08:39:34Z</time>
      </trkpt>
      <trkpt lat="48.51346" lon="-2.62745">
        <ele>56</ele>
        <time>2016-02-19T08:39:37Z</time>
      </trkpt>
      <trkpt lat="48.51347" lon="-2.6275">
        <ele>56</ele>
        <time>2016-02-19T08:39:40Z</time>
      </trkpt>
      <trkpt lat="48.51349" lon="-2.62755">
        <ele>56</ele>
        <time>2016-02-19T08:39:43Z</time>
      </trkpt>
      <trkpt lat="48.5135" lon="-2.62759">
        <ele>56</ele>
        <time>2016-02-19T08:39:46Z</time>
      </trkpt>
      <trkpt lat="48.51352" lon="-2.62765">
        <ele>56</ele>
        <time>2016-02-19T08:39:50Z</time>
      </trkpt>
      <trkpt lat="48.51353" lon="-2.6277">
        <ele>55</ele>
        <time>2016-02-19T08:39:53Z</time>
      </trkpt>
      <trkpt lat="48.51356" lon="-2.62775">
        <ele>54</ele>
        <time>2016-02-19T08:39:56Z</time>
      </trkpt>
      <trkpt lat="48.51358" lon="-2.6278">
        <ele>54</ele>
        <time>2016-02-19T08:39:59Z</time>
      </trkpt>
      <trkpt lat="48.5136" lon="-2.62786">
        <ele>54</ele>
        <time>2016-02-19T08:40:02Z</time>
      </trkpt>
      <trkpt lat="48.51362" lon="-2.62791">
        <ele>54</ele>
        <time>2016-02-19T08:40:05Z</time>
      </trkpt>
      <trkpt lat="48.51365" lon="-2.62796">
        <ele>54</ele>
        <time>2016-02-19T08:40:08Z</time>
      </trkpt>
      <trkpt lat="48.51368" lon="-2.62801">
        <ele>54</ele>
        <time>2016-02-19T08:40:11Z</time>
      </trkpt>
      <trkpt lat="48.5137" lon="-2.62807">
        <ele>54</ele>
        <time>2016-02-19T08:40:14Z</time>
      </trkpt>
      <trkpt lat="48.51373" lon="-2.62812">
        <ele>54</ele>
        <time>2016-02-19T08:40:17Z</time>
      </trkpt>
      <trkpt lat="48.51375" lon="-2.62817">
        <ele>54</ele>
        <time>2016-02-19T08:40:20Z</time>
      </trkpt>
      <trkpt lat="48.51377" lon="-2.62822">
        <ele>54</ele>
        <time>2016-02-19T08:40:23Z</time>
      </trkpt>
      <trkpt lat="48.5138" lon="-2.62829">
        <ele>54</ele>
        <time>2016-02-19T08:40:27Z</time>
      </trkpt>
      <trkpt lat="48.51382" lon="-2.62835">
        <ele>54</ele>
        <time>2016-02-19T08:40:30Z</time>
      </trkpt>
      <trkpt lat="48.51384" lon="-2.6284">
        <ele>54</ele>
        <time>2016-02-19T08:40:33Z</time>
      </trkpt>
      <trkpt lat="48.51386" lon="-2.62845">
        <ele>54</ele>
        <time>2016-02-19T08:40:36Z</time>
      </trkpt>
      <trkpt lat="48.51389" lon="-2.62851">
        <ele>54</ele>
        <time>2016-02-19T08:40:39Z</time>
      </trkpt>
      <trkpt lat="48.51392" lon="-2.62857">
        <ele>54</ele>
        <time>2016-02-19T08:40:42Z</time>
      </trkpt>
      <trkpt lat="48.51393" lon="-2.62862">
        <ele>54</ele>
        <time>2016-02-19T08:40:45Z</time>
      </trkpt>
      <trkpt lat="48.51395" lon="-2.62867">
        <ele>54</ele>
        <time>2016-02-19T08:40:48Z</time>
      </trkpt>
      <trkpt lat="48.51397" lon="-2.62873">
        <ele>54</ele>
        <time>2016-02-19T08:40:51Z</time>
      </trkpt>
      <trkpt lat="48.51399" lon="-2.62879">
        <ele>54</ele>
        <time>2016-02-19T08:40:54Z</time>
      </trkpt>
      <trkpt lat="48.51401" lon="-2.62884">
        <ele>54</ele>
        <time>2016-02-19T08:40:57Z</time>
      </trkpt>
      <trkpt lat="48.51404" lon="-2.62891">
        <ele>54</ele>
        <time>2016-02-19T08:41:00Z</time>
      </trkpt>
      <trkpt lat="48.51405" lon="-2.62896">
        <ele>54</ele>
        <time>2016-02-19T08:41:03Z</time>
      </trkpt>
      <trkpt lat="48.51406" lon="-2.62902">
        <ele>54</ele>
        <time>2016-02-19T08:41:06Z</time>
      </trkpt>
      <trkpt lat="48.51408" lon="-2.62907">
        <ele>53</ele>
        <time>2016-02-19T08:41:09Z</time>
      </trkpt>
      <trkpt lat="48.51409" lon="-2.62913">
        <ele>53</ele>
        <time>2016-02-19T08:41:12Z</time>
      </trkpt>
      <trkpt lat="48.51408" lon="-2.6292">
        <ele>53</ele>
        <time>2016-02-19T08:41:15Z</time>
      </trkpt>
      <trkpt lat="48.51407" lon="-2.62927">
        <ele>53</ele>
        <time>2016-02-19T08:41:18Z</time>
      </trkpt>
      <trkpt lat="48.51408" lon="-2.62934">
        <ele>53</ele>
        <time>2016-02-19T08:41:21Z</time>
      </trkpt>
      <trkpt lat="48.51407" lon="-2.62942">
        <ele>53</ele>
        <time>2016-02-19T08:41:24Z</time>
      </trkpt>
      <trkpt lat="48.51408" lon="-2.62948">
        <ele>53</ele>
        <time>2016-02-19T08:41:27Z</time>
      </trkpt>
      <trkpt lat="48.5141" lon="-2.62955">
        <ele>53</ele>
        <time>2016-02-19T08:41:30Z</time>
      </trkpt>
      <trkpt lat="48.51412" lon="-2.62962">
        <ele>53</ele>
        <time>2016-02-19T08:41:33Z</time>
      </trkpt>
      <trkpt lat="48.51413" lon="-2.62969">
        <ele>53</ele>
        <time>2016-02-19T08:41:36Z</time>
      </trkpt>
      <trkpt lat="48.51413" lon="-2.62976">
        <ele>53</ele>
        <time>2016-02-19T08:41:39Z</time>
      </trkpt>
      <trkpt lat="48.51414" lon="-2.62983">
        <ele>53</ele>
        <time>2016-02-19T08:41:42Z</time>
      </trkpt>
      <trkpt lat="48.51415" lon="-2.62989">
        <ele>53</ele>
        <time>2016-02-19T08:41:45Z</time>
      </trkpt>
      <trkpt lat="48.51416" lon="-2.62997">
        <ele>53</ele>
        <time>2016-02-19T08:41:48Z</time>
      </trkpt>
      <trkpt lat="48.51417" lon="-2.63003">
        <ele>53</ele>
        <time>2016-02-19T08:41:51Z</time>
      </trkpt>
      <trkpt lat="48.51418" lon="-2.6301">
        <ele>53</ele>
        <time>2016-02-19T08:41:54Z</time>
      </trkpt>
      <trkpt lat="48.51419" lon="-2.63016">
        <ele>53</ele>
        <time>2016-02-19T08:41:57Z</time>
      </trkpt>
      <trkpt lat="48.51421" lon="-2.63022">
        <ele>52</ele>
        <time>2016-02-19T08:42:00Z</time>
      </trkpt>
      <trkpt lat="48.51422" lon="-2.63028">
        <ele>52</ele>
        <time>2016-02-19T08:42:03Z</time>
      </trkpt>
      <trkpt lat="48.51424" lon="-2.63035">
        <ele>51</ele>
        <time>2016-02-19T08:42:06Z</time>
      </trkpt>
      <trkpt lat="48.51425" lon="-2.63042">
        <ele>51</ele>
        <time>2016-02-19T08:42:09Z</time>
      </trkpt>
      <trkpt lat="48.51426" lon="-2.6305">
        <ele>50</ele>
        <time>2016-02-19T08:42:12Z</time>
      </trkpt>
      <trkpt lat="48.51425" lon="-2.63058">
        <ele>50</ele>
        <time>2016-02-19T08:42:15Z</time>
      </trkpt>
      <trkpt lat="48.51426" lon="-2.63064">
        <ele>50</ele>
        <time>2016-02-19T08:42:18Z</time>
      </trkpt>
      <trkpt lat="48.51426" lon="-2.63071">
        <ele>50</ele>
        <time>2016-02-19T08:42:21Z</time>
      </trkpt>
      <trkpt lat="48.51426" lon="-2.63077">
        <ele>50</ele>
        <time>2016-02-19T08:42:24Z</time>
      </trkpt>
      <trkpt lat="48.51427" lon="-2.63084">
        <ele>49</ele>
        <time>2016-02-19T08:42:27Z</time>
      </trkpt>
      <trkpt lat="48.51427" lon="-2.6309">
        <ele>48</ele>
        <time>2016-02-19T08:42:30Z</time>
      </trkpt>
      <trkpt lat="48.51427" lon="-2.63097">
        <ele>48</ele>
        <time>2016-02-19T08:42:33Z</time>
      </trkpt>
      <trkpt lat="48.51428" lon="-2.63104">
        <ele>48</ele>
        <time>2016-02-19T08:42:36Z</time>
      </trkpt>
      <trkpt lat="48.51428" lon="-2.63112">
        <ele>48</ele>
        <time>2016-02-19T08:42:39Z</time>
      </trkpt>
      <trkpt lat="48.5143" lon="-2.63119">
        <ele>48</ele>
        <time>2016-02-19T08:42:42Z</time>
      </trkpt>
      <trkpt lat="48.51431" lon="-2.63125">
        <ele>47</ele>
        <time>2016-02-19T08:42:45Z</time>
      </trkpt>
      <trkpt lat="48.51431" lon="-2.63133">
        <ele>47</ele>
        <time>2016-02-19T08:42:48Z</time>
      </trkpt>
      <trkpt lat="48.51432" lon="-2.63139">
        <ele>47</ele>
        <time>2016-02-19T08:42:51Z</time>
      </trkpt>
      <trkpt lat="48.51432" lon="-2.63146">
        <ele>47</ele>
        <time>2016-02-19T08:42:54Z</time>
      </trkpt>
      <trkpt lat="48.51432" lon="-2.63153">
        <ele>47</ele>
        <time>2016-02-19T08:42:57Z</time>
      </trkpt>
      <trkpt lat="48.51434" lon="-2.63159">
        <ele>47</ele>
        <time>2016-02-19T08:43:00Z</time>
      </trkpt>
      <trkpt lat="48.51434" lon="-2.63166">
        <ele>47</ele>
        <time>2016-02-19T08:43:03Z</time>
      </trkpt>
      <trkpt lat="48.51434" lon="-2.63174">
        <ele>47</ele>
        <time>2016-02-19T08:43:06Z</time>
      </trkpt>
      <trkpt lat="48.51434" lon="-2.63181">
        <ele>47</ele>
        <time>2016-02-19T08:43:09Z</time>
      </trkpt>
      <trkpt lat="48.51434" lon="-2.63188">
        <ele>47</ele>
        <time>2016-02-19T08:43:12Z</time>
      </trkpt>
      <trkpt lat="48.51434" lon="-2.63195">
        <ele>47</ele>
        <time>2016-02-19T08:43:15Z</time>
      </trkpt>
      <trkpt lat="48.51434" lon="-2.63201">
        <ele>47</ele>
        <time>2016-02-19T08:43:18Z</time>
      </trkpt>
      <trkpt lat="48.51435" lon="-2.63206">
        <ele>47</ele>
        <time>2016-02-19T08:43:21Z</time>
      </trkpt>
      <trkpt lat="48.51434" lon="-2.63211">
        <ele>47</ele>
        <time>2016-02-19T08:43:24Z</time>
      </trkpt>
      <trkpt lat="48.51433" lon="-2.63217">
        <ele>47</ele>
        <time>2016-02-19T08:43:27Z</time>
      </trkpt>
      <trkpt lat="48.51432" lon="-2.63224">
        <ele>47</ele>
        <time>2016-02-19T08:43:30Z</time>
      </trkpt>
      <trkpt lat="48.51431" lon="-2.6323">
        <ele>47</ele>
        <time>2016-02-19T08:43:33Z</time>
      </trkpt>
      <trkpt lat="48.51431" lon="-2.63238">
        <ele>47</ele>
        <time>2016-02-19T08:43:36Z</time>
      </trkpt>
      <trkpt lat="48.51432" lon="-2.63246">
        <ele>47</ele>
        <time>2016-02-19T08:43:39Z</time>
      </trkpt>
      <trkpt lat="48.51432" lon="-2.63254">
        <ele>47</ele>
        <time>2016-02-19T08:43:42Z</time>
      </trkpt>
      <trkpt lat="48.51432" lon="-2.63262">
        <ele>47</ele>
        <time>2016-02-19T08:43:45Z</time>
      </trkpt>
      <trkpt lat="48.51433" lon="-2.63269">
        <ele>46</ele>
        <time>2016-02-19T08:43:48Z</time>
      </trkpt>
      <trkpt lat="48.51433" lon="-2.63276">
        <ele>46</ele>
        <time>2016-02-19T08:43:51Z</time>
      </trkpt>
      <trkpt lat="48.51434" lon="-2.63283">
        <ele>46</ele>
        <time>2016-02-19T08:43:54Z</time>
      </trkpt>
      <trkpt lat="48.51434" lon="-2.63291">
        <ele>46</ele>
        <time>2016-02-19T08:43:57Z</time>
      </trkpt>
      <trkpt lat="48.51434" lon="-2.63298">
        <ele>46</ele>
        <time>2016-02-19T08:44:00Z</time>
      </trkpt>
      <trkpt lat="48.51434" lon="-2.63304">
        <ele>46</ele>
        <time>2016-02-19T08:44:03Z</time>
      </trkpt>
      <trkpt lat="48.51434" lon="-2.63312">
        <ele>46</ele>
        <time>2016-02-19T08:44:06Z</time>
      </trkpt>
      <trkpt lat="48.51434" lon="-2.63319">
        <ele>46</ele>
        <time>2016-02-19T08:44:09Z</time>
      </trkpt>
      <trkpt lat="48.51435" lon="-2.63326">
        <ele>46</ele>
        <time>2016-02-19T08:44:12Z</time>
      </trkpt>
      <trkpt lat="48.51435" lon="-2.63333">
        <ele>46</ele>
        <time>2016-02-19T08:44:15Z</time>
      </trkpt>
      <trkpt lat="48.51436" lon="-2.63339">
        <ele>46</ele>
        <time>2016-02-19T08:44:18Z</time>
      </trkpt>
      <trkpt lat="48.51436" lon="-2.63346">
        <ele>46</ele>
        <time>2016-02-19T08:44:21Z</time>
      </trkpt>
      <trkpt lat="48.51437" lon="-2.63353">
        <ele>46</ele>
        <time>2016-02-19T08:44:24Z</time>
      </trkpt>
      <trkpt lat="48.51437" lon="-2.6336">
        <ele>46</ele>
        <time>2016-02-19T08:44:27Z</time>
      </trkpt>
      <trkpt lat="48.51437" lon="-2.63367">
        <ele>46</ele>
        <time>2016-02-19T08:44:30Z</time>
      </trkpt>
      <trkpt lat="48.51437" lon="-2.63374">
        <ele>46</ele>
        <time>2016-02-19T08:44:33Z</time>
      </trkpt>
      <trkpt lat="48.51437" lon="-2.63381">
        <ele>46</ele>
        <time>2016-02-19T08:44:36Z</time>
      </trkpt>
      <trkpt lat="48.51438" lon="-2.63388">
        <ele>46</ele>
        <time>2016-02-19T08:44:39Z</time>
      </trkpt>
      <trkpt lat="48.51437" lon="-2.63396">
        <ele>46</ele>
        <time>2016-02-19T08:44:42Z</time>
      </trkpt>
      <trkpt lat="48.51437" lon="-2.63402">
        <ele>46</ele>
        <time>2016-02-19T08:44:45Z</time>
      </trkpt>
      <trkpt lat="48.51437" lon="-2.63409">
        <ele>46</ele>
        <time>2016-02-19T08:44:48Z</time>
      </trkpt>
      <trkpt lat="48.51437" lon="-2.63417">
        <ele>46</ele>
        <time>2016-02-19T08:44:51Z</time>
      </trkpt>
      <trkpt lat="48.51436" lon="-2.63424">
        <ele>46</ele>
        <time>2016-02-19T08:44:54Z</time>
      </trkpt>
      <trkpt lat="48.51436" lon="-2.63432">
        <ele>46</ele>
        <time>2016-02-19T08:44:57Z</time>
      </trkpt>
      <trkpt lat="48.51436" lon="-2.6344">
        <ele>46</ele>
        <time>2016-02-19T08:45:00Z</time>
      </trkpt>
      <trkpt lat="48.51436" lon="-2.63447">
        <ele>46</ele>
        <time>2016-02-19T08:45:03Z</time>
      </trkpt>
      <trkpt lat="48.51436" lon="-2.63454">
        <ele>46</ele>
        <time>2016-02-19T08:45:06Z</time>
      </trkpt>
      <trkpt lat="48.51436" lon="-2.63462">
        <ele>46</ele>
        <time>2016-02-19T08:45:09Z</time>
      </trkpt>
      <trkpt lat="48.51435" lon="-2.63469">
        <ele>46</ele>
        <time>2016-02-19T08:45:12Z</time>
      </trkpt>
      <trkpt lat="48.51435" lon="-2.63478">
        <ele>46</ele>
        <time>2016-02-19T08:45:15Z</time>
      </trkpt>
      <trkpt lat="48.51435" lon="-2.63486">
        <ele>46</ele>
        <time>2016-02-19T08:45:18Z</time>
      </trkpt>
      <trkpt lat="48.51435" lon="-2.63492">
        <ele>46</ele>
        <time>2016-02-19T08:45:21Z</time>
      </trkpt>
      <trkpt lat="48.51434" lon="-2.63497">
        <ele>46</ele>
        <time>2016-02-19T08:45:24Z</time>
      </trkpt>
      <trkpt lat="48.51434" lon="-2.63505">
        <ele>46</ele>
        <time>2016-02-19T08:45:27Z</time>
      </trkpt>
      <trkpt lat="48.51433" lon="-2.63513">
        <ele>46</ele>
        <time>2016-02-19T08:45:30Z</time>
      </trkpt>
      <trkpt lat="48.51432" lon="-2.63521">
        <ele>46</ele>
        <time>2016-02-19T08:45:33Z</time>
      </trkpt>
      <trkpt lat="48.51432" lon="-2.63528">
        <ele>46</ele>
        <time>2016-02-19T08:45:36Z</time>
      </trkpt>
      <trkpt lat="48.51432" lon="-2.63535">
        <ele>46</ele>
        <time>2016-02-19T08:45:39Z</time>
      </trkpt>
      <trkpt lat="48.51432" lon="-2.63542">
        <ele>46</ele>
        <time>2016-02-19T08:45:42Z</time>
      </trkpt>
      <trkpt lat="48.51432" lon="-2.63549">
        <ele>46</ele>
        <time>2016-02-19T08:45:45Z</time>
      </trkpt>
      <trkpt lat="48.51432" lon="-2.63557">
        <ele>46</ele>
        <time>2016-02-19T08:45:48Z</time>
      </trkpt>
      <trkpt lat="48.51433" lon="-2.63564">
        <ele>46</ele>
        <time>2016-02-19T08:45:51Z</time>
      </trkpt>
      <trkpt lat="48.51432" lon="-2.63572">
        <ele>46</ele>
        <time>2016-02-19T08:45:54Z</time>
      </trkpt>
      <trkpt lat="48.51432" lon="-2.63579">
        <ele>46</ele>
        <time>2016-02-19T08:45:57Z</time>
      </trkpt>
      <trkpt lat="48.51432" lon="-2.63585">
        <ele>46</ele>
        <time>2016-02-19T08:46:00Z</time>
      </trkpt>
      <trkpt lat="48.5143" lon="-2.63593">
        <ele>46</ele>
        <time>2016-02-19T08:46:03Z</time>
      </trkpt>
      <trkpt lat="48.51429" lon="-2.636">
        <ele>46</ele>
        <time>2016-02-19T08:46:06Z</time>
      </trkpt>
      <trkpt lat="48.51429" lon="-2.63608">
        <ele>46</ele>
        <time>2016-02-19T08:46:09Z</time>
      </trkpt>
      <trkpt lat="48.51428" lon="-2.63615">
        <ele>46</ele>
        <time>2016-02-19T08:46:12Z</time>
      </trkpt>
      <trkpt lat="48.51427" lon="-2.63622">
        <ele>46</ele>
        <time>2016-02-19T08:46:15Z</time>
      </trkpt>
      <trkpt lat="48.51426" lon="-2.63629">
        <ele>46</ele>
        <time>2016-02-19T08:46:18Z</time>
      </trkpt>
      <trkpt lat="48.51427" lon="-2.63637">
        <ele>47</ele>
        <time>2016-02-19T08:46:21Z</time>
      </trkpt>
      <trkpt lat="48.51427" lon="-2.63644">
        <ele>47</ele>
        <time>2016-02-19T08:46:24Z</time>
      </trkpt>
      <trkpt lat="48.51428" lon="-2.63651">
        <ele>48</ele>
        <time>2016-02-19T08:46:27Z</time>
      </trkpt>
      <trkpt lat="48.51428" lon="-2.63659">
        <ele>48</ele>
        <time>2016-02-19T08:46:30Z</time>
      </trkpt>
      <trkpt lat="48.51428" lon="-2.63666">
        <ele>48</ele>
        <time>2016-02-19T08:46:33Z</time>
      </trkpt>
      <trkpt lat="48.51429" lon="-2.63673">
        <ele>48</ele>
        <time>2016-02-19T08:46:36Z</time>
      </trkpt>
      <trkpt lat="48.51429" lon="-2.63681">
        <ele>48</ele>
        <time>2016-02-19T08:46:39Z</time>
      </trkpt>
      <trkpt lat="48.5143" lon="-2.63687">
        <ele>49</ele>
        <time>2016-02-19T08:46:42Z</time>
      </trkpt>
      <trkpt lat="48.51431" lon="-2.63694">
        <ele>49</ele>
        <time>2016-02-19T08:46:45Z</time>
      </trkpt>
      <trkpt lat="48.51432" lon="-2.63702">
        <ele>50</ele>
        <time>2016-02-19T08:46:48Z</time>
      </trkpt>
      <trkpt lat="48.51432" lon="-2.63709">
        <ele>50</ele>
        <time>2016-02-19T08:46:51Z</time>
      </trkpt>
      <trkpt lat="48.51433" lon="-2.63716">
        <ele>50</ele>
        <time>2016-02-19T08:46:54Z</time>
      </trkpt>
      <trkpt lat="48.51434" lon="-2.63722">
        <ele>50</ele>
        <time>2016-02-19T08:46:57Z</time>
      </trkpt>
      <trkpt lat="48.51434" lon="-2.63729">
        <ele>51</ele>
        <time>2016-02-19T08:47:00Z</time>
      </trkpt>
      <trkpt lat="48.51435" lon="-2.63737">
        <ele>51</ele>
        <time>2016-02-19T08:47:03Z</time>
      </trkpt>
      <trkpt lat="48.51435" lon="-2.63744">
        <ele>52</ele>
        <time>2016-02-19T08:47:06Z</time>
      </trkpt>
      <trkpt lat="48.51435" lon="-2.63752">
        <ele>52</ele>
        <time>2016-02-19T08:47:09Z</time>
      </trkpt>
      <trkpt lat="48.51435" lon="-2.63759">
        <ele>52</ele>
        <time>2016-02-19T08:47:12Z</time>
      </trkpt>
      <trkpt lat="48.51433" lon="-2.63766">
        <ele>52</ele>
        <time>2016-02-19T08:47:15Z</time>
      </trkpt>
      <trkpt lat="48.5143" lon="-2.63772">
        <ele>52</ele>
        <time>2016-02-19T08:47:18Z</time>
      </trkpt>
      <trkpt lat="48.51427" lon="-2.63778">
        <ele>52</ele>
        <time>2016-02-19T08:47:21Z</time>
      </trkpt>
      <trkpt lat="48.51424" lon="-2.63781">
        <ele>52</ele>
        <time>2016-02-19T08:47:25Z</time>
      </trkpt>
      <trkpt lat="48.51423" lon="-2.63784">
        <ele>52</ele>
        <time>2016-02-19T08:47:37Z</time>
      </trkpt>
      <trkpt lat="48.51422" lon="-2.63785">
        <ele>52</ele>
        <time>2016-02-19T08:47:40Z</time>
      </trkpt>
      <trkpt lat="48.51423" lon="-2.63786">
        <ele>52</ele>
        <time>2016-02-19T08:47:49Z</time>
      </trkpt>
      <trkpt lat="48.51424" lon="-2.63787">
        <ele>52</ele>
        <time>2016-02-19T08:47:52Z</time>
      </trkpt>
      <trkpt lat="48.51423" lon="-2.63792">
        <ele>52</ele>
        <time>2016-02-19T08:47:55Z</time>
      </trkpt>
      <trkpt lat="48.51422" lon="-2.63796">
        <ele>52</ele>
        <time>2016-02-19T08:47:59Z</time>
      </trkpt>
      <trkpt lat="48.51422" lon="-2.63802">
        <ele>52</ele>
        <time>2016-02-19T08:48:02Z</time>
      </trkpt>
      <trkpt lat="48.5142" lon="-2.63809">
        <ele>52</ele>
        <time>2016-02-19T08:48:05Z</time>
      </trkpt>
      <trkpt lat="48.51419" lon="-2.63816">
        <ele>52</ele>
        <time>2016-02-19T08:48:08Z</time>
      </trkpt>
      <trkpt lat="48.51419" lon="-2.63823">
        <ele>52</ele>
        <time>2016-02-19T08:48:11Z</time>
      </trkpt>
      <trkpt lat="48.51418" lon="-2.6383">
        <ele>52</ele>
        <time>2016-02-19T08:48:14Z</time>
      </trkpt>
      <trkpt lat="48.51417" lon="-2.63835">
        <ele>52</ele>
        <time>2016-02-19T08:48:18Z</time>
      </trkpt>
      <trkpt lat="48.51417" lon="-2.63841">
        <ele>52</ele>
        <time>2016-02-19T08:48:21Z</time>
      </trkpt>
      <trkpt lat="48.51416" lon="-2.63848">
        <ele>52</ele>
        <time>2016-02-19T08:48:24Z</time>
      </trkpt>
      <trkpt lat="48.51416" lon="-2.63855">
        <ele>52</ele>
        <time>2016-02-19T08:48:27Z</time>
      </trkpt>
      <trkpt lat="48.51415" lon="-2.63862">
        <ele>52</ele>
        <time>2016-02-19T08:48:30Z</time>
      </trkpt>
      <trkpt lat="48.51414" lon="-2.63868">
        <ele>53</ele>
        <time>2016-02-19T08:48:33Z</time>
      </trkpt>
      <trkpt lat="48.51412" lon="-2.63876">
        <ele>53</ele>
        <time>2016-02-19T08:48:36Z</time>
      </trkpt>
      <trkpt lat="48.51411" lon="-2.63883">
        <ele>54</ele>
        <time>2016-02-19T08:48:39Z</time>
      </trkpt>
      <trkpt lat="48.51411" lon="-2.63889">
        <ele>54</ele>
        <time>2016-02-19T08:48:44Z</time>
      </trkpt>
      <trkpt lat="48.5141" lon="-2.63895">
        <ele>54</ele>
        <time>2016-02-19T08:48:47Z</time>
      </trkpt>
      <trkpt lat="48.51409" lon="-2.639">
        <ele>55</ele>
        <time>2016-02-19T08:48:50Z</time>
      </trkpt>
      <trkpt lat="48.51408" lon="-2.63907">
        <ele>55</ele>
        <time>2016-02-19T08:48:53Z</time>
      </trkpt>
      <trkpt lat="48.51407" lon="-2.63912">
        <ele>55</ele>
        <time>2016-02-19T08:48:56Z</time>
      </trkpt>
      <trkpt lat="48.51405" lon="-2.63919">
        <ele>56</ele>
        <time>2016-02-19T08:48:59Z</time>
      </trkpt>
      <trkpt lat="48.51403" lon="-2.63925">
        <ele>56</ele>
        <time>2016-02-19T08:49:02Z</time>
      </trkpt>
      <trkpt lat="48.51401" lon="-2.63932">
        <ele>56</ele>
        <time>2016-02-19T08:49:05Z</time>
      </trkpt>
      <trkpt lat="48.514" lon="-2.63938">
        <ele>56</ele>
        <time>2016-02-19T08:49:08Z</time>
      </trkpt>
      <trkpt lat="48.51397" lon="-2.63945">
        <ele>56</ele>
        <time>2016-02-19T08:49:12Z</time>
      </trkpt>
      <trkpt lat="48.51396" lon="-2.63951">
        <ele>56</ele>
        <time>2016-02-19T08:49:15Z</time>
      </trkpt>
      <trkpt lat="48.51394" lon="-2.63958">
        <ele>56</ele>
        <time>2016-02-19T08:49:19Z</time>
      </trkpt>
      <trkpt lat="48.51392" lon="-2.63963">
        <ele>56</ele>
        <time>2016-02-19T08:49:22Z</time>
      </trkpt>
      <trkpt lat="48.5139" lon="-2.6397">
        <ele>56</ele>
        <time>2016-02-19T08:49:25Z</time>
      </trkpt>
      <trkpt lat="48.51388" lon="-2.63976">
        <ele>56</ele>
        <time>2016-02-19T08:49:28Z</time>
      </trkpt>
      <trkpt lat="48.51386" lon="-2.63982">
        <ele>56</ele>
        <time>2016-02-19T08:49:31Z</time>
      </trkpt>
      <trkpt lat="48.51384" lon="-2.63988">
        <ele>56</ele>
        <time>2016-02-19T08:49:34Z</time>
      </trkpt>
      <trkpt lat="48.51382" lon="-2.63994">
        <ele>56</ele>
        <time>2016-02-19T08:49:37Z</time>
      </trkpt>
      <trkpt lat="48.5138" lon="-2.64001">
        <ele>56</ele>
        <time>2016-02-19T08:49:40Z</time>
      </trkpt>
      <trkpt lat="48.51378" lon="-2.64007">
        <ele>56</ele>
        <time>2016-02-19T08:49:43Z</time>
      </trkpt>
      <trkpt lat="48.51376" lon="-2.64014">
        <ele>56</ele>
        <time>2016-02-19T08:49:46Z</time>
      </trkpt>
      <trkpt lat="48.51374" lon="-2.6402">
        <ele>56</ele>
        <time>2016-02-19T08:49:49Z</time>
      </trkpt>
      <trkpt lat="48.51373" lon="-2.64026">
        <ele>56</ele>
        <time>2016-02-19T08:49:52Z</time>
      </trkpt>
      <trkpt lat="48.51371" lon="-2.64032">
        <ele>56</ele>
        <time>2016-02-19T08:49:55Z</time>
      </trkpt>
      <trkpt lat="48.51369" lon="-2.64039">
        <ele>56</ele>
        <time>2016-02-19T08:49:58Z</time>
      </trkpt>
      <trkpt lat="48.51367" lon="-2.64046">
        <ele>56</ele>
        <time>2016-02-19T08:50:01Z</time>
      </trkpt>
      <trkpt lat="48.51365" lon="-2.64054">
        <ele>56</ele>
        <time>2016-02-19T08:50:04Z</time>
      </trkpt>
      <trkpt lat="48.51364" lon="-2.64062">
        <ele>56</ele>
        <time>2016-02-19T08:50:07Z</time>
      </trkpt>
      <trkpt lat="48.51362" lon="-2.64069">
        <ele>57</ele>
        <time>2016-02-19T08:50:10Z</time>
      </trkpt>
      <trkpt lat="48.51361" lon="-2.64076">
        <ele>57</ele>
        <time>2016-02-19T08:50:13Z</time>
      </trkpt>
      <trkpt lat="48.51359" lon="-2.64082">
        <ele>58</ele>
        <time>2016-02-19T08:50:16Z</time>
      </trkpt>
      <trkpt lat="48.51357" lon="-2.64088">
        <ele>59</ele>
        <time>2016-02-19T08:50:19Z</time>
      </trkpt>
      <trkpt lat="48.51356" lon="-2.64095">
        <ele>59</ele>
        <time>2016-02-19T08:50:22Z</time>
      </trkpt>
      <trkpt lat="48.51355" lon="-2.64102">
        <ele>60</ele>
        <time>2016-02-19T08:50:25Z</time>
      </trkpt>
      <trkpt lat="48.51353" lon="-2.64109">
        <ele>60</ele>
        <time>2016-02-19T08:50:28Z</time>
      </trkpt>
      <trkpt lat="48.51352" lon="-2.64116">
        <ele>61</ele>
        <time>2016-02-19T08:50:31Z</time>
      </trkpt>
      <trkpt lat="48.5135" lon="-2.64122">
        <ele>62</ele>
        <time>2016-02-19T08:50:34Z</time>
      </trkpt>
      <trkpt lat="48.51349" lon="-2.64128">
        <ele>62</ele>
        <time>2016-02-19T08:50:37Z</time>
      </trkpt>
      <trkpt lat="48.51347" lon="-2.64136">
        <ele>62</ele>
        <time>2016-02-19T08:50:41Z</time>
      </trkpt>
      <trkpt lat="48.51345" lon="-2.64142">
        <ele>62</ele>
        <time>2016-02-19T08:50:44Z</time>
      </trkpt>
      <trkpt lat="48.51344" lon="-2.64149">
        <ele>62</ele>
        <time>2016-02-19T08:50:47Z</time>
      </trkpt>
      <trkpt lat="48.51343" lon="-2.64156">
        <ele>62</ele>
        <time>2016-02-19T08:50:50Z</time>
      </trkpt>
      <trkpt lat="48.51342" lon="-2.64162">
        <ele>62</ele>
        <time>2016-02-19T08:50:53Z</time>
      </trkpt>
      <trkpt lat="48.5134" lon="-2.64168">
        <ele>62</ele>
        <time>2016-02-19T08:50:56Z</time>
      </trkpt>
      <trkpt lat="48.51339" lon="-2.64176">
        <ele>62</ele>
        <time>2016-02-19T08:50:59Z</time>
      </trkpt>
      <trkpt lat="48.51338" lon="-2.64182">
        <ele>63</ele>
        <time>2016-02-19T08:51:02Z</time>
      </trkpt>
      <trkpt lat="48.51337" lon="-2.64189">
        <ele>63</ele>
        <time>2016-02-19T08:51:05Z</time>
      </trkpt>
      <trkpt lat="48.51335" lon="-2.64195">
        <ele>63</ele>
        <time>2016-02-19T08:51:08Z</time>
      </trkpt>
      <trkpt lat="48.51333" lon="-2.64202">
        <ele>64</ele>
        <time>2016-02-19T08:51:11Z</time>
      </trkpt>
      <trkpt lat="48.51332" lon="-2.64209">
        <ele>64</ele>
        <time>2016-02-19T08:51:14Z</time>
      </trkpt>
      <trkpt lat="48.51331" lon="-2.64216">
        <ele>65</ele>
        <time>2016-02-19T08:51:17Z</time>
      </trkpt>
      <trkpt lat="48.51329" lon="-2.64223">
        <ele>65</ele>
        <time>2016-02-19T08:51:20Z</time>
      </trkpt>
      <trkpt lat="48.51328" lon="-2.64229">
        <ele>65</ele>
        <time>2016-02-19T08:51:23Z</time>
      </trkpt>
      <trkpt lat="48.51327" lon="-2.64236">
        <ele>65</ele>
        <time>2016-02-19T08:51:26Z</time>
      </trkpt>
      <trkpt lat="48.51325" lon="-2.64243">
        <ele>66</ele>
        <time>2016-02-19T08:51:29Z</time>
      </trkpt>
      <trkpt lat="48.51324" lon="-2.6425">
        <ele>66</ele>
        <time>2016-02-19T08:51:32Z</time>
      </trkpt>
      <trkpt lat="48.51323" lon="-2.64256">
        <ele>66</ele>
        <time>2016-02-19T08:51:35Z</time>
      </trkpt>
      <trkpt lat="48.51321" lon="-2.64261">
        <ele>66</ele>
        <time>2016-02-19T08:51:38Z</time>
      </trkpt>
      <trkpt lat="48.5132" lon="-2.64267">
        <ele>66</ele>
        <time>2016-02-19T08:51:41Z</time>
      </trkpt>
      <trkpt lat="48.51319" lon="-2.64274">
        <ele>66</ele>
        <time>2016-02-19T08:51:44Z</time>
      </trkpt>
      <trkpt lat="48.51318" lon="-2.64281">
        <ele>66</ele>
        <time>2016-02-19T08:51:47Z</time>
      </trkpt>
      <trkpt lat="48.51316" lon="-2.64287">
        <ele>66</ele>
        <time>2016-02-19T08:51:50Z</time>
      </trkpt>
      <trkpt lat="48.51315" lon="-2.64294">
        <ele>66</ele>
        <time>2016-02-19T08:51:53Z</time>
      </trkpt>
      <trkpt lat="48.51314" lon="-2.64302">
        <ele>66</ele>
        <time>2016-02-19T08:51:56Z</time>
      </trkpt>
      <trkpt lat="48.51313" lon="-2.64309">
        <ele>66</ele>
        <time>2016-02-19T08:51:59Z</time>
      </trkpt>
      <trkpt lat="48.51312" lon="-2.64316">
        <ele>66</ele>
        <time>2016-02-19T08:52:02Z</time>
      </trkpt>
      <trkpt lat="48.51311" lon="-2.64323">
        <ele>66</ele>
        <time>2016-02-19T08:52:05Z</time>
      </trkpt>
      <trkpt lat="48.5131" lon="-2.64331">
        <ele>66</ele>
        <time>2016-02-19T08:52:08Z</time>
      </trkpt>
      <trkpt lat="48.51309" lon="-2.64338">
        <ele>66</ele>
        <time>2016-02-19T08:52:11Z</time>
      </trkpt>
      <trkpt lat="48.51308" lon="-2.64345">
        <ele>66</ele>
        <time>2016-02-19T08:52:14Z</time>
      </trkpt>
      <trkpt lat="48.51308" lon="-2.64352">
        <ele>66</ele>
        <time>2016-02-19T08:52:17Z</time>
      </trkpt>
      <trkpt lat="48.51307" lon="-2.64359">
        <ele>66</ele>
        <time>2016-02-19T08:52:20Z</time>
      </trkpt>
      <trkpt lat="48.51306" lon="-2.64367">
        <ele>66</ele>
        <time>2016-02-19T08:52:23Z</time>
      </trkpt>
      <trkpt lat="48.51305" lon="-2.64374">
        <ele>66</ele>
        <time>2016-02-19T08:52:26Z</time>
      </trkpt>
      <trkpt lat="48.51305" lon="-2.64381">
        <ele>66</ele>
        <time>2016-02-19T08:52:29Z</time>
      </trkpt>
      <trkpt lat="48.51304" lon="-2.64388">
        <ele>66</ele>
        <time>2016-02-19T08:52:32Z</time>
      </trkpt>
      <trkpt lat="48.51303" lon="-2.64395">
        <ele>66</ele>
        <time>2016-02-19T08:52:35Z</time>
      </trkpt>
      <trkpt lat="48.51302" lon="-2.64403">
        <ele>66</ele>
        <time>2016-02-19T08:52:38Z</time>
      </trkpt>
      <trkpt lat="48.51302" lon="-2.6441">
        <ele>66</ele>
        <time>2016-02-19T08:52:41Z</time>
      </trkpt>
      <trkpt lat="48.513" lon="-2.64418">
        <ele>66</ele>
        <time>2016-02-19T08:52:44Z</time>
      </trkpt>
      <trkpt lat="48.513" lon="-2.64425">
        <ele>66</ele>
        <time>2016-02-19T08:52:47Z</time>
      </trkpt>
      <trkpt lat="48.51299" lon="-2.64432">
        <ele>66</ele>
        <time>2016-02-19T08:52:50Z</time>
      </trkpt>
      <trkpt lat="48.51298" lon="-2.6444">
        <ele>66</ele>
        <time>2016-02-19T08:52:53Z</time>
      </trkpt>
      <trkpt lat="48.51297" lon="-2.64447">
        <ele>66</ele>
        <time>2016-02-19T08:52:56Z</time>
      </trkpt>
      <trkpt lat="48.51297" lon="-2.64455">
        <ele>66</ele>
        <time>2016-02-19T08:52:59Z</time>
      </trkpt>
      <trkpt lat="48.51295" lon="-2.64462">
        <ele>66</ele>
        <time>2016-02-19T08:53:02Z</time>
      </trkpt>
      <trkpt lat="48.51294" lon="-2.64469">
        <ele>66</ele>
        <time>2016-02-19T08:53:05Z</time>
      </trkpt>
      <trkpt lat="48.51293" lon="-2.64476">
        <ele>66</ele>
        <time>2016-02-19T08:53:08Z</time>
      </trkpt>
      <trkpt lat="48.51292" lon="-2.64483">
        <ele>66</ele>
        <time>2016-02-19T08:53:11Z</time>
      </trkpt>
      <trkpt lat="48.51292" lon="-2.6449">
        <ele>66</ele>
        <time>2016-02-19T08:53:14Z</time>
      </trkpt>
      <trkpt lat="48.51291" lon="-2.64497">
        <ele>66</ele>
        <time>2016-02-19T08:53:17Z</time>
      </trkpt>
      <trkpt lat="48.51289" lon="-2.64505">
        <ele>66</ele>
        <time>2016-02-19T08:53:20Z</time>
      </trkpt>
      <trkpt lat="48.51288" lon="-2.64512">
        <ele>66</ele>
        <time>2016-02-19T08:53:23Z</time>
      </trkpt>
      <trkpt lat="48.51286" lon="-2.64519">
        <ele>66</ele>
        <time>2016-02-19T08:53:26Z</time>
      </trkpt>
      <trkpt lat="48.51284" lon="-2.64525">
        <ele>66</ele>
        <time>2016-02-19T08:53:29Z</time>
      </trkpt>
      <trkpt lat="48.51282" lon="-2.64532">
        <ele>66</ele>
        <time>2016-02-19T08:53:32Z</time>
      </trkpt>
      <trkpt lat="48.51279" lon="-2.64538">
        <ele>66</ele>
        <time>2016-02-19T08:53:35Z</time>
      </trkpt>
      <trkpt lat="48.51276" lon="-2.64545">
        <ele>66</ele>
        <time>2016-02-19T08:53:38Z</time>
      </trkpt>
      <trkpt lat="48.51273" lon="-2.64551">
        <ele>67</ele>
        <time>2016-02-19T08:53:41Z</time>
      </trkpt>
      <trkpt lat="48.5127" lon="-2.64557">
        <ele>67</ele>
        <time>2016-02-19T08:53:44Z</time>
      </trkpt>
      <trkpt lat="48.51268" lon="-2.64561">
        <ele>67</ele>
        <time>2016-02-19T08:53:47Z</time>
      </trkpt>
      <trkpt lat="48.51265" lon="-2.64565">
        <ele>67</ele>
        <time>2016-02-19T08:53:50Z</time>
      </trkpt>
      <trkpt lat="48.51262" lon="-2.64569">
        <ele>67</ele>
        <time>2016-02-19T08:54:04Z</time>
      </trkpt>
      <trkpt lat="48.51258" lon="-2.64574">
        <ele>67</ele>
        <time>2016-02-19T08:54:08Z</time>
      </trkpt>
      <trkpt lat="48.51255" lon="-2.64579">
        <ele>67</ele>
        <time>2016-02-19T08:54:11Z</time>
      </trkpt>
      <trkpt lat="48.51252" lon="-2.64584">
        <ele>67</ele>
        <time>2016-02-19T08:54:14Z</time>
      </trkpt>
      <trkpt lat="48.51249" lon="-2.64589">
        <ele>67</ele>
        <time>2016-02-19T08:54:17Z</time>
      </trkpt>
      <trkpt lat="48.51247" lon="-2.64594">
        <ele>67</ele>
        <time>2016-02-19T08:54:20Z</time>
      </trkpt>
      <trkpt lat="48.51244" lon="-2.646">
        <ele>67</ele>
        <time>2016-02-19T08:54:23Z</time>
      </trkpt>
      <trkpt lat="48.51241" lon="-2.64606">
        <ele>67</ele>
        <time>2016-02-19T08:54:26Z</time>
      </trkpt>
      <trkpt lat="48.51239" lon="-2.64611">
        <ele>67</ele>
        <time>2016-02-19T08:54:29Z</time>
      </trkpt>
      <trkpt lat="48.51236" lon="-2.64616">
        <ele>67</ele>
        <time>2016-02-19T08:54:32Z</time>
      </trkpt>
      <trkpt lat="48.51233" lon="-2.64622">
        <ele>67</ele>
        <time>2016-02-19T08:54:35Z</time>
      </trkpt>
      <trkpt lat="48.5123" lon="-2.64628">
        <ele>67</ele>
        <time>2016-02-19T08:54:38Z</time>
      </trkpt>
      <trkpt lat="48.51228" lon="-2.64634">
        <ele>67</ele>
        <time>2016-02-19T08:54:41Z</time>
      </trkpt>
      <trkpt lat="48.51225" lon="-2.64641">
        <ele>67</ele>
        <time>2016-02-19T08:54:44Z</time>
      </trkpt>
      <trkpt lat="48.51221" lon="-2.64647">
        <ele>67</ele>
        <time>2016-02-19T08:54:47Z</time>
      </trkpt>
      <trkpt lat="48.51218" lon="-2.64653">
        <ele>67</ele>
        <time>2016-02-19T08:54:50Z</time>
      </trkpt>
      <trkpt lat="48.51216" lon="-2.64659">
        <ele>67</ele>
        <time>2016-02-19T08:54:53Z</time>
      </trkpt>
      <trkpt lat="48.51213" lon="-2.64665">
        <ele>67</ele>
        <time>2016-02-19T08:54:56Z</time>
      </trkpt>
      <trkpt lat="48.51211" lon="-2.64671">
        <ele>67</ele>
        <time>2016-02-19T08:54:59Z</time>
      </trkpt>
      <trkpt lat="48.51208" lon="-2.64677">
        <ele>67</ele>
        <time>2016-02-19T08:55:02Z</time>
      </trkpt>
      <trkpt lat="48.51205" lon="-2.64683">
        <ele>67</ele>
        <time>2016-02-19T08:55:05Z</time>
      </trkpt>
      <trkpt lat="48.51202" lon="-2.64689">
        <ele>67</ele>
        <time>2016-02-19T08:55:08Z</time>
      </trkpt>
      <trkpt lat="48.51198" lon="-2.64697">
        <ele>67</ele>
        <time>2016-02-19T08:55:12Z</time>
      </trkpt>
      <trkpt lat="48.51195" lon="-2.64703">
        <ele>67</ele>
        <time>2016-02-19T08:55:15Z</time>
      </trkpt>
      <trkpt lat="48.51192" lon="-2.64708">
        <ele>67</ele>
        <time>2016-02-19T08:55:18Z</time>
      </trkpt>
      <trkpt lat="48.51189" lon="-2.64713">
        <ele>67</ele>
        <time>2016-02-19T08:55:21Z</time>
      </trkpt>
      <trkpt lat="48.51186" lon="-2.64718">
        <ele>67</ele>
        <time>2016-02-19T08:55:24Z</time>
      </trkpt>
      <trkpt lat="48.51182" lon="-2.64723">
        <ele>67</ele>
        <time>2016-02-19T08:55:27Z</time>
      </trkpt>
      <trkpt lat="48.51178" lon="-2.64727">
        <ele>67</ele>
        <time>2016-02-19T08:55:30Z</time>
      </trkpt>
      <trkpt lat="48.51173" lon="-2.64729">
        <ele>67</ele>
        <time>2016-02-19T08:55:33Z</time>
      </trkpt>
      <trkpt lat="48.51169" lon="-2.6473">
        <ele>67</ele>
        <time>2016-02-19T08:55:36Z</time>
      </trkpt>
      <trkpt lat="48.51164" lon="-2.6473">
        <ele>67</ele>
        <time>2016-02-19T08:55:39Z</time>
      </trkpt>
      <trkpt lat="48.5116" lon="-2.64728">
        <ele>67</ele>
        <time>2016-02-19T08:55:42Z</time>
      </trkpt>
      <trkpt lat="48.51155" lon="-2.64726">
        <ele>67</ele>
        <time>2016-02-19T08:55:45Z</time>
      </trkpt>
      <trkpt lat="48.51151" lon="-2.64724">
        <ele>67</ele>
        <time>2016-02-19T08:55:48Z</time>
      </trkpt>
      <trkpt lat="48.51147" lon="-2.64722">
        <ele>67</ele>
        <time>2016-02-19T08:55:51Z</time>
      </trkpt>
      <trkpt lat="48.51143" lon="-2.6472">
        <ele>67</ele>
        <time>2016-02-19T08:55:54Z</time>
      </trkpt>
      <trkpt lat="48.51139" lon="-2.64718">
        <ele>66</ele>
        <time>2016-02-19T08:55:57Z</time>
      </trkpt>
      <trkpt lat="48.51134" lon="-2.64718">
        <ele>66</ele>
        <time>2016-02-19T08:56:00Z</time>
      </trkpt>
      <trkpt lat="48.5113" lon="-2.6472">
        <ele>66</ele>
        <time>2016-02-19T08:56:03Z</time>
      </trkpt>
      <trkpt lat="48.51127" lon="-2.64725">
        <ele>66</ele>
        <time>2016-02-19T08:56:06Z</time>
      </trkpt>
      <trkpt lat="48.51127" lon="-2.64732">
        <ele>66</ele>
        <time>2016-02-19T08:56:09Z</time>
      </trkpt>
      <trkpt lat="48.51128" lon="-2.64739">
        <ele>66</ele>
        <time>2016-02-19T08:56:12Z</time>
      </trkpt>
      <trkpt lat="48.51128" lon="-2.64746">
        <ele>66</ele>
        <time>2016-02-19T08:56:15Z</time>
      </trkpt>
      <trkpt lat="48.51129" lon="-2.64753">
        <ele>66</ele>
        <time>2016-02-19T08:56:18Z</time>
      </trkpt>
      <trkpt lat="48.5113" lon="-2.6476">
        <ele>66</ele>
        <time>2016-02-19T08:56:21Z</time>
      </trkpt>
      <trkpt lat="48.51131" lon="-2.64768">
        <ele>66</ele>
        <time>2016-02-19T08:56:24Z</time>
      </trkpt>
      <trkpt lat="48.51132" lon="-2.64775">
        <ele>66</ele>
        <time>2016-02-19T08:56:27Z</time>
      </trkpt>
      <trkpt lat="48.51133" lon="-2.64782">
        <ele>66</ele>
        <time>2016-02-19T08:56:30Z</time>
      </trkpt>
      <trkpt lat="48.51134" lon="-2.64789">
        <ele>66</ele>
        <time>2016-02-19T08:56:33Z</time>
      </trkpt>
      <trkpt lat="48.51135" lon="-2.64796">
        <ele>66</ele>
        <time>2016-02-19T08:56:36Z</time>
      </trkpt>
      <trkpt lat="48.51136" lon="-2.64803">
        <ele>66</ele>
        <time>2016-02-19T08:56:39Z</time>
      </trkpt>
      <trkpt lat="48.51137" lon="-2.6481">
        <ele>66</ele>
        <time>2016-02-19T08:56:42Z</time>
      </trkpt>
      <trkpt lat="48.51138" lon="-2.64818">
        <ele>66</ele>
        <time>2016-02-19T08:56:45Z</time>
      </trkpt>
      <trkpt lat="48.51139" lon="-2.64825">
        <ele>66</ele>
        <time>2016-02-19T08:56:48Z</time>
      </trkpt>
      <trkpt lat="48.5114" lon="-2.64832">
        <ele>66</ele>
        <time>2016-02-19T08:56:51Z</time>
      </trkpt>
      <trkpt lat="48.51141" lon="-2.64839">
        <ele>66</ele>
        <time>2016-02-19T08:56:54Z</time>
      </trkpt>
      <trkpt lat="48.51142" lon="-2.64846">
        <ele>66</ele>
        <time>2016-02-19T08:56:57Z</time>
      </trkpt>
      <trkpt lat="48.51143" lon="-2.64854">
        <ele>66</ele>
        <time>2016-02-19T08:57:00Z</time>
      </trkpt>
      <trkpt lat="48.51144" lon="-2.6486">
        <ele>66</ele>
        <time>2016-02-19T08:57:03Z</time>
      </trkpt>
      <trkpt lat="48.51145" lon="-2.64867">
        <ele>66</ele>
        <time>2016-02-19T08:57:06Z</time>
      </trkpt>
      <trkpt lat="48.51146" lon="-2.64874">
        <ele>66</ele>
        <time>2016-02-19T08:57:09Z</time>
      </trkpt>
      <trkpt lat="48.51147" lon="-2.64881">
        <ele>66</ele>
        <time>2016-02-19T08:57:12Z</time>
      </trkpt>
      <trkpt lat="48.51148" lon="-2.64887">
        <ele>66</ele>
        <time>2016-02-19T08:57:15Z</time>
      </trkpt>
      <trkpt lat="48.51149" lon="-2.64894">
        <ele>66</ele>
        <time>2016-02-19T08:57:18Z</time>
      </trkpt>
      <trkpt lat="48.5115" lon="-2.649">
        <ele>66</ele>
        <time>2016-02-19T08:57:21Z</time>
      </trkpt>
      <trkpt lat="48.51151" lon="-2.64906">
        <ele>66</ele>
        <time>2016-02-19T08:57:24Z</time>
      </trkpt>
      <trkpt lat="48.51152" lon="-2.64912">
        <ele>66</ele>
        <time>2016-02-19T08:57:27Z</time>
      </trkpt>
      <trkpt lat="48.51153" lon="-2.64919">
        <ele>66</ele>
        <time>2016-02-19T08:57:30Z</time>
      </trkpt>
      <trkpt lat="48.51153" lon="-2.64926">
        <ele>66</ele>
        <time>2016-02-19T08:57:33Z</time>
      </trkpt>
      <trkpt lat="48.51153" lon="-2.64933">
        <ele>66</ele>
        <time>2016-02-19T08:57:36Z</time>
      </trkpt>
      <trkpt lat="48.51154" lon="-2.6494">
        <ele>66</ele>
        <time>2016-02-19T08:57:39Z</time>
      </trkpt>
      <trkpt lat="48.51154" lon="-2.64947">
        <ele>66</ele>
        <time>2016-02-19T08:57:42Z</time>
      </trkpt>
      <trkpt lat="48.51154" lon="-2.64954">
        <ele>66</ele>
        <time>2016-02-19T08:57:45Z</time>
      </trkpt>
      <trkpt lat="48.51154" lon="-2.64961">
        <ele>66</ele>
        <time>2016-02-19T08:57:48Z</time>
      </trkpt>
      <trkpt lat="48.51154" lon="-2.64968">
        <ele>66</ele>
        <time>2016-02-19T08:57:51Z</time>
      </trkpt>
      <trkpt lat="48.51155" lon="-2.64975">
        <ele>66</ele>
        <time>2016-02-19T08:57:54Z</time>
      </trkpt>
      <trkpt lat="48.51155" lon="-2.64985">
        <ele>66</ele>
        <time>2016-02-19T08:57:58Z</time>
      </trkpt>
      <trkpt lat="48.51155" lon="-2.64992">
        <ele>66</ele>
        <time>2016-02-19T08:58:01Z</time>
      </trkpt>
      <trkpt lat="48.51156" lon="-2.65">
        <ele>66</ele>
        <time>2016-02-19T08:58:04Z</time>
      </trkpt>
      <trkpt lat="48.51156" lon="-2.65006">
        <ele>65</ele>
        <time>2016-02-19T08:58:07Z</time>
      </trkpt>
      <trkpt lat="48.51156" lon="-2.65014">
        <ele>65</ele>
        <time>2016-02-19T08:58:10Z</time>
      </trkpt>
      <trkpt lat="48.51156" lon="-2.65021">
        <ele>65</ele>
        <time>2016-02-19T08:58:13Z</time>
      </trkpt>
      <trkpt lat="48.51156" lon="-2.65029">
        <ele>65</ele>
        <time>2016-02-19T08:58:16Z</time>
      </trkpt>
      <trkpt lat="48.51156" lon="-2.65037">
        <ele>64</ele>
        <time>2016-02-19T08:58:19Z</time>
      </trkpt>
      <trkpt lat="48.51156" lon="-2.65044">
        <ele>64</ele>
        <time>2016-02-19T08:58:22Z</time>
      </trkpt>
      <trkpt lat="48.51156" lon="-2.65052">
        <ele>64</ele>
        <time>2016-02-19T08:58:25Z</time>
      </trkpt>
      <trkpt lat="48.51155" lon="-2.65059">
        <ele>64</ele>
        <time>2016-02-19T08:58:28Z</time>
      </trkpt>
      <trkpt lat="48.51155" lon="-2.65066">
        <ele>64</ele>
        <time>2016-02-19T08:58:31Z</time>
      </trkpt>
      <trkpt lat="48.51155" lon="-2.65076">
        <ele>64</ele>
        <time>2016-02-19T08:58:35Z</time>
      </trkpt>
      <trkpt lat="48.51156" lon="-2.65086">
        <ele>64</ele>
        <time>2016-02-19T08:58:39Z</time>
      </trkpt>
      <trkpt lat="48.51156" lon="-2.65093">
        <ele>64</ele>
        <time>2016-02-19T08:58:42Z</time>
      </trkpt>
      <trkpt lat="48.51156" lon="-2.65101">
        <ele>64</ele>
        <time>2016-02-19T08:58:45Z</time>
      </trkpt>
      <trkpt lat="48.51156" lon="-2.65108">
        <ele>64</ele>
        <time>2016-02-19T08:58:48Z</time>
      </trkpt>
      <trkpt lat="48.51156" lon="-2.65117">
        <ele>64</ele>
        <time>2016-02-19T08:58:52Z</time>
      </trkpt>
      <trkpt lat="48.51156" lon="-2.65127">
        <ele>64</ele>
        <time>2016-02-19T08:58:55Z</time>
      </trkpt>
      <trkpt lat="48.51156" lon="-2.65135">
        <ele>64</ele>
        <time>2016-02-19T08:58:59Z</time>
      </trkpt>
      <trkpt lat="48.51156" lon="-2.65142">
        <ele>64</ele>
        <time>2016-02-19T08:59:02Z</time>
      </trkpt>
      <trkpt lat="48.51157" lon="-2.65149">
        <ele>64</ele>
        <time>2016-02-19T08:59:05Z</time>
      </trkpt>
      <trkpt lat="48.51157" lon="-2.65159">
        <ele>64</ele>
        <time>2016-02-19T08:59:08Z</time>
      </trkpt>
      <trkpt lat="48.51157" lon="-2.65166">
        <ele>63</ele>
        <time>2016-02-19T08:59:12Z</time>
      </trkpt>
      <trkpt lat="48.51157" lon="-2.65173">
        <ele>63</ele>
        <time>2016-02-19T08:59:15Z</time>
      </trkpt>
      <trkpt lat="48.51158" lon="-2.65181">
        <ele>63</ele>
        <time>2016-02-19T08:59:18Z</time>
      </trkpt>
      <trkpt lat="48.51159" lon="-2.65191">
        <ele>63</ele>
        <time>2016-02-19T08:59:22Z</time>
      </trkpt>
      <trkpt lat="48.51159" lon="-2.65197">
        <ele>62</ele>
        <time>2016-02-19T08:59:25Z</time>
      </trkpt>
      <trkpt lat="48.5116" lon="-2.65205">
        <ele>62</ele>
        <time>2016-02-19T08:59:28Z</time>
      </trkpt>
      <trkpt lat="48.5116" lon="-2.65212">
        <ele>61</ele>
        <time>2016-02-19T08:59:31Z</time>
      </trkpt>
      <trkpt lat="48.5116" lon="-2.65218">
        <ele>60</ele>
        <time>2016-02-19T08:59:34Z</time>
      </trkpt>
      <trkpt lat="48.51161" lon="-2.65228">
        <ele>60</ele>
        <time>2016-02-19T08:59:38Z</time>
      </trkpt>
      <trkpt lat="48.51163" lon="-2.65238">
        <ele>59</ele>
        <time>2016-02-19T08:59:42Z</time>
      </trkpt>
      <trkpt lat="48.51163" lon="-2.65244">
        <ele>59</ele>
        <time>2016-02-19T08:59:45Z</time>
      </trkpt>
      <trkpt lat="48.51164" lon="-2.65251">
        <ele>59</ele>
        <time>2016-02-19T08:59:48Z</time>
      </trkpt>
      <trkpt lat="48.51165" lon="-2.6526">
        <ele>59</ele>
        <time>2016-02-19T08:59:52Z</time>
      </trkpt>
      <trkpt lat="48.51167" lon="-2.6527">
        <ele>59</ele>
        <time>2016-02-19T08:59:55Z</time>
      </trkpt>
      <trkpt lat="48.51167" lon="-2.65276">
        <ele>59</ele>
        <time>2016-02-19T08:59:59Z</time>
      </trkpt>
      <trkpt lat="48.51168" lon="-2.65285">
        <ele>58</ele>
        <time>2016-02-19T09:00:02Z</time>
      </trkpt>
      <trkpt lat="48.5117" lon="-2.65293">
        <ele>58</ele>
        <time>2016-02-19T09:00:06Z</time>
      </trkpt>
      <trkpt lat="48.51173" lon="-2.65299">
        <ele>58</ele>
        <time>2016-02-19T09:00:10Z</time>
      </trkpt>
      <trkpt lat="48.51178" lon="-2.653">
        <ele>58</ele>
        <time>2016-02-19T09:00:13Z</time>
      </trkpt>
      <trkpt lat="48.51183" lon="-2.65299">
        <ele>58</ele>
        <time>2016-02-19T09:00:17Z</time>
      </trkpt>
      <trkpt lat="48.51188" lon="-2.65301">
        <ele>57</ele>
        <time>2016-02-19T09:00:20Z</time>
      </trkpt>
      <trkpt lat="48.51192" lon="-2.65301">
        <ele>57</ele>
        <time>2016-02-19T09:00:23Z</time>
      </trkpt>
      <trkpt lat="48.51196" lon="-2.65301">
        <ele>57</ele>
        <time>2016-02-19T09:00:26Z</time>
      </trkpt>
      <trkpt lat="48.51201" lon="-2.65302">
        <ele>57</ele>
        <time>2016-02-19T09:00:30Z</time>
      </trkpt>
      <trkpt lat="48.51207" lon="-2.65303">
        <ele>57</ele>
        <time>2016-02-19T09:00:33Z</time>
      </trkpt>
      <trkpt lat="48.5121" lon="-2.65304">
        <ele>56</ele>
        <time>2016-02-19T09:00:36Z</time>
      </trkpt>
      <trkpt lat="48.51215" lon="-2.65304">
        <ele>56</ele>
        <time>2016-02-19T09:00:40Z</time>
      </trkpt>
      <trkpt lat="48.51221" lon="-2.65304">
        <ele>56</ele>
        <time>2016-02-19T09:00:43Z</time>
      </trkpt>
      <trkpt lat="48.51225" lon="-2.65305">
        <ele>56</ele>
        <time>2016-02-19T09:00:46Z</time>
      </trkpt>
      <trkpt lat="48.51229" lon="-2.65305">
        <ele>56</ele>
        <time>2016-02-19T09:00:50Z</time>
      </trkpt>
      <trkpt lat="48.51235" lon="-2.65305">
        <ele>56</ele>
        <time>2016-02-19T09:00:53Z</time>
      </trkpt>
      <trkpt lat="48.51239" lon="-2.65305">
        <ele>56</ele>
        <time>2016-02-19T09:00:56Z</time>
      </trkpt>
      <trkpt lat="48.51243" lon="-2.65307">
        <ele>56</ele>
        <time>2016-02-19T09:01:00Z</time>
      </trkpt>
      <trkpt lat="48.51247" lon="-2.65309">
        <ele>56</ele>
        <time>2016-02-19T09:01:03Z</time>
      </trkpt>
      <trkpt lat="48.51251" lon="-2.65309">
        <ele>56</ele>
        <time>2016-02-19T09:01:06Z</time>
      </trkpt>
      <trkpt lat="48.51255" lon="-2.65307">
        <ele>56</ele>
        <time>2016-02-19T09:01:10Z</time>
      </trkpt>
      <trkpt lat="48.5126" lon="-2.65305">
        <ele>56</ele>
        <time>2016-02-19T09:01:13Z</time>
      </trkpt>
      <trkpt lat="48.51264" lon="-2.65304">
        <ele>56</ele>
        <time>2016-02-19T09:01:16Z</time>
      </trkpt>
      <trkpt lat="48.51267" lon="-2.65303">
        <ele>56</ele>
        <time>2016-02-19T09:01:20Z</time>
      </trkpt>
      <trkpt lat="48.51271" lon="-2.65302">
        <ele>56</ele>
        <time>2016-02-19T09:01:23Z</time>
      </trkpt>
      <trkpt lat="48.51278" lon="-2.65302">
        <ele>56</ele>
        <time>2016-02-19T09:01:26Z</time>
      </trkpt>
      <trkpt lat="48.51283" lon="-2.65303">
        <ele>56</ele>
        <time>2016-02-19T09:01:30Z</time>
      </trkpt>
      <trkpt lat="48.51289" lon="-2.65305">
        <ele>56</ele>
        <time>2016-02-19T09:01:33Z</time>
      </trkpt>
      <trkpt lat="48.51294" lon="-2.65307">
        <ele>56</ele>
        <time>2016-02-19T09:01:36Z</time>
      </trkpt>
      <trkpt lat="48.51298" lon="-2.65308">
        <ele>56</ele>
        <time>2016-02-19T09:01:40Z</time>
      </trkpt>
      <trkpt lat="48.51304" lon="-2.65312">
        <ele>56</ele>
        <time>2016-02-19T09:01:45Z</time>
      </trkpt>
      <trkpt lat="48.51309" lon="-2.65313">
        <ele>56</ele>
        <time>2016-02-19T09:01:48Z</time>
      </trkpt>
      <trkpt lat="48.51314" lon="-2.65315">
        <ele>55</ele>
        <time>2016-02-19T09:01:51Z</time>
      </trkpt>
      <trkpt lat="48.51319" lon="-2.65318">
        <ele>55</ele>
        <time>2016-02-19T09:01:54Z</time>
      </trkpt>
      <trkpt lat="48.51323" lon="-2.65321">
        <ele>54</ele>
        <time>2016-02-19T09:01:57Z</time>
      </trkpt>
      <trkpt lat="48.51327" lon="-2.65324">
        <ele>54</ele>
        <time>2016-02-19T09:02:01Z</time>
      </trkpt>
      <trkpt lat="48.51333" lon="-2.65327">
        <ele>54</ele>
        <time>2016-02-19T09:02:04Z</time>
      </trkpt>
      <trkpt lat="48.51337" lon="-2.65329">
        <ele>54</ele>
        <time>2016-02-19T09:02:07Z</time>
      </trkpt>
      <trkpt lat="48.51342" lon="-2.65331">
        <ele>53</ele>
        <time>2016-02-19T09:02:11Z</time>
      </trkpt>
      <trkpt lat="48.51348" lon="-2.65332">
        <ele>53</ele>
        <time>2016-02-19T09:02:14Z</time>
      </trkpt>
      <trkpt lat="48.51352" lon="-2.65332">
        <ele>52</ele>
        <time>2016-02-19T09:02:17Z</time>
      </trkpt>
      <trkpt lat="48.51357" lon="-2.65332">
        <ele>51</ele>
        <time>2016-02-19T09:02:21Z</time>
      </trkpt>
      <trkpt lat="48.51363" lon="-2.65333">
        <ele>50</ele>
        <time>2016-02-19T09:02:24Z</time>
      </trkpt>
      <trkpt lat="48.51367" lon="-2.65331">
        <ele>50</ele>
        <time>2016-02-19T09:02:27Z</time>
      </trkpt>
      <trkpt lat="48.51371" lon="-2.65331">
        <ele>49</ele>
        <time>2016-02-19T09:02:31Z</time>
      </trkpt>
      <trkpt lat="48.51377" lon="-2.65331">
        <ele>49</ele>
        <time>2016-02-19T09:02:34Z</time>
      </trkpt>
      <trkpt lat="48.51382" lon="-2.6533">
        <ele>48</ele>
        <time>2016-02-19T09:02:37Z</time>
      </trkpt>
      <trkpt lat="48.51387" lon="-2.65329">
        <ele>48</ele>
        <time>2016-02-19T09:02:41Z</time>
      </trkpt>
      <trkpt lat="48.51393" lon="-2.65327">
        <ele>47</ele>
        <time>2016-02-19T09:02:44Z</time>
      </trkpt>
      <trkpt lat="48.51398" lon="-2.65326">
        <ele>47</ele>
        <time>2016-02-19T09:02:47Z</time>
      </trkpt>
      <trkpt lat="48.51403" lon="-2.65325">
        <ele>46</ele>
        <time>2016-02-19T09:02:51Z</time>
      </trkpt>
      <trkpt lat="48.51408" lon="-2.65324">
        <ele>46</ele>
        <time>2016-02-19T09:02:54Z</time>
      </trkpt>
      <trkpt lat="48.51415" lon="-2.65323">
        <ele>46</ele>
        <time>2016-02-19T09:02:57Z</time>
      </trkpt>
      <trkpt lat="48.5142" lon="-2.65322">
        <ele>46</ele>
        <time>2016-02-19T09:03:01Z</time>
      </trkpt>
      <trkpt lat="48.51427" lon="-2.6532">
        <ele>45</ele>
        <time>2016-02-19T09:03:04Z</time>
      </trkpt>
      <trkpt lat="48.51431" lon="-2.6532">
        <ele>45</ele>
        <time>2016-02-19T09:03:07Z</time>
      </trkpt>
      <trkpt lat="48.51436" lon="-2.6532">
        <ele>45</ele>
        <time>2016-02-19T09:03:11Z</time>
      </trkpt>
      <trkpt lat="48.5144" lon="-2.65319">
        <ele>45</ele>
        <time>2016-02-19T09:03:14Z</time>
      </trkpt>
      <trkpt lat="48.51445" lon="-2.65319">
        <ele>44</ele>
        <time>2016-02-19T09:03:17Z</time>
      </trkpt>
      <trkpt lat="48.51449" lon="-2.65317">
        <ele>44</ele>
        <time>2016-02-19T09:03:21Z</time>
      </trkpt>
      <trkpt lat="48.51453" lon="-2.65314">
        <ele>44</ele>
        <time>2016-02-19T09:03:24Z</time>
      </trkpt>
      <trkpt lat="48.51456" lon="-2.65314">
        <ele>44</ele>
        <time>2016-02-19T09:03:35Z</time>
      </trkpt>
      <trkpt lat="48.51456" lon="-2.65316">
        <ele>44</ele>
        <time>2016-02-19T09:03:38Z</time>
      </trkpt>
      <trkpt lat="48.51458" lon="-2.6532">
        <ele>44</ele>
        <time>2016-02-19T09:03:43Z</time>
      </trkpt>
      <trkpt lat="48.51458" lon="-2.65324">
        <ele>44</ele>
        <time>2016-02-19T09:03:46Z</time>
      </trkpt>
      <trkpt lat="48.51457" lon="-2.65328">
        <ele>44</ele>
        <time>2016-02-19T09:03:49Z</time>
      </trkpt>
      <trkpt lat="48.51458" lon="-2.65335">
        <ele>44</ele>
        <time>2016-02-19T09:03:53Z</time>
      </trkpt>
      <trkpt lat="48.51459" lon="-2.65341">
        <ele>44</ele>
        <time>2016-02-19T09:03:57Z</time>
      </trkpt>
      <trkpt lat="48.5146" lon="-2.65345">
        <ele>44</ele>
        <time>2016-02-19T09:04:00Z</time>
      </trkpt>
      <trkpt lat="48.51461" lon="-2.65352">
        <ele>44</ele>
        <time>2016-02-19T09:04:03Z</time>
      </trkpt>
      <trkpt lat="48.51461" lon="-2.65357">
        <ele>44</ele>
        <time>2016-02-19T09:04:06Z</time>
      </trkpt>
      <trkpt lat="48.51461" lon="-2.65363">
        <ele>44</ele>
        <time>2016-02-19T09:04:09Z</time>
      </trkpt>
      <trkpt lat="48.51462" lon="-2.6537">
        <ele>44</ele>
        <time>2016-02-19T09:04:13Z</time>
      </trkpt>
      <trkpt lat="48.51462" lon="-2.65377">
        <ele>44</ele>
        <time>2016-02-19T09:04:16Z</time>
      </trkpt>
      <trkpt lat="48.51461" lon="-2.65384">
        <ele>44</ele>
        <time>2016-02-19T09:04:19Z</time>
      </trkpt>
      <trkpt lat="48.51462" lon="-2.6539">
        <ele>43</ele>
        <time>2016-02-19T09:04:23Z</time>
      </trkpt>
      <trkpt lat="48.51461" lon="-2.65399">
        <ele>42</ele>
        <time>2016-02-19T09:04:26Z</time>
      </trkpt>
      <trkpt lat="48.51461" lon="-2.65405">
        <ele>42</ele>
        <time>2016-02-19T09:04:30Z</time>
      </trkpt>
      <trkpt lat="48.51461" lon="-2.65411">
        <ele>42</ele>
        <time>2016-02-19T09:04:33Z</time>
      </trkpt>
      <trkpt lat="48.51462" lon="-2.65418">
        <ele>42</ele>
        <time>2016-02-19T09:04:36Z</time>
      </trkpt>
      <trkpt lat="48.51462" lon="-2.65424">
        <ele>41</ele>
        <time>2016-02-19T09:04:39Z</time>
      </trkpt>
      <trkpt lat="48.51463" lon="-2.65431">
        <ele>41</ele>
        <time>2016-02-19T09:04:43Z</time>
      </trkpt>
      <trkpt lat="48.51463" lon="-2.65439">
        <ele>41</ele>
        <time>2016-02-19T09:04:46Z</time>
      </trkpt>
      <trkpt lat="48.51463" lon="-2.65444">
        <ele>40</ele>
        <time>2016-02-19T09:04:49Z</time>
      </trkpt>
      <trkpt lat="48.51463" lon="-2.65451">
        <ele>39</ele>
        <time>2016-02-19T09:04:52Z</time>
      </trkpt>
      <trkpt lat="48.51464" lon="-2.65457">
        <ele>39</ele>
        <time>2016-02-19T09:04:55Z</time>
      </trkpt>
      <trkpt lat="48.51464" lon="-2.65463">
        <ele>38</ele>
        <time>2016-02-19T09:04:59Z</time>
      </trkpt>
      <trkpt lat="48.51463" lon="-2.65472">
        <ele>37</ele>
        <time>2016-02-19T09:05:02Z</time>
      </trkpt>
      <trkpt lat="48.51464" lon="-2.65479">
        <ele>36</ele>
        <time>2016-02-19T09:05:05Z</time>
      </trkpt>
      <trkpt lat="48.51463" lon="-2.65486">
        <ele>36</ele>
        <time>2016-02-19T09:05:09Z</time>
      </trkpt>
      <trkpt lat="48.51463" lon="-2.65497">
        <ele>36</ele>
        <time>2016-02-19T09:05:14Z</time>
      </trkpt>
      <trkpt lat="48.51465" lon="-2.65506">
        <ele>36</ele>
        <time>2016-02-19T09:05:17Z</time>
      </trkpt>
      <trkpt lat="48.51467" lon="-2.65511">
        <ele>36</ele>
        <time>2016-02-19T09:05:20Z</time>
      </trkpt>
      <trkpt lat="48.51471" lon="-2.65515">
        <ele>36</ele>
        <time>2016-02-19T09:05:24Z</time>
      </trkpt>
      <trkpt lat="48.51474" lon="-2.65519">
        <ele>36</ele>
        <time>2016-02-19T09:05:27Z</time>
      </trkpt>
      <trkpt lat="48.51476" lon="-2.65523">
        <ele>36</ele>
        <time>2016-02-19T09:05:31Z</time>
      </trkpt>
      <trkpt lat="48.5148" lon="-2.65528">
        <ele>36</ele>
        <time>2016-02-19T09:05:34Z</time>
      </trkpt>
      <trkpt lat="48.51484" lon="-2.65532">
        <ele>36</ele>
        <time>2016-02-19T09:05:38Z</time>
      </trkpt>
      <trkpt lat="48.51487" lon="-2.65534">
        <ele>36</ele>
        <time>2016-02-19T09:05:42Z</time>
      </trkpt>
      <trkpt lat="48.51492" lon="-2.65538">
        <ele>36</ele>
        <time>2016-02-19T09:05:45Z</time>
      </trkpt>
      <trkpt lat="48.51496" lon="-2.65542">
        <ele>35</ele>
        <time>2016-02-19T09:05:48Z</time>
      </trkpt>
      <trkpt lat="48.51502" lon="-2.65546">
        <ele>35</ele>
        <time>2016-02-19T09:05:51Z</time>
      </trkpt>
      <trkpt lat="48.51506" lon="-2.65551">
        <ele>34</ele>
        <time>2016-02-19T09:05:54Z</time>
      </trkpt>
      <trkpt lat="48.51509" lon="-2.65554">
        <ele>32</ele>
        <time>2016-02-19T09:05:58Z</time>
      </trkpt>
      <trkpt lat="48.51512" lon="-2.65558">
        <ele>32</ele>
        <time>2016-02-19T09:06:02Z</time>
      </trkpt>
      <trkpt lat="48.51515" lon="-2.65563">
        <ele>32</ele>
        <time>2016-02-19T09:06:06Z</time>
      </trkpt>
      <trkpt lat="48.51518" lon="-2.65565">
        <ele>32</ele>
        <time>2016-02-19T09:06:10Z</time>
      </trkpt>
      <trkpt lat="48.51522" lon="-2.65567">
        <ele>32</ele>
        <time>2016-02-19T09:06:14Z</time>
      </trkpt>
      <trkpt lat="48.51527" lon="-2.65571">
        <ele>29</ele>
        <time>2016-02-19T09:06:17Z</time>
      </trkpt>
      <trkpt lat="48.51528" lon="-2.65574">
        <ele>29</ele>
        <time>2016-02-19T09:06:21Z</time>
      </trkpt>
      <trkpt lat="48.51533" lon="-2.6558">
        <ele>29</ele>
        <time>2016-02-19T09:06:24Z</time>
      </trkpt>
      <trkpt lat="48.51537" lon="-2.65583">
        <ele>29</ele>
        <time>2016-02-19T09:06:27Z</time>
      </trkpt>
      <trkpt lat="48.5154" lon="-2.65586">
        <ele>29</ele>
        <time>2016-02-19T09:06:30Z</time>
      </trkpt>
      <trkpt lat="48.51545" lon="-2.6559">
        <ele>29</ele>
        <time>2016-02-19T09:06:34Z</time>
      </trkpt>
      <trkpt lat="48.51548" lon="-2.65594">
        <ele>29</ele>
        <time>2016-02-19T09:06:37Z</time>
      </trkpt>
      <trkpt lat="48.51552" lon="-2.65597">
        <ele>29</ele>
        <time>2016-02-19T09:06:40Z</time>
      </trkpt>
      <trkpt lat="48.51556" lon="-2.65601">
        <ele>29</ele>
        <time>2016-02-19T09:06:44Z</time>
      </trkpt>
      <trkpt lat="48.51558" lon="-2.65603">
        <ele>29</ele>
        <time>2016-02-19T09:06:48Z</time>
      </trkpt>
      <trkpt lat="48.51564" lon="-2.65605">
        <ele>29</ele>
        <time>2016-02-19T09:06:51Z</time>
      </trkpt>
      <trkpt lat="48.51567" lon="-2.65608">
        <ele>29</ele>
        <time>2016-02-19T09:06:55Z</time>
      </trkpt>
      <trkpt lat="48.51568" lon="-2.6561">
        <ele>29</ele>
        <time>2016-02-19T09:07:03Z</time>
      </trkpt>
      <trkpt lat="48.51569" lon="-2.65611">
        <ele>30</ele>
        <time>2016-02-19T09:07:24Z</time>
      </trkpt>
      <trkpt lat="48.51569" lon="-2.65615">
        <ele>31</ele>
        <time>2016-02-19T09:07:28Z</time>
      </trkpt>
      <trkpt lat="48.5157" lon="-2.65619">
        <ele>31</ele>
        <time>2016-02-19T09:07:32Z</time>
      </trkpt>
      <trkpt lat="48.51571" lon="-2.65622">
        <ele>31</ele>
        <time>2016-02-19T09:07:44Z</time>
      </trkpt>
      <trkpt lat="48.51574" lon="-2.65619">
        <ele>31</ele>
        <time>2016-02-19T09:07:48Z</time>
      </trkpt>
      <trkpt lat="48.51575" lon="-2.65616">
        <ele>31</ele>
        <time>2016-02-19T09:07:54Z</time>
      </trkpt>
      <trkpt lat="48.51578" lon="-2.6561">
        <ele>31</ele>
        <time>2016-02-19T09:07:57Z</time>
      </trkpt>
      <trkpt lat="48.5158" lon="-2.65605">
        <ele>31</ele>
        <time>2016-02-19T09:08:01Z</time>
      </trkpt>
      <trkpt lat="48.51583" lon="-2.65603">
        <ele>31</ele>
        <time>2016-02-19T09:08:14Z</time>
      </trkpt>
      <trkpt lat="48.51584" lon="-2.65602">
        <ele>31</ele>
        <time>2016-02-19T09:08:23Z</time>
      </trkpt>
      <trkpt lat="48.51586" lon="-2.65601">
        <ele>31</ele>
        <time>2016-02-19T09:08:28Z</time>
      </trkpt>
      <trkpt lat="48.51589" lon="-2.65603">
        <ele>31</ele>
        <time>2016-02-19T09:08:33Z</time>
      </trkpt>
      <trkpt lat="48.51593" lon="-2.65604">
        <ele>31</ele>
        <time>2016-02-19T09:08:36Z</time>
      </trkpt>
      <trkpt lat="48.51593" lon="-2.65606">
        <ele>31</ele>
        <time>2016-02-19T09:08:40Z</time>
      </trkpt>
      <trkpt lat="48.51594" lon="-2.6561">
        <ele>32</ele>
        <time>2016-02-19T09:08:46Z</time>
      </trkpt>
      <trkpt lat="48.51595" lon="-2.65609">
        <ele>34</ele>
        <time>2016-02-19T09:08:51Z</time>
      </trkpt>
      <trkpt lat="48.51593" lon="-2.65605">
        <ele>35</ele>
        <time>2016-02-19T09:09:00Z</time>
      </trkpt>
      <trkpt lat="48.51594" lon="-2.65604">
        <ele>35</ele>
        <time>2016-02-19T09:09:12Z</time>
      </trkpt>
      <trkpt lat="48.51595" lon="-2.65606">
        <ele>37</ele>
        <time>2016-02-19T09:09:32Z</time>
      </trkpt>
      <trkpt lat="48.51593" lon="-2.65605">
        <ele>37</ele>
        <time>2016-02-19T09:09:38Z</time>
      </trkpt>
      <trkpt lat="48.51592" lon="-2.65603">
        <ele>37</ele>
        <time>2016-02-19T09:09:41Z</time>
      </trkpt>
      <trkpt lat="48.51591" lon="-2.65605">
        <ele>37</ele>
        <time>2016-02-19T09:09:50Z</time>
      </trkpt>
      <trkpt lat="48.5159" lon="-2.65602">
        <ele>37</ele>
        <time>2016-02-19T09:09:56Z</time>
      </trkpt>
      <trkpt lat="48.51592" lon="-2.656">
        <ele>36</ele>
        <time>2016-02-19T09:10:00Z</time>
      </trkpt>
      <trkpt lat="48.51594" lon="-2.65597">
        <ele>36</ele>
        <time>2016-02-19T09:10:05Z</time>
      </trkpt>
      <trkpt lat="48.51593" lon="-2.65596">
        <ele>36</ele>
        <time>2016-02-19T09:10:08Z</time>
      </trkpt>
      <trkpt lat="48.51592" lon="-2.65597">
        <ele>36</ele>
        <time>2016-02-19T09:10:24Z</time>
      </trkpt>
      <trkpt lat="48.51591" lon="-2.65598">
        <ele>36</ele>
        <time>2016-02-19T09:10:33Z</time>
      </trkpt>
      <trkpt lat="48.51588" lon="-2.65602">
        <ele>36</ele>
        <time>2016-02-19T09:10:36Z</time>
      </trkpt>
      <trkpt lat="48.51585" lon="-2.65607">
        <ele>36</ele>
        <time>2016-02-19T09:10:39Z</time>
      </trkpt>
      <trkpt lat="48.51582" lon="-2.65612">
        <ele>36</ele>
        <time>2016-02-19T09:10:42Z</time>
      </trkpt>
      <trkpt lat="48.51578" lon="-2.65616">
        <ele>36</ele>
        <time>2016-02-19T09:10:45Z</time>
      </trkpt>
      <trkpt lat="48.51575" lon="-2.65622">
        <ele>36</ele>
        <time>2016-02-19T09:10:48Z</time>
      </trkpt>
      <trkpt lat="48.51573" lon="-2.65629">
        <ele>36</ele>
        <time>2016-02-19T09:10:51Z</time>
      </trkpt>
      <trkpt lat="48.51571" lon="-2.65635">
        <ele>36</ele>
        <time>2016-02-19T09:10:55Z</time>
      </trkpt>
      <trkpt lat="48.51568" lon="-2.65643">
        <ele>36</ele>
        <time>2016-02-19T09:10:58Z</time>
      </trkpt>
      <trkpt lat="48.51566" lon="-2.65649">
        <ele>36</ele>
        <time>2016-02-19T09:11:01Z</time>
      </trkpt>
      <trkpt lat="48.51565" lon="-2.65656">
        <ele>36</ele>
        <time>2016-02-19T09:11:04Z</time>
      </trkpt>
      <trkpt lat="48.51564" lon="-2.65662">
        <ele>36</ele>
        <time>2016-02-19T09:11:07Z</time>
      </trkpt>
      <trkpt lat="48.51563" lon="-2.65668">
        <ele>36</ele>
        <time>2016-02-19T09:11:10Z</time>
      </trkpt>
      <trkpt lat="48.51563" lon="-2.65675">
        <ele>36</ele>
        <time>2016-02-19T09:11:13Z</time>
      </trkpt>
      <trkpt lat="48.51563" lon="-2.65682">
        <ele>36</ele>
        <time>2016-02-19T09:11:16Z</time>
      </trkpt>
      <trkpt lat="48.51563" lon="-2.65689">
        <ele>36</ele>
        <time>2016-02-19T09:11:19Z</time>
      </trkpt>
      <trkpt lat="48.51563" lon="-2.65696">
        <ele>36</ele>
        <time>2016-02-19T09:11:22Z</time>
      </trkpt>
      <trkpt lat="48.51562" lon="-2.65703">
        <ele>36</ele>
        <time>2016-02-19T09:11:25Z</time>
      </trkpt>
      <trkpt lat="48.51562" lon="-2.6571">
        <ele>36</ele>
        <time>2016-02-19T09:11:28Z</time>
      </trkpt>
      <trkpt lat="48.51561" lon="-2.65717">
        <ele>36</ele>
        <time>2016-02-19T09:11:31Z</time>
      </trkpt>
      <trkpt lat="48.51561" lon="-2.65725">
        <ele>36</ele>
        <time>2016-02-19T09:11:35Z</time>
      </trkpt>
      <trkpt lat="48.51561" lon="-2.65734">
        <ele>36</ele>
        <time>2016-02-19T09:11:38Z</time>
      </trkpt>
      <trkpt lat="48.5156" lon="-2.6574">
        <ele>36</ele>
        <time>2016-02-19T09:11:41Z</time>
      </trkpt>
      <trkpt lat="48.5156" lon="-2.65747">
        <ele>36</ele>
        <time>2016-02-19T09:11:44Z</time>
      </trkpt>
      <trkpt lat="48.51562" lon="-2.65751">
        <ele>36</ele>
        <time>2016-02-19T09:11:47Z</time>
      </trkpt>
      <trkpt lat="48.51566" lon="-2.65754">
        <ele>35</ele>
        <time>2016-02-19T09:11:50Z</time>
      </trkpt>
      <trkpt lat="48.51571" lon="-2.65756">
        <ele>35</ele>
        <time>2016-02-19T09:11:53Z</time>
      </trkpt>
      <trkpt lat="48.51575" lon="-2.65758">
        <ele>34</ele>
        <time>2016-02-19T09:11:56Z</time>
      </trkpt>
      <trkpt lat="48.51579" lon="-2.65758">
        <ele>34</ele>
        <time>2016-02-19T09:11:59Z</time>
      </trkpt>
      <trkpt lat="48.51584" lon="-2.65758">
        <ele>33</ele>
        <time>2016-02-19T09:12:02Z</time>
      </trkpt>
      <trkpt lat="48.51588" lon="-2.65758">
        <ele>33</ele>
        <time>2016-02-19T09:12:05Z</time>
      </trkpt>
      <trkpt lat="48.51593" lon="-2.65758">
        <ele>33</ele>
        <time>2016-02-19T09:12:08Z</time>
      </trkpt>
      <trkpt lat="48.51597" lon="-2.65758">
        <ele>32</ele>
        <time>2016-02-19T09:12:11Z</time>
      </trkpt>
      <trkpt lat="48.51601" lon="-2.6576">
        <ele>31</ele>
        <time>2016-02-19T09:12:14Z</time>
      </trkpt>
      <trkpt lat="48.51605" lon="-2.65761">
        <ele>30</ele>
        <time>2016-02-19T09:12:18Z</time>
      </trkpt>
      <trkpt lat="48.5161" lon="-2.6576">
        <ele>29</ele>
        <time>2016-02-19T09:12:21Z</time>
      </trkpt>
      <trkpt lat="48.51612" lon="-2.6576">
        <ele>29</ele>
        <time>2016-02-19T09:12:24Z</time>
      </trkpt>
      <trkpt lat="48.51617" lon="-2.6576">
        <ele>29</ele>
        <time>2016-02-19T09:12:27Z</time>
      </trkpt>
      <trkpt lat="48.5162" lon="-2.65761">
        <ele>29</ele>
        <time>2016-02-19T09:12:30Z</time>
      </trkpt>
      <trkpt lat="48.51624" lon="-2.65761">
        <ele>28</ele>
        <time>2016-02-19T09:12:33Z</time>
      </trkpt>
      <trkpt lat="48.51628" lon="-2.65761">
        <ele>28</ele>
        <time>2016-02-19T09:12:36Z</time>
      </trkpt>
      <trkpt lat="48.51632" lon="-2.65761">
        <ele>27</ele>
        <time>2016-02-19T09:12:39Z</time>
      </trkpt>
      <trkpt lat="48.51636" lon="-2.6576">
        <ele>27</ele>
        <time>2016-02-19T09:12:42Z</time>
      </trkpt>
      <trkpt lat="48.51641" lon="-2.65758">
        <ele>27</ele>
        <time>2016-02-19T09:12:45Z</time>
      </trkpt>
      <trkpt lat="48.51645" lon="-2.65758">
        <ele>27</ele>
        <time>2016-02-19T09:12:48Z</time>
      </trkpt>
      <trkpt lat="48.51649" lon="-2.65758">
        <ele>27</ele>
        <time>2016-02-19T09:12:51Z</time>
      </trkpt>
      <trkpt lat="48.51654" lon="-2.65758">
        <ele>27</ele>
        <time>2016-02-19T09:12:54Z</time>
      </trkpt>
      <trkpt lat="48.51658" lon="-2.65758">
        <ele>27</ele>
        <time>2016-02-19T09:12:57Z</time>
      </trkpt>
      <trkpt lat="48.51663" lon="-2.65758">
        <ele>27</ele>
        <time>2016-02-19T09:13:00Z</time>
      </trkpt>
      <trkpt lat="48.51667" lon="-2.65757">
        <ele>27</ele>
        <time>2016-02-19T09:13:03Z</time>
      </trkpt>
      <trkpt lat="48.5167" lon="-2.65754">
        <ele>27</ele>
        <time>2016-02-19T09:13:06Z</time>
      </trkpt>
      <trkpt lat="48.51672" lon="-2.6575">
        <ele>29</ele>
        <time>2016-02-19T09:13:09Z</time>
      </trkpt>
      <trkpt lat="48.51677" lon="-2.6575">
        <ele>32</ele>
        <time>2016-02-19T09:13:12Z</time>
      </trkpt>
      <trkpt lat="48.51683" lon="-2.65752">
        <ele>33</ele>
        <time>2016-02-19T09:13:15Z</time>
      </trkpt>
      <trkpt lat="48.51687" lon="-2.65755">
        <ele>33</ele>
        <time>2016-02-19T09:13:18Z</time>
      </trkpt>
      <trkpt lat="48.51692" lon="-2.65757">
        <ele>33</ele>
        <time>2016-02-19T09:13:21Z</time>
      </trkpt>
      <trkpt lat="48.51696" lon="-2.65759">
        <ele>33</ele>
        <time>2016-02-19T09:13:24Z</time>
      </trkpt>
      <trkpt lat="48.517" lon="-2.65762">
        <ele>33</ele>
        <time>2016-02-19T09:13:27Z</time>
      </trkpt>
      <trkpt lat="48.51704" lon="-2.65767">
        <ele>32</ele>
        <time>2016-02-19T09:13:31Z</time>
      </trkpt>
      <trkpt lat="48.51708" lon="-2.65768">
        <ele>32</ele>
        <time>2016-02-19T09:13:34Z</time>
      </trkpt>
      <trkpt lat="48.51712" lon="-2.65769">
        <ele>31</ele>
        <time>2016-02-19T09:13:37Z</time>
      </trkpt>
      <trkpt lat="48.51717" lon="-2.6577">
        <ele>31</ele>
        <time>2016-02-19T09:13:41Z</time>
      </trkpt>
      <trkpt lat="48.51721" lon="-2.6577">
        <ele>31</ele>
        <time>2016-02-19T09:13:45Z</time>
      </trkpt>
      <trkpt lat="48.51725" lon="-2.65771">
        <ele>31</ele>
        <time>2016-02-19T09:13:48Z</time>
      </trkpt>
      <trkpt lat="48.51729" lon="-2.65772">
        <ele>31</ele>
        <time>2016-02-19T09:13:51Z</time>
      </trkpt>
      <trkpt lat="48.51733" lon="-2.65774">
        <ele>30</ele>
        <time>2016-02-19T09:13:54Z</time>
      </trkpt>
      <trkpt lat="48.51737" lon="-2.65775">
        <ele>30</ele>
        <time>2016-02-19T09:13:57Z</time>
      </trkpt>
      <trkpt lat="48.51741" lon="-2.65777">
        <ele>30</ele>
        <time>2016-02-19T09:14:00Z</time>
      </trkpt>
      <trkpt lat="48.51746" lon="-2.65779">
        <ele>30</ele>
        <time>2016-02-19T09:14:03Z</time>
      </trkpt>
      <trkpt lat="48.5175" lon="-2.65781">
        <ele>30</ele>
        <time>2016-02-19T09:14:06Z</time>
      </trkpt>
      <trkpt lat="48.51754" lon="-2.65784">
        <ele>30</ele>
        <time>2016-02-19T09:14:09Z</time>
      </trkpt>
      <trkpt lat="48.51758" lon="-2.65787">
        <ele>30</ele>
        <time>2016-02-19T09:14:12Z</time>
      </trkpt>
      <trkpt lat="48.51762" lon="-2.65789">
        <ele>30</ele>
        <time>2016-02-19T09:14:15Z</time>
      </trkpt>
      <trkpt lat="48.51766" lon="-2.65792">
        <ele>30</ele>
        <time>2016-02-19T09:14:18Z</time>
      </trkpt>
      <trkpt lat="48.51771" lon="-2.65794">
        <ele>30</ele>
        <time>2016-02-19T09:14:21Z</time>
      </trkpt>
      <trkpt lat="48.51775" lon="-2.65797">
        <ele>30</ele>
        <time>2016-02-19T09:14:24Z</time>
      </trkpt>
      <trkpt lat="48.5178" lon="-2.65799">
        <ele>30</ele>
        <time>2016-02-19T09:14:27Z</time>
      </trkpt>
      <trkpt lat="48.51785" lon="-2.65802">
        <ele>30</ele>
        <time>2016-02-19T09:14:30Z</time>
      </trkpt>
      <trkpt lat="48.51789" lon="-2.65805">
        <ele>30</ele>
        <time>2016-02-19T09:14:33Z</time>
      </trkpt>
      <trkpt lat="48.51793" lon="-2.65807">
        <ele>30</ele>
        <time>2016-02-19T09:14:36Z</time>
      </trkpt>
      <trkpt lat="48.51797" lon="-2.6581">
        <ele>30</ele>
        <time>2016-02-19T09:14:39Z</time>
      </trkpt>
      <trkpt lat="48.51801" lon="-2.65812">
        <ele>30</ele>
        <time>2016-02-19T09:14:42Z</time>
      </trkpt>
      <trkpt lat="48.51805" lon="-2.65815">
        <ele>30</ele>
        <time>2016-02-19T09:14:45Z</time>
      </trkpt>
      <trkpt lat="48.5181" lon="-2.65817">
        <ele>30</ele>
        <time>2016-02-19T09:14:48Z</time>
      </trkpt>
      <trkpt lat="48.51814" lon="-2.65819">
        <ele>30</ele>
        <time>2016-02-19T09:14:51Z</time>
      </trkpt>
      <trkpt lat="48.51818" lon="-2.65821">
        <ele>30</ele>
        <time>2016-02-19T09:14:54Z</time>
      </trkpt>
      <trkpt lat="48.51822" lon="-2.65822">
        <ele>30</ele>
        <time>2016-02-19T09:14:57Z</time>
      </trkpt>
      <trkpt lat="48.51826" lon="-2.65824">
        <ele>30</ele>
        <time>2016-02-19T09:15:00Z</time>
      </trkpt>
      <trkpt lat="48.5183" lon="-2.65825">
        <ele>30</ele>
        <time>2016-02-19T09:15:03Z</time>
      </trkpt>
      <trkpt lat="48.51834" lon="-2.65826">
        <ele>30</ele>
        <time>2016-02-19T09:15:06Z</time>
      </trkpt>
      <trkpt lat="48.51839" lon="-2.65827">
        <ele>30</ele>
        <time>2016-02-19T09:15:09Z</time>
      </trkpt>
      <trkpt lat="48.51843" lon="-2.65827">
        <ele>30</ele>
        <time>2016-02-19T09:15:12Z</time>
      </trkpt>
      <trkpt lat="48.51847" lon="-2.65827">
        <ele>30</ele>
        <time>2016-02-19T09:15:15Z</time>
      </trkpt>
      <trkpt lat="48.51852" lon="-2.65827">
        <ele>30</ele>
        <time>2016-02-19T09:15:18Z</time>
      </trkpt>
      <trkpt lat="48.51857" lon="-2.65827">
        <ele>30</ele>
        <time>2016-02-19T09:15:21Z</time>
      </trkpt>
      <trkpt lat="48.51863" lon="-2.65826">
        <ele>30</ele>
        <time>2016-02-19T09:15:24Z</time>
      </trkpt>
      <trkpt lat="48.51868" lon="-2.65826">
        <ele>30</ele>
        <time>2016-02-19T09:15:27Z</time>
      </trkpt>
      <trkpt lat="48.51872" lon="-2.65825">
        <ele>30</ele>
        <time>2016-02-19T09:15:30Z</time>
      </trkpt>
      <trkpt lat="48.51877" lon="-2.65825">
        <ele>30</ele>
        <time>2016-02-19T09:15:33Z</time>
      </trkpt>
      <trkpt lat="48.51881" lon="-2.65824">
        <ele>30</ele>
        <time>2016-02-19T09:15:36Z</time>
      </trkpt>
      <trkpt lat="48.51886" lon="-2.65824">
        <ele>30</ele>
        <time>2016-02-19T09:15:39Z</time>
      </trkpt>
      <trkpt lat="48.51891" lon="-2.65822">
        <ele>30</ele>
        <time>2016-02-19T09:15:42Z</time>
      </trkpt>
      <trkpt lat="48.51896" lon="-2.65821">
        <ele>30</ele>
        <time>2016-02-19T09:15:45Z</time>
      </trkpt>
      <trkpt lat="48.51901" lon="-2.6582">
        <ele>30</ele>
        <time>2016-02-19T09:15:48Z</time>
      </trkpt>
      <trkpt lat="48.51905" lon="-2.65819">
        <ele>30</ele>
        <time>2016-02-19T09:15:51Z</time>
      </trkpt>
      <trkpt lat="48.5191" lon="-2.65818">
        <ele>30</ele>
        <time>2016-02-19T09:15:54Z</time>
      </trkpt>
      <trkpt lat="48.51914" lon="-2.65817">
        <ele>30</ele>
        <time>2016-02-19T09:15:57Z</time>
      </trkpt>
      <trkpt lat="48.51919" lon="-2.65816">
        <ele>30</ele>
        <time>2016-02-19T09:16:00Z</time>
      </trkpt>
      <trkpt lat="48.51923" lon="-2.65815">
        <ele>30</ele>
        <time>2016-02-19T09:16:03Z</time>
      </trkpt>
      <trkpt lat="48.51928" lon="-2.65813">
        <ele>30</ele>
        <time>2016-02-19T09:16:06Z</time>
      </trkpt>
      <trkpt lat="48.51932" lon="-2.65811">
        <ele>30</ele>
        <time>2016-02-19T09:16:09Z</time>
      </trkpt>
      <trkpt lat="48.51937" lon="-2.6581">
        <ele>30</ele>
        <time>2016-02-19T09:16:12Z</time>
      </trkpt>
      <trkpt lat="48.51942" lon="-2.65809">
        <ele>30</ele>
        <time>2016-02-19T09:16:15Z</time>
      </trkpt>
      <trkpt lat="48.51946" lon="-2.65808">
        <ele>30</ele>
        <time>2016-02-19T09:16:18Z</time>
      </trkpt>
      <trkpt lat="48.5195" lon="-2.65806">
        <ele>30</ele>
        <time>2016-02-19T09:16:21Z</time>
      </trkpt>
      <trkpt lat="48.51956" lon="-2.65804">
        <ele>30</ele>
        <time>2016-02-19T09:16:24Z</time>
      </trkpt>
      <trkpt lat="48.51961" lon="-2.65803">
        <ele>30</ele>
        <time>2016-02-19T09:16:27Z</time>
      </trkpt>
      <trkpt lat="48.51965" lon="-2.65802">
        <ele>30</ele>
        <time>2016-02-19T09:16:30Z</time>
      </trkpt>
      <trkpt lat="48.51969" lon="-2.65801">
        <ele>30</ele>
        <time>2016-02-19T09:16:33Z</time>
      </trkpt>
      <trkpt lat="48.51974" lon="-2.65799">
        <ele>30</ele>
        <time>2016-02-19T09:16:36Z</time>
      </trkpt>
      <trkpt lat="48.51978" lon="-2.65798">
        <ele>30</ele>
        <time>2016-02-19T09:16:39Z</time>
      </trkpt>
      <trkpt lat="48.51983" lon="-2.65797">
        <ele>30</ele>
        <time>2016-02-19T09:16:42Z</time>
      </trkpt>
      <trkpt lat="48.51988" lon="-2.65796">
        <ele>30</ele>
        <time>2016-02-19T09:16:45Z</time>
      </trkpt>
      <trkpt lat="48.51992" lon="-2.65794">
        <ele>30</ele>
        <time>2016-02-19T09:16:48Z</time>
      </trkpt>
      <trkpt lat="48.51996" lon="-2.65793">
        <ele>30</ele>
        <time>2016-02-19T09:16:51Z</time>
      </trkpt>
      <trkpt lat="48.52" lon="-2.65792">
        <ele>30</ele>
        <time>2016-02-19T09:16:54Z</time>
      </trkpt>
      <trkpt lat="48.52004" lon="-2.65792">
        <ele>30</ele>
        <time>2016-02-19T09:16:57Z</time>
      </trkpt>
      <trkpt lat="48.52008" lon="-2.6579">
        <ele>30</ele>
        <time>2016-02-19T09:17:00Z</time>
      </trkpt>
      <trkpt lat="48.52011" lon="-2.65789">
        <ele>30</ele>
        <time>2016-02-19T09:17:03Z</time>
      </trkpt>
      <trkpt lat="48.52016" lon="-2.65788">
        <ele>30</ele>
        <time>2016-02-19T09:17:06Z</time>
      </trkpt>
      <trkpt lat="48.52021" lon="-2.65788">
        <ele>30</ele>
        <time>2016-02-19T09:17:09Z</time>
      </trkpt>
      <trkpt lat="48.52025" lon="-2.65788">
        <ele>30</ele>
        <time>2016-02-19T09:17:12Z</time>
      </trkpt>
      <trkpt lat="48.52029" lon="-2.65788">
        <ele>30</ele>
        <time>2016-02-19T09:17:15Z</time>
      </trkpt>
      <trkpt lat="48.52033" lon="-2.65791">
        <ele>30</ele>
        <time>2016-02-19T09:17:18Z</time>
      </trkpt>
      <trkpt lat="48.52037" lon="-2.65794">
        <ele>30</ele>
        <time>2016-02-19T09:17:21Z</time>
      </trkpt>
      <trkpt lat="48.52041" lon="-2.65799">
        <ele>30</ele>
        <time>2016-02-19T09:17:24Z</time>
      </trkpt>
      <trkpt lat="48.52045" lon="-2.65803">
        <ele>30</ele>
        <time>2016-02-19T09:17:27Z</time>
      </trkpt>
      <trkpt lat="48.52049" lon="-2.65807">
        <ele>29</ele>
        <time>2016-02-19T09:17:30Z</time>
      </trkpt>
      <trkpt lat="48.52054" lon="-2.65811">
        <ele>27</ele>
        <time>2016-02-19T09:17:33Z</time>
      </trkpt>
      <trkpt lat="48.52057" lon="-2.65815">
        <ele>25</ele>
        <time>2016-02-19T09:17:37Z</time>
      </trkpt>
      <trkpt lat="48.52061" lon="-2.65819">
        <ele>24</ele>
        <time>2016-02-19T09:17:41Z</time>
      </trkpt>
      <trkpt lat="48.52064" lon="-2.65822">
        <ele>24</ele>
        <time>2016-02-19T09:17:44Z</time>
      </trkpt>
      <trkpt lat="48.5207" lon="-2.65826">
        <ele>24</ele>
        <time>2016-02-19T09:17:48Z</time>
      </trkpt>
      <trkpt lat="48.52074" lon="-2.6583">
        <ele>24</ele>
        <time>2016-02-19T09:17:51Z</time>
      </trkpt>
      <trkpt lat="48.52079" lon="-2.65834">
        <ele>24</ele>
        <time>2016-02-19T09:17:54Z</time>
      </trkpt>
      <trkpt lat="48.52082" lon="-2.6584">
        <ele>24</ele>
        <time>2016-02-19T09:17:57Z</time>
      </trkpt>
      <trkpt lat="48.52085" lon="-2.65844">
        <ele>24</ele>
        <time>2016-02-19T09:18:00Z</time>
      </trkpt>
      <trkpt lat="48.52088" lon="-2.65849">
        <ele>24</ele>
        <time>2016-02-19T09:18:03Z</time>
      </trkpt>
      <trkpt lat="48.5209" lon="-2.65855">
        <ele>24</ele>
        <time>2016-02-19T09:18:06Z</time>
      </trkpt>
      <trkpt lat="48.52093" lon="-2.6586">
        <ele>24</ele>
        <time>2016-02-19T09:18:09Z</time>
      </trkpt>
      <trkpt lat="48.52096" lon="-2.65865">
        <ele>24</ele>
        <time>2016-02-19T09:18:12Z</time>
      </trkpt>
      <trkpt lat="48.52099" lon="-2.6587">
        <ele>24</ele>
        <time>2016-02-19T09:18:15Z</time>
      </trkpt>
      <trkpt lat="48.52103" lon="-2.65875">
        <ele>24</ele>
        <time>2016-02-19T09:18:18Z</time>
      </trkpt>
      <trkpt lat="48.52107" lon="-2.65882">
        <ele>26</ele>
        <time>2016-02-19T09:18:21Z</time>
      </trkpt>
      <trkpt lat="48.52108" lon="-2.65886">
        <ele>28</ele>
        <time>2016-02-19T09:18:24Z</time>
      </trkpt>
      <trkpt lat="48.52109" lon="-2.65892">
        <ele>29</ele>
        <time>2016-02-19T09:18:27Z</time>
      </trkpt>
      <trkpt lat="48.52109" lon="-2.65897">
        <ele>29</ele>
        <time>2016-02-19T09:18:30Z</time>
      </trkpt>
      <trkpt lat="48.5211" lon="-2.65899">
        <ele>29</ele>
        <time>2016-02-19T09:18:33Z</time>
      </trkpt>
      <trkpt lat="48.52111" lon="-2.659">
        <ele>29</ele>
        <time>2016-02-19T09:18:43Z</time>
      </trkpt>
      <trkpt lat="48.5211" lon="-2.65901">
        <ele>29</ele>
        <time>2016-02-19T09:18:56Z</time>
      </trkpt>
      <trkpt lat="48.52111" lon="-2.659">
        <ele>29</ele>
        <time>2016-02-19T09:19:04Z</time>
      </trkpt>
      <trkpt lat="48.52114" lon="-2.65898">
        <ele>29</ele>
        <time>2016-02-19T09:19:09Z</time>
      </trkpt>
      <trkpt lat="48.52115" lon="-2.65893">
        <ele>29</ele>
        <time>2016-02-19T09:19:13Z</time>
      </trkpt>
      <trkpt lat="48.52117" lon="-2.65887">
        <ele>29</ele>
        <time>2016-02-19T09:19:17Z</time>
      </trkpt>
      <trkpt lat="48.52119" lon="-2.65881">
        <ele>29</ele>
        <time>2016-02-19T09:19:21Z</time>
      </trkpt>
      <trkpt lat="48.52122" lon="-2.65878">
        <ele>29</ele>
        <time>2016-02-19T09:19:24Z</time>
      </trkpt>
      <trkpt lat="48.52126" lon="-2.65873">
        <ele>29</ele>
        <time>2016-02-19T09:19:27Z</time>
      </trkpt>
      <trkpt lat="48.52129" lon="-2.65869">
        <ele>29</ele>
        <time>2016-02-19T09:19:30Z</time>
      </trkpt>
      <trkpt lat="48.52131" lon="-2.65864">
        <ele>29</ele>
        <time>2016-02-19T09:19:33Z</time>
      </trkpt>
      <trkpt lat="48.52133" lon="-2.6586">
        <ele>29</ele>
        <time>2016-02-19T09:19:36Z</time>
      </trkpt>
      <trkpt lat="48.52135" lon="-2.65854">
        <ele>29</ele>
        <time>2016-02-19T09:19:40Z</time>
      </trkpt>
      <trkpt lat="48.52139" lon="-2.65849">
        <ele>29</ele>
        <time>2016-02-19T09:19:44Z</time>
      </trkpt>
      <trkpt lat="48.52141" lon="-2.65844">
        <ele>29</ele>
        <time>2016-02-19T09:19:47Z</time>
      </trkpt>
      <trkpt lat="48.52143" lon="-2.65838">
        <ele>29</ele>
        <time>2016-02-19T09:19:50Z</time>
      </trkpt>
      <trkpt lat="48.52148" lon="-2.65835">
        <ele>28</ele>
        <time>2016-02-19T09:19:53Z</time>
      </trkpt>
      <trkpt lat="48.5215" lon="-2.65829">
        <ele>27</ele>
        <time>2016-02-19T09:19:56Z</time>
      </trkpt>
      <trkpt lat="48.52153" lon="-2.65825">
        <ele>27</ele>
        <time>2016-02-19T09:19:59Z</time>
      </trkpt>
      <trkpt lat="48.52156" lon="-2.65821">
        <ele>26</ele>
        <time>2016-02-19T09:20:02Z</time>
      </trkpt>
      <trkpt lat="48.52158" lon="-2.65816">
        <ele>26</ele>
        <time>2016-02-19T09:20:05Z</time>
      </trkpt>
      <trkpt lat="48.52161" lon="-2.65809">
        <ele>26</ele>
        <time>2016-02-19T09:20:09Z</time>
      </trkpt>
      <trkpt lat="48.52164" lon="-2.65802">
        <ele>26</ele>
        <time>2016-02-19T09:20:12Z</time>
      </trkpt>
      <trkpt lat="48.52169" lon="-2.65795">
        <ele>25</ele>
        <time>2016-02-19T09:20:16Z</time>
      </trkpt>
      <trkpt lat="48.52175" lon="-2.65788">
        <ele>24</ele>
        <time>2016-02-19T09:20:20Z</time>
      </trkpt>
      <trkpt lat="48.52177" lon="-2.65782">
        <ele>23</ele>
        <time>2016-02-19T09:20:23Z</time>
      </trkpt>
      <trkpt lat="48.52179" lon="-2.65774">
        <ele>23</ele>
        <time>2016-02-19T09:20:27Z</time>
      </trkpt>
      <trkpt lat="48.52182" lon="-2.65769">
        <ele>23</ele>
        <time>2016-02-19T09:20:30Z</time>
      </trkpt>
      <trkpt lat="48.52185" lon="-2.65763">
        <ele>23</ele>
        <time>2016-02-19T09:20:33Z</time>
      </trkpt>
      <trkpt lat="48.52188" lon="-2.65759">
        <ele>23</ele>
        <time>2016-02-19T09:20:36Z</time>
      </trkpt>
      <trkpt lat="48.52192" lon="-2.65755">
        <ele>22</ele>
        <time>2016-02-19T09:20:39Z</time>
      </trkpt>
      <trkpt lat="48.52194" lon="-2.65749">
        <ele>22</ele>
        <time>2016-02-19T09:20:42Z</time>
      </trkpt>
      <trkpt lat="48.52198" lon="-2.65741">
        <ele>22</ele>
        <time>2016-02-19T09:20:46Z</time>
      </trkpt>
      <trkpt lat="48.52201" lon="-2.65736">
        <ele>22</ele>
        <time>2016-02-19T09:20:49Z</time>
      </trkpt>
      <trkpt lat="48.52203" lon="-2.65731">
        <ele>22</ele>
        <time>2016-02-19T09:20:52Z</time>
      </trkpt>
      <trkpt lat="48.52205" lon="-2.65724">
        <ele>22</ele>
        <time>2016-02-19T09:20:55Z</time>
      </trkpt>
      <trkpt lat="48.52207" lon="-2.65718">
        <ele>22</ele>
        <time>2016-02-19T09:20:58Z</time>
      </trkpt>
      <trkpt lat="48.52209" lon="-2.65712">
        <ele>22</ele>
        <time>2016-02-19T09:21:01Z</time>
      </trkpt>
      <trkpt lat="48.52212" lon="-2.65707">
        <ele>22</ele>
        <time>2016-02-19T09:21:04Z</time>
      </trkpt>
      <trkpt lat="48.52215" lon="-2.65701">
        <ele>21</ele>
        <time>2016-02-19T09:21:07Z</time>
      </trkpt>
      <trkpt lat="48.52217" lon="-2.65696">
        <ele>20</ele>
        <time>2016-02-19T09:21:10Z</time>
      </trkpt>
      <trkpt lat="48.5222" lon="-2.6569">
        <ele>20</ele>
        <time>2016-02-19T09:21:13Z</time>
      </trkpt>
      <trkpt lat="48.52222" lon="-2.65681">
        <ele>20</ele>
        <time>2016-02-19T09:21:17Z</time>
      </trkpt>
      <trkpt lat="48.52224" lon="-2.65673">
        <ele>20</ele>
        <time>2016-02-19T09:21:20Z</time>
      </trkpt>
      <trkpt lat="48.52227" lon="-2.65667">
        <ele>20</ele>
        <time>2016-02-19T09:21:24Z</time>
      </trkpt>
      <trkpt lat="48.52231" lon="-2.65663">
        <ele>20</ele>
        <time>2016-02-19T09:21:27Z</time>
      </trkpt>
      <trkpt lat="48.52235" lon="-2.65658">
        <ele>20</ele>
        <time>2016-02-19T09:21:30Z</time>
      </trkpt>
      <trkpt lat="48.52238" lon="-2.65653">
        <ele>20</ele>
        <time>2016-02-19T09:21:33Z</time>
      </trkpt>
      <trkpt lat="48.52241" lon="-2.65649">
        <ele>20</ele>
        <time>2016-02-19T09:21:36Z</time>
      </trkpt>
      <trkpt lat="48.52245" lon="-2.65644">
        <ele>19</ele>
        <time>2016-02-19T09:21:40Z</time>
      </trkpt>
      <trkpt lat="48.5225" lon="-2.6564">
        <ele>18</ele>
        <time>2016-02-19T09:21:43Z</time>
      </trkpt>
      <trkpt lat="48.52253" lon="-2.65634">
        <ele>17</ele>
        <time>2016-02-19T09:21:47Z</time>
      </trkpt>
      <trkpt lat="48.52255" lon="-2.65626">
        <ele>17</ele>
        <time>2016-02-19T09:21:51Z</time>
      </trkpt>
      <trkpt lat="48.52258" lon="-2.65622">
        <ele>17</ele>
        <time>2016-02-19T09:21:54Z</time>
      </trkpt>
      <trkpt lat="48.52261" lon="-2.65618">
        <ele>17</ele>
        <time>2016-02-19T09:21:57Z</time>
      </trkpt>
      <trkpt lat="48.52264" lon="-2.65612">
        <ele>17</ele>
        <time>2016-02-19T09:22:01Z</time>
      </trkpt>
      <trkpt lat="48.52268" lon="-2.65606">
        <ele>16</ele>
        <time>2016-02-19T09:22:05Z</time>
      </trkpt>
      <trkpt lat="48.52272" lon="-2.65602">
        <ele>15</ele>
        <time>2016-02-19T09:22:08Z</time>
      </trkpt>
      <trkpt lat="48.52275" lon="-2.65597">
        <ele>14</ele>
        <time>2016-02-19T09:22:12Z</time>
      </trkpt>
      <trkpt lat="48.52278" lon="-2.65593">
        <ele>13</ele>
        <time>2016-02-19T09:22:15Z</time>
      </trkpt>
      <trkpt lat="48.52281" lon="-2.65587">
        <ele>12</ele>
        <time>2016-02-19T09:22:18Z</time>
      </trkpt>
      <trkpt lat="48.52285" lon="-2.65581">
        <ele>12</ele>
        <time>2016-02-19T09:22:22Z</time>
      </trkpt>
      <trkpt lat="48.52288" lon="-2.65574">
        <ele>11</ele>
        <time>2016-02-19T09:22:26Z</time>
      </trkpt>
      <trkpt lat="48.52291" lon="-2.65568">
        <ele>11</ele>
        <time>2016-02-19T09:22:29Z</time>
      </trkpt>
      <trkpt lat="48.52293" lon="-2.65564">
        <ele>11</ele>
        <time>2016-02-19T09:22:32Z</time>
      </trkpt>
      <trkpt lat="48.52297" lon="-2.65559">
        <ele>11</ele>
        <time>2016-02-19T09:22:36Z</time>
      </trkpt>
      <trkpt lat="48.52301" lon="-2.65554">
        <ele>11</ele>
        <time>2016-02-19T09:22:40Z</time>
      </trkpt>
      <trkpt lat="48.52305" lon="-2.65551">
        <ele>11</ele>
        <time>2016-02-19T09:22:43Z</time>
      </trkpt>
      <trkpt lat="48.52309" lon="-2.65548">
        <ele>11</ele>
        <time>2016-02-19T09:22:46Z</time>
      </trkpt>
      <trkpt lat="48.52313" lon="-2.65545">
        <ele>11</ele>
        <time>2016-02-19T09:22:49Z</time>
      </trkpt>
      <trkpt lat="48.52317" lon="-2.65543">
        <ele>11</ele>
        <time>2016-02-19T09:22:52Z</time>
      </trkpt>
      <trkpt lat="48.52321" lon="-2.65541">
        <ele>11</ele>
        <time>2016-02-19T09:22:55Z</time>
      </trkpt>
      <trkpt lat="48.52324" lon="-2.65539">
        <ele>11</ele>
        <time>2016-02-19T09:22:58Z</time>
      </trkpt>
      <trkpt lat="48.52328" lon="-2.65536">
        <ele>11</ele>
        <time>2016-02-19T09:23:01Z</time>
      </trkpt>
      <trkpt lat="48.52333" lon="-2.65533">
        <ele>11</ele>
        <time>2016-02-19T09:23:05Z</time>
      </trkpt>
      <trkpt lat="48.52336" lon="-2.65531">
        <ele>11</ele>
        <time>2016-02-19T09:23:08Z</time>
      </trkpt>
      <trkpt lat="48.5234" lon="-2.65529">
        <ele>11</ele>
        <time>2016-02-19T09:23:11Z</time>
      </trkpt>
      <trkpt lat="48.52343" lon="-2.65527">
        <ele>11</ele>
        <time>2016-02-19T09:23:14Z</time>
      </trkpt>
      <trkpt lat="48.52347" lon="-2.65524">
        <ele>11</ele>
        <time>2016-02-19T09:23:17Z</time>
      </trkpt>
      <trkpt lat="48.5235" lon="-2.65523">
        <ele>11</ele>
        <time>2016-02-19T09:23:20Z</time>
      </trkpt>
      <trkpt lat="48.52355" lon="-2.65519">
        <ele>11</ele>
        <time>2016-02-19T09:23:24Z</time>
      </trkpt>
      <trkpt lat="48.52358" lon="-2.65517">
        <ele>11</ele>
        <time>2016-02-19T09:23:27Z</time>
      </trkpt>
      <trkpt lat="48.52362" lon="-2.65515">
        <ele>11</ele>
        <time>2016-02-19T09:23:30Z</time>
      </trkpt>
      <trkpt lat="48.52367" lon="-2.65511">
        <ele>11</ele>
        <time>2016-02-19T09:23:36Z</time>
      </trkpt>
      <trkpt lat="48.52373" lon="-2.65506">
        <ele>11</ele>
        <time>2016-02-19T09:23:40Z</time>
      </trkpt>
      <trkpt lat="48.52377" lon="-2.65504">
        <ele>11</ele>
        <time>2016-02-19T09:23:43Z</time>
      </trkpt>
      <trkpt lat="48.5238" lon="-2.65499">
        <ele>11</ele>
        <time>2016-02-19T09:23:47Z</time>
      </trkpt>
      <trkpt lat="48.52384" lon="-2.65497">
        <ele>11</ele>
        <time>2016-02-19T09:23:50Z</time>
      </trkpt>
      <trkpt lat="48.52388" lon="-2.65493">
        <ele>11</ele>
        <time>2016-02-19T09:23:54Z</time>
      </trkpt>
      <trkpt lat="48.52393" lon="-2.65488">
        <ele>11</ele>
        <time>2016-02-19T09:23:59Z</time>
      </trkpt>
      <trkpt lat="48.52397" lon="-2.65486">
        <ele>11</ele>
        <time>2016-02-19T09:24:02Z</time>
      </trkpt>
      <trkpt lat="48.52401" lon="-2.65483">
        <ele>11</ele>
        <time>2016-02-19T09:24:06Z</time>
      </trkpt>
      <trkpt lat="48.52405" lon="-2.6548">
        <ele>11</ele>
        <time>2016-02-19T09:24:10Z</time>
      </trkpt>
      <trkpt lat="48.52408" lon="-2.65478">
        <ele>11</ele>
        <time>2016-02-19T09:24:13Z</time>
      </trkpt>
      <trkpt lat="48.52412" lon="-2.65476">
        <ele>11</ele>
        <time>2016-02-19T09:24:17Z</time>
      </trkpt>
      <trkpt lat="48.52416" lon="-2.65472">
        <ele>11</ele>
        <time>2016-02-19T09:24:21Z</time>
      </trkpt>
      <trkpt lat="48.52419" lon="-2.65469">
        <ele>11</ele>
        <time>2016-02-19T09:24:26Z</time>
      </trkpt>
      <trkpt lat="48.52421" lon="-2.65464">
        <ele>11</ele>
        <time>2016-02-19T09:24:30Z</time>
      </trkpt>
      <trkpt lat="48.52422" lon="-2.65462">
        <ele>11</ele>
        <time>2016-02-19T09:24:33Z</time>
      </trkpt>
      <trkpt lat="48.5242" lon="-2.65461">
        <ele>11</ele>
        <time>2016-02-19T09:24:37Z</time>
      </trkpt>
      <trkpt lat="48.52421" lon="-2.65459">
        <ele>11</ele>
        <time>2016-02-19T09:24:41Z</time>
      </trkpt>
      <trkpt lat="48.52422" lon="-2.65454">
        <ele>11</ele>
        <time>2016-02-19T09:24:45Z</time>
      </trkpt>
      <trkpt lat="48.52422" lon="-2.65449">
        <ele>11</ele>
        <time>2016-02-19T09:24:49Z</time>
      </trkpt>
      <trkpt lat="48.52422" lon="-2.65444">
        <ele>11</ele>
        <time>2016-02-19T09:24:53Z</time>
      </trkpt>
      <trkpt lat="48.52422" lon="-2.6544">
        <ele>11</ele>
        <time>2016-02-19T09:24:57Z</time>
      </trkpt>
      <trkpt lat="48.52422" lon="-2.65436">
        <ele>11</ele>
        <time>2016-02-19T09:25:00Z</time>
      </trkpt>
      <trkpt lat="48.52422" lon="-2.65431">
        <ele>11</ele>
        <time>2016-02-19T09:25:03Z</time>
      </trkpt>
      <trkpt lat="48.52422" lon="-2.65424">
        <ele>11</ele>
        <time>2016-02-19T09:25:07Z</time>
      </trkpt>
      <trkpt lat="48.52422" lon="-2.65418">
        <ele>11</ele>
        <time>2016-02-19T09:25:10Z</time>
      </trkpt>
      <trkpt lat="48.52422" lon="-2.65412">
        <ele>11</ele>
        <time>2016-02-19T09:25:13Z</time>
      </trkpt>
      <trkpt lat="48.52422" lon="-2.65406">
        <ele>11</ele>
        <time>2016-02-19T09:25:16Z</time>
      </trkpt>
      <trkpt lat="48.52422" lon="-2.65399">
        <ele>11</ele>
        <time>2016-02-19T09:25:20Z</time>
      </trkpt>
      <trkpt lat="48.52423" lon="-2.65393">
        <ele>11</ele>
        <time>2016-02-19T09:25:24Z</time>
      </trkpt>
      <trkpt lat="48.52421" lon="-2.65388">
        <ele>11</ele>
        <time>2016-02-19T09:25:27Z</time>
      </trkpt>
      <trkpt lat="48.5242" lon="-2.65384">
        <ele>11</ele>
        <time>2016-02-19T09:25:30Z</time>
      </trkpt>
      <trkpt lat="48.5242" lon="-2.65377">
        <ele>11</ele>
        <time>2016-02-19T09:25:34Z</time>
      </trkpt>
      <trkpt lat="48.5242" lon="-2.65372">
        <ele>11</ele>
        <time>2016-02-19T09:25:37Z</time>
      </trkpt>
      <trkpt lat="48.52419" lon="-2.65367">
        <ele>10</ele>
        <time>2016-02-19T09:25:40Z</time>
      </trkpt>
      <trkpt lat="48.52417" lon="-2.65359">
        <ele>9</ele>
        <time>2016-02-19T09:25:44Z</time>
      </trkpt>
      <trkpt lat="48.52415" lon="-2.65355">
        <ele>9</ele>
        <time>2016-02-19T09:25:47Z</time>
      </trkpt>
      <trkpt lat="48.52414" lon="-2.65352">
        <ele>9</ele>
        <time>2016-02-19T09:25:51Z</time>
      </trkpt>
      <trkpt lat="48.52412" lon="-2.65347">
        <ele>9</ele>
        <time>2016-02-19T09:25:54Z</time>
      </trkpt>
      <trkpt lat="48.5241" lon="-2.65343">
        <ele>9</ele>
        <time>2016-02-19T09:25:57Z</time>
      </trkpt>
      <trkpt lat="48.52406" lon="-2.65341">
        <ele>9</ele>
        <time>2016-02-19T09:26:01Z</time>
      </trkpt>
      <trkpt lat="48.52402" lon="-2.65338">
        <ele>9</ele>
        <time>2016-02-19T09:26:05Z</time>
      </trkpt>
      <trkpt lat="48.52399" lon="-2.65337">
        <ele>9</ele>
        <time>2016-02-19T09:26:09Z</time>
      </trkpt>
      <trkpt lat="48.52396" lon="-2.65335">
        <ele>9</ele>
        <time>2016-02-19T09:26:13Z</time>
      </trkpt>
      <trkpt lat="48.52392" lon="-2.65334">
        <ele>9</ele>
        <time>2016-02-19T09:26:17Z</time>
      </trkpt>
      <trkpt lat="48.52388" lon="-2.65333">
        <ele>9</ele>
        <time>2016-02-19T09:26:21Z</time>
      </trkpt>
      <trkpt lat="48.52384" lon="-2.65335">
        <ele>9</ele>
        <time>2016-02-19T09:26:24Z</time>
      </trkpt>
      <trkpt lat="48.52379" lon="-2.65335">
        <ele>9</ele>
        <time>2016-02-19T09:26:27Z</time>
      </trkpt>
      <trkpt lat="48.52377" lon="-2.65328">
        <ele>9</ele>
        <time>2016-02-19T09:26:30Z</time>
      </trkpt>
      <trkpt lat="48.52376" lon="-2.65319">
        <ele>9</ele>
        <time>2016-02-19T09:26:33Z</time>
      </trkpt>
      <trkpt lat="48.52377" lon="-2.65313">
        <ele>9</ele>
        <time>2016-02-19T09:26:36Z</time>
      </trkpt>
      <trkpt lat="48.52377" lon="-2.65307">
        <ele>9</ele>
        <time>2016-02-19T09:26:39Z</time>
      </trkpt>
      <trkpt lat="48.52378" lon="-2.65301">
        <ele>9</ele>
        <time>2016-02-19T09:26:43Z</time>
      </trkpt>
      <trkpt lat="48.52379" lon="-2.65295">
        <ele>9</ele>
        <time>2016-02-19T09:26:46Z</time>
      </trkpt>
      <trkpt lat="48.52378" lon="-2.6529">
        <ele>8</ele>
        <time>2016-02-19T09:26:49Z</time>
      </trkpt>
      <trkpt lat="48.52377" lon="-2.65285">
        <ele>8</ele>
        <time>2016-02-19T09:26:52Z</time>
      </trkpt>
      <trkpt lat="48.52375" lon="-2.65279">
        <ele>8</ele>
        <time>2016-02-19T09:26:55Z</time>
      </trkpt>
      <trkpt lat="48.52375" lon="-2.65275">
        <ele>8</ele>
        <time>2016-02-19T09:26:58Z</time>
      </trkpt>
      <trkpt lat="48.52373" lon="-2.65269">
        <ele>8</ele>
        <time>2016-02-19T09:27:02Z</time>
      </trkpt>
      <trkpt lat="48.5237" lon="-2.65263">
        <ele>8</ele>
        <time>2016-02-19T09:27:06Z</time>
      </trkpt>
      <trkpt lat="48.52368" lon="-2.65259">
        <ele>8</ele>
        <time>2016-02-19T09:27:10Z</time>
      </trkpt>
      <trkpt lat="48.52365" lon="-2.65255">
        <ele>8</ele>
        <time>2016-02-19T09:27:14Z</time>
      </trkpt>
      <trkpt lat="48.52362" lon="-2.65252">
        <ele>8</ele>
        <time>2016-02-19T09:27:21Z</time>
      </trkpt>
      <trkpt lat="48.52359" lon="-2.65248">
        <ele>8</ele>
        <time>2016-02-19T09:27:24Z</time>
      </trkpt>
      <trkpt lat="48.52356" lon="-2.65244">
        <ele>8</ele>
        <time>2016-02-19T09:27:34Z</time>
      </trkpt>
      <trkpt lat="48.52353" lon="-2.6524">
        <ele>8</ele>
        <time>2016-02-19T09:27:38Z</time>
      </trkpt>
      <trkpt lat="48.52349" lon="-2.65235">
        <ele>9</ele>
        <time>2016-02-19T09:27:42Z</time>
      </trkpt>
      <trkpt lat="48.52346" lon="-2.65231">
        <ele>10</ele>
        <time>2016-02-19T09:27:45Z</time>
      </trkpt>
      <trkpt lat="48.52343" lon="-2.65227">
        <ele>11</ele>
        <time>2016-02-19T09:27:49Z</time>
      </trkpt>
      <trkpt lat="48.5234" lon="-2.65221">
        <ele>12</ele>
        <time>2016-02-19T09:27:53Z</time>
      </trkpt>
      <trkpt lat="48.52339" lon="-2.65215">
        <ele>13</ele>
        <time>2016-02-19T09:27:56Z</time>
      </trkpt>
      <trkpt lat="48.52339" lon="-2.65211">
        <ele>13</ele>
        <time>2016-02-19T09:27:59Z</time>
      </trkpt>
      <trkpt lat="48.52337" lon="-2.65205">
        <ele>13</ele>
        <time>2016-02-19T09:28:03Z</time>
      </trkpt>
      <trkpt lat="48.52337" lon="-2.65199">
        <ele>13</ele>
        <time>2016-02-19T09:28:06Z</time>
      </trkpt>
      <trkpt lat="48.52338" lon="-2.65194">
        <ele>13</ele>
        <time>2016-02-19T09:28:09Z</time>
      </trkpt>
      <trkpt lat="48.52338" lon="-2.65188">
        <ele>13</ele>
        <time>2016-02-19T09:28:12Z</time>
      </trkpt>
      <trkpt lat="48.52336" lon="-2.65184">
        <ele>13</ele>
        <time>2016-02-19T09:28:15Z</time>
      </trkpt>
      <trkpt lat="48.52334" lon="-2.65178">
        <ele>13</ele>
        <time>2016-02-19T09:28:19Z</time>
      </trkpt>
      <trkpt lat="48.52332" lon="-2.65173">
        <ele>13</ele>
        <time>2016-02-19T09:28:22Z</time>
      </trkpt>
      <trkpt lat="48.52331" lon="-2.65167">
        <ele>13</ele>
        <time>2016-02-19T09:28:25Z</time>
      </trkpt>
      <trkpt lat="48.52332" lon="-2.65161">
        <ele>13</ele>
        <time>2016-02-19T09:28:28Z</time>
      </trkpt>
      <trkpt lat="48.52332" lon="-2.65155">
        <ele>13</ele>
        <time>2016-02-19T09:28:31Z</time>
      </trkpt>
      <trkpt lat="48.52333" lon="-2.65148">
        <ele>13</ele>
        <time>2016-02-19T09:28:35Z</time>
      </trkpt>
      <trkpt lat="48.52335" lon="-2.65143">
        <ele>13</ele>
        <time>2016-02-19T09:28:38Z</time>
      </trkpt>
      <trkpt lat="48.52338" lon="-2.65139">
        <ele>13</ele>
        <time>2016-02-19T09:28:41Z</time>
      </trkpt>
      <trkpt lat="48.52342" lon="-2.65136">
        <ele>13</ele>
        <time>2016-02-19T09:28:44Z</time>
      </trkpt>
      <trkpt lat="48.52346" lon="-2.65131">
        <ele>13</ele>
        <time>2016-02-19T09:28:48Z</time>
      </trkpt>
      <trkpt lat="48.5235" lon="-2.65129">
        <ele>13</ele>
        <time>2016-02-19T09:28:51Z</time>
      </trkpt>
      <trkpt lat="48.52352" lon="-2.65123">
        <ele>13</ele>
        <time>2016-02-19T09:28:54Z</time>
      </trkpt>
      <trkpt lat="48.52354" lon="-2.65117">
        <ele>13</ele>
        <time>2016-02-19T09:28:57Z</time>
      </trkpt>
      <trkpt lat="48.52355" lon="-2.6511">
        <ele>13</ele>
        <time>2016-02-19T09:29:00Z</time>
      </trkpt>
      <trkpt lat="48.52359" lon="-2.65106">
        <ele>13</ele>
        <time>2016-02-19T09:29:03Z</time>
      </trkpt>
      <trkpt lat="48.52362" lon="-2.65101">
        <ele>14</ele>
        <time>2016-02-19T09:29:06Z</time>
      </trkpt>
      <trkpt lat="48.52365" lon="-2.65097">
        <ele>14</ele>
        <time>2016-02-19T09:29:09Z</time>
      </trkpt>
      <trkpt lat="48.52369" lon="-2.65091">
        <ele>14</ele>
        <time>2016-02-19T09:29:12Z</time>
      </trkpt>
      <trkpt lat="48.52371" lon="-2.65085">
        <ele>14</ele>
        <time>2016-02-19T09:29:15Z</time>
      </trkpt>
      <trkpt lat="48.52373" lon="-2.65079">
        <ele>14</ele>
        <time>2016-02-19T09:29:18Z</time>
      </trkpt>
      <trkpt lat="48.52377" lon="-2.65075">
        <ele>14</ele>
        <time>2016-02-19T09:29:21Z</time>
      </trkpt>
      <trkpt lat="48.52379" lon="-2.65068">
        <ele>14</ele>
        <time>2016-02-19T09:29:26Z</time>
      </trkpt>
      <trkpt lat="48.52378" lon="-2.65062">
        <ele>14</ele>
        <time>2016-02-19T09:29:29Z</time>
      </trkpt>
      <trkpt lat="48.52375" lon="-2.65057">
        <ele>14</ele>
        <time>2016-02-19T09:29:33Z</time>
      </trkpt>
      <trkpt lat="48.52373" lon="-2.65052">
        <ele>14</ele>
        <time>2016-02-19T09:29:36Z</time>
      </trkpt>
      <trkpt lat="48.52373" lon="-2.65046">
        <ele>15</ele>
        <time>2016-02-19T09:29:39Z</time>
      </trkpt>
      <trkpt lat="48.52375" lon="-2.6504">
        <ele>15</ele>
        <time>2016-02-19T09:29:42Z</time>
      </trkpt>
      <trkpt lat="48.52378" lon="-2.65034">
        <ele>16</ele>
        <time>2016-02-19T09:29:45Z</time>
      </trkpt>
      <trkpt lat="48.52382" lon="-2.6503">
        <ele>17</ele>
        <time>2016-02-19T09:29:48Z</time>
      </trkpt>
      <trkpt lat="48.52385" lon="-2.65025">
        <ele>17</ele>
        <time>2016-02-19T09:29:51Z</time>
      </trkpt>
      <trkpt lat="48.5239" lon="-2.6502">
        <ele>19</ele>
        <time>2016-02-19T09:29:55Z</time>
      </trkpt>
      <trkpt lat="48.52393" lon="-2.65014">
        <ele>19</ele>
        <time>2016-02-19T09:29:59Z</time>
      </trkpt>
      <trkpt lat="48.52395" lon="-2.6501">
        <ele>19</ele>
        <time>2016-02-19T09:30:02Z</time>
      </trkpt>
      <trkpt lat="48.52396" lon="-2.65003">
        <ele>19</ele>
        <time>2016-02-19T09:30:06Z</time>
      </trkpt>
      <trkpt lat="48.52397" lon="-2.64997">
        <ele>19</ele>
        <time>2016-02-19T09:30:09Z</time>
      </trkpt>
      <trkpt lat="48.52399" lon="-2.64992">
        <ele>21</ele>
        <time>2016-02-19T09:30:12Z</time>
      </trkpt>
      <trkpt lat="48.52402" lon="-2.64987">
        <ele>23</ele>
        <time>2016-02-19T09:30:15Z</time>
      </trkpt>
      <trkpt lat="48.52405" lon="-2.64982">
        <ele>24</ele>
        <time>2016-02-19T09:30:18Z</time>
      </trkpt>
      <trkpt lat="48.52409" lon="-2.64977">
        <ele>24</ele>
        <time>2016-02-19T09:30:21Z</time>
      </trkpt>
      <trkpt lat="48.52412" lon="-2.64973">
        <ele>24</ele>
        <time>2016-02-19T09:30:24Z</time>
      </trkpt>
      <trkpt lat="48.52415" lon="-2.64968">
        <ele>24</ele>
        <time>2016-02-19T09:30:27Z</time>
      </trkpt>
      <trkpt lat="48.52418" lon="-2.64962">
        <ele>24</ele>
        <time>2016-02-19T09:30:30Z</time>
      </trkpt>
      <trkpt lat="48.5242" lon="-2.64956">
        <ele>24</ele>
        <time>2016-02-19T09:30:33Z</time>
      </trkpt>
      <trkpt lat="48.52419" lon="-2.6495">
        <ele>24</ele>
        <time>2016-02-19T09:30:36Z</time>
      </trkpt>
      <trkpt lat="48.52419" lon="-2.64943">
        <ele>24</ele>
        <time>2016-02-19T09:30:40Z</time>
      </trkpt>
      <trkpt lat="48.52418" lon="-2.64941">
        <ele>24</ele>
        <time>2016-02-19T09:30:43Z</time>
      </trkpt>
      <trkpt lat="48.52417" lon="-2.64938">
        <ele>24</ele>
        <time>2016-02-19T09:30:46Z</time>
      </trkpt>
      <trkpt lat="48.52416" lon="-2.64932">
        <ele>24</ele>
        <time>2016-02-19T09:30:49Z</time>
      </trkpt>
      <trkpt lat="48.52415" lon="-2.64926">
        <ele>24</ele>
        <time>2016-02-19T09:30:52Z</time>
      </trkpt>
      <trkpt lat="48.52414" lon="-2.64919">
        <ele>24</ele>
        <time>2016-02-19T09:30:55Z</time>
      </trkpt>
      <trkpt lat="48.52413" lon="-2.64912">
        <ele>24</ele>
        <time>2016-02-19T09:30:58Z</time>
      </trkpt>
      <trkpt lat="48.5241" lon="-2.64908">
        <ele>24</ele>
        <time>2016-02-19T09:31:01Z</time>
      </trkpt>
      <trkpt lat="48.52406" lon="-2.64906">
        <ele>24</ele>
        <time>2016-02-19T09:31:04Z</time>
      </trkpt>
      <trkpt lat="48.52403" lon="-2.64902">
        <ele>24</ele>
        <time>2016-02-19T09:31:07Z</time>
      </trkpt>
      <trkpt lat="48.524" lon="-2.64899">
        <ele>24</ele>
        <time>2016-02-19T09:31:10Z</time>
      </trkpt>
      <trkpt lat="48.52397" lon="-2.64894">
        <ele>24</ele>
        <time>2016-02-19T09:31:13Z</time>
      </trkpt>
      <trkpt lat="48.52395" lon="-2.64887">
        <ele>24</ele>
        <time>2016-02-19T09:31:16Z</time>
      </trkpt>
      <trkpt lat="48.52394" lon="-2.64881">
        <ele>25</ele>
        <time>2016-02-19T09:31:19Z</time>
      </trkpt>
      <trkpt lat="48.52396" lon="-2.64877">
        <ele>25</ele>
        <time>2016-02-19T09:31:22Z</time>
      </trkpt>
      <trkpt lat="48.52397" lon="-2.64871">
        <ele>25</ele>
        <time>2016-02-19T09:31:25Z</time>
      </trkpt>
      <trkpt lat="48.52399" lon="-2.64866">
        <ele>26</ele>
        <time>2016-02-19T09:31:28Z</time>
      </trkpt>
      <trkpt lat="48.52401" lon="-2.64859">
        <ele>27</ele>
        <time>2016-02-19T09:31:31Z</time>
      </trkpt>
      <trkpt lat="48.52404" lon="-2.64854">
        <ele>28</ele>
        <time>2016-02-19T09:31:35Z</time>
      </trkpt>
      <trkpt lat="48.52408" lon="-2.6485">
        <ele>28</ele>
        <time>2016-02-19T09:31:39Z</time>
      </trkpt>
      <trkpt lat="48.52412" lon="-2.64847">
        <ele>28</ele>
        <time>2016-02-19T09:31:42Z</time>
      </trkpt>
      <trkpt lat="48.52415" lon="-2.64843">
        <ele>28</ele>
        <time>2016-02-19T09:31:45Z</time>
      </trkpt>
      <trkpt lat="48.52419" lon="-2.64839">
        <ele>28</ele>
        <time>2016-02-19T09:31:49Z</time>
      </trkpt>
      <trkpt lat="48.52422" lon="-2.64835">
        <ele>28</ele>
        <time>2016-02-19T09:31:52Z</time>
      </trkpt>
      <trkpt lat="48.52425" lon="-2.6483">
        <ele>28</ele>
        <time>2016-02-19T09:31:56Z</time>
      </trkpt>
      <trkpt lat="48.52429" lon="-2.64826">
        <ele>28</ele>
        <time>2016-02-19T09:31:59Z</time>
      </trkpt>
      <trkpt lat="48.52432" lon="-2.64824">
        <ele>28</ele>
        <time>2016-02-19T09:32:02Z</time>
      </trkpt>
      <trkpt lat="48.52436" lon="-2.64823">
        <ele>28</ele>
        <time>2016-02-19T09:32:06Z</time>
      </trkpt>
      <trkpt lat="48.5244" lon="-2.64823">
        <ele>28</ele>
        <time>2016-02-19T09:32:09Z</time>
      </trkpt>
      <trkpt lat="48.52444" lon="-2.64821">
        <ele>28</ele>
        <time>2016-02-19T09:32:12Z</time>
      </trkpt>
      <trkpt lat="48.52447" lon="-2.64817">
        <ele>27</ele>
        <time>2016-02-19T09:32:16Z</time>
      </trkpt>
      <trkpt lat="48.52448" lon="-2.64811">
        <ele>27</ele>
        <time>2016-02-19T09:32:20Z</time>
      </trkpt>
      <trkpt lat="48.52448" lon="-2.64805">
        <ele>27</ele>
        <time>2016-02-19T09:32:23Z</time>
      </trkpt>
      <trkpt lat="48.52448" lon="-2.64799">
        <ele>27</ele>
        <time>2016-02-19T09:32:26Z</time>
      </trkpt>
      <trkpt lat="48.52448" lon="-2.64789">
        <ele>27</ele>
        <time>2016-02-19T09:32:30Z</time>
      </trkpt>
      <trkpt lat="48.52448" lon="-2.64784">
        <ele>27</ele>
        <time>2016-02-19T09:32:33Z</time>
      </trkpt>
      <trkpt lat="48.52446" lon="-2.64779">
        <ele>27</ele>
        <time>2016-02-19T09:32:36Z</time>
      </trkpt>
      <trkpt lat="48.52443" lon="-2.64773">
        <ele>27</ele>
        <time>2016-02-19T09:32:40Z</time>
      </trkpt>
      <trkpt lat="48.52439" lon="-2.64769">
        <ele>27</ele>
        <time>2016-02-19T09:32:43Z</time>
      </trkpt>
      <trkpt lat="48.52436" lon="-2.64765">
        <ele>27</ele>
        <time>2016-02-19T09:32:46Z</time>
      </trkpt>
      <trkpt lat="48.52432" lon="-2.64759">
        <ele>27</ele>
        <time>2016-02-19T09:32:50Z</time>
      </trkpt>
      <trkpt lat="48.52429" lon="-2.64755">
        <ele>27</ele>
        <time>2016-02-19T09:32:53Z</time>
      </trkpt>
      <trkpt lat="48.52427" lon="-2.64751">
        <ele>27</ele>
        <time>2016-02-19T09:32:56Z</time>
      </trkpt>
      <trkpt lat="48.52424" lon="-2.64747">
        <ele>27</ele>
        <time>2016-02-19T09:33:00Z</time>
      </trkpt>
      <trkpt lat="48.52421" lon="-2.64742">
        <ele>27</ele>
        <time>2016-02-19T09:33:04Z</time>
      </trkpt>
      <trkpt lat="48.52419" lon="-2.64736">
        <ele>27</ele>
        <time>2016-02-19T09:33:08Z</time>
      </trkpt>
      <trkpt lat="48.52418" lon="-2.64731">
        <ele>27</ele>
        <time>2016-02-19T09:33:11Z</time>
      </trkpt>
      <trkpt lat="48.52417" lon="-2.64726">
        <ele>27</ele>
        <time>2016-02-19T09:33:14Z</time>
      </trkpt>
      <trkpt lat="48.52416" lon="-2.64719">
        <ele>27</ele>
        <time>2016-02-19T09:33:18Z</time>
      </trkpt>
      <trkpt lat="48.52415" lon="-2.64713">
        <ele>27</ele>
        <time>2016-02-19T09:33:21Z</time>
      </trkpt>
      <trkpt lat="48.52415" lon="-2.64705">
        <ele>27</ele>
        <time>2016-02-19T09:33:25Z</time>
      </trkpt>
      <trkpt lat="48.52413" lon="-2.647">
        <ele>26</ele>
        <time>2016-02-19T09:33:28Z</time>
      </trkpt>
      <trkpt lat="48.52412" lon="-2.64693">
        <ele>26</ele>
        <time>2016-02-19T09:33:31Z</time>
      </trkpt>
      <trkpt lat="48.52411" lon="-2.64689">
        <ele>26</ele>
        <time>2016-02-19T09:33:34Z</time>
      </trkpt>
      <trkpt lat="48.5241" lon="-2.64684">
        <ele>26</ele>
        <time>2016-02-19T09:33:37Z</time>
      </trkpt>
      <trkpt lat="48.5241" lon="-2.64678">
        <ele>26</ele>
        <time>2016-02-19T09:33:40Z</time>
      </trkpt>
      <trkpt lat="48.52409" lon="-2.6467">
        <ele>26</ele>
        <time>2016-02-19T09:33:44Z</time>
      </trkpt>
      <trkpt lat="48.52408" lon="-2.64663">
        <ele>26</ele>
        <time>2016-02-19T09:33:48Z</time>
      </trkpt>
      <trkpt lat="48.52407" lon="-2.64657">
        <ele>26</ele>
        <time>2016-02-19T09:33:52Z</time>
      </trkpt>
      <trkpt lat="48.52406" lon="-2.64653">
        <ele>26</ele>
        <time>2016-02-19T09:33:55Z</time>
      </trkpt>
      <trkpt lat="48.52406" lon="-2.64649">
        <ele>26</ele>
        <time>2016-02-19T09:33:58Z</time>
      </trkpt>
      <trkpt lat="48.52406" lon="-2.64645">
        <ele>26</ele>
        <time>2016-02-19T09:34:01Z</time>
      </trkpt>
      <trkpt lat="48.52407" lon="-2.6464">
        <ele>26</ele>
        <time>2016-02-19T09:34:04Z</time>
      </trkpt>
      <trkpt lat="48.52408" lon="-2.64634">
        <ele>26</ele>
        <time>2016-02-19T09:34:07Z</time>
      </trkpt>
      <trkpt lat="48.52408" lon="-2.64627">
        <ele>26</ele>
        <time>2016-02-19T09:34:10Z</time>
      </trkpt>
      <trkpt lat="48.52408" lon="-2.6462">
        <ele>26</ele>
        <time>2016-02-19T09:34:13Z</time>
      </trkpt>
      <trkpt lat="48.52408" lon="-2.64614">
        <ele>26</ele>
        <time>2016-02-19T09:34:16Z</time>
      </trkpt>
      <trkpt lat="48.52409" lon="-2.64608">
        <ele>26</ele>
        <time>2016-02-19T09:34:19Z</time>
      </trkpt>
      <trkpt lat="48.52411" lon="-2.64603">
        <ele>26</ele>
        <time>2016-02-19T09:34:22Z</time>
      </trkpt>
      <trkpt lat="48.52412" lon="-2.64598">
        <ele>26</ele>
        <time>2016-02-19T09:34:25Z</time>
      </trkpt>
      <trkpt lat="48.52414" lon="-2.64592">
        <ele>25</ele>
        <time>2016-02-19T09:34:29Z</time>
      </trkpt>
      <trkpt lat="48.52416" lon="-2.64587">
        <ele>24</ele>
        <time>2016-02-19T09:34:32Z</time>
      </trkpt>
      <trkpt lat="48.52418" lon="-2.64581">
        <ele>23</ele>
        <time>2016-02-19T09:34:35Z</time>
      </trkpt>
      <trkpt lat="48.52419" lon="-2.64577">
        <ele>22</ele>
        <time>2016-02-19T09:34:38Z</time>
      </trkpt>
      <trkpt lat="48.52419" lon="-2.64575">
        <ele>22</ele>
        <time>2016-02-19T09:34:42Z</time>
      </trkpt>
      <trkpt lat="48.52419" lon="-2.64573">
        <ele>22</ele>
        <time>2016-02-19T09:35:05Z</time>
      </trkpt>
      <trkpt lat="48.52419" lon="-2.64571">
        <ele>22</ele>
        <time>2016-02-19T09:35:14Z</time>
      </trkpt>
      <trkpt lat="48.5242" lon="-2.64566">
        <ele>22</ele>
        <time>2016-02-19T09:35:18Z</time>
      </trkpt>
      <trkpt lat="48.52422" lon="-2.64561">
        <ele>22</ele>
        <time>2016-02-19T09:35:21Z</time>
      </trkpt>
      <trkpt lat="48.52423" lon="-2.64556">
        <ele>22</ele>
        <time>2016-02-19T09:35:24Z</time>
      </trkpt>
      <trkpt lat="48.52425" lon="-2.64551">
        <ele>22</ele>
        <time>2016-02-19T09:35:27Z</time>
      </trkpt>
      <trkpt lat="48.52427" lon="-2.64546">
        <ele>22</ele>
        <time>2016-02-19T09:35:30Z</time>
      </trkpt>
      <trkpt lat="48.52428" lon="-2.64541">
        <ele>22</ele>
        <time>2016-02-19T09:35:33Z</time>
      </trkpt>
      <trkpt lat="48.52429" lon="-2.64535">
        <ele>22</ele>
        <time>2016-02-19T09:35:37Z</time>
      </trkpt>
      <trkpt lat="48.52431" lon="-2.64529">
        <ele>22</ele>
        <time>2016-02-19T09:35:40Z</time>
      </trkpt>
      <trkpt lat="48.52432" lon="-2.64524">
        <ele>22</ele>
        <time>2016-02-19T09:35:43Z</time>
      </trkpt>
      <trkpt lat="48.52433" lon="-2.64518">
        <ele>22</ele>
        <time>2016-02-19T09:35:46Z</time>
      </trkpt>
      <trkpt lat="48.52434" lon="-2.64513">
        <ele>22</ele>
        <time>2016-02-19T09:35:49Z</time>
      </trkpt>
      <trkpt lat="48.52435" lon="-2.64509">
        <ele>22</ele>
        <time>2016-02-19T09:35:54Z</time>
      </trkpt>
      <trkpt lat="48.52436" lon="-2.64503">
        <ele>22</ele>
        <time>2016-02-19T09:35:57Z</time>
      </trkpt>
      <trkpt lat="48.52435" lon="-2.64497">
        <ele>22</ele>
        <time>2016-02-19T09:36:01Z</time>
      </trkpt>
      <trkpt lat="48.52432" lon="-2.64493">
        <ele>22</ele>
        <time>2016-02-19T09:36:04Z</time>
      </trkpt>
      <trkpt lat="48.52428" lon="-2.64491">
        <ele>22</ele>
        <time>2016-02-19T09:36:07Z</time>
      </trkpt>
      <trkpt lat="48.52424" lon="-2.64487">
        <ele>22</ele>
        <time>2016-02-19T09:36:11Z</time>
      </trkpt>
      <trkpt lat="48.52422" lon="-2.64486">
        <ele>22</ele>
        <time>2016-02-19T09:36:14Z</time>
      </trkpt>
      <trkpt lat="48.52419" lon="-2.64483">
        <ele>22</ele>
        <time>2016-02-19T09:36:18Z</time>
      </trkpt>
      <trkpt lat="48.52415" lon="-2.64481">
        <ele>22</ele>
        <time>2016-02-19T09:36:21Z</time>
      </trkpt>
      <trkpt lat="48.52412" lon="-2.64478">
        <ele>22</ele>
        <time>2016-02-19T09:36:24Z</time>
      </trkpt>
      <trkpt lat="48.52407" lon="-2.64472">
        <ele>22</ele>
        <time>2016-02-19T09:36:29Z</time>
      </trkpt>
      <trkpt lat="48.52404" lon="-2.64467">
        <ele>22</ele>
        <time>2016-02-19T09:36:33Z</time>
      </trkpt>
      <trkpt lat="48.52401" lon="-2.64461">
        <ele>22</ele>
        <time>2016-02-19T09:36:37Z</time>
      </trkpt>
      <trkpt lat="48.52399" lon="-2.64456">
        <ele>22</ele>
        <time>2016-02-19T09:36:40Z</time>
      </trkpt>
      <trkpt lat="48.52398" lon="-2.6445">
        <ele>22</ele>
        <time>2016-02-19T09:36:43Z</time>
      </trkpt>
      <trkpt lat="48.52396" lon="-2.64444">
        <ele>22</ele>
        <time>2016-02-19T09:36:46Z</time>
      </trkpt>
      <trkpt lat="48.52394" lon="-2.64438">
        <ele>22</ele>
        <time>2016-02-19T09:36:49Z</time>
      </trkpt>
      <trkpt lat="48.52393" lon="-2.64434">
        <ele>22</ele>
        <time>2016-02-19T09:36:52Z</time>
      </trkpt>
      <trkpt lat="48.52391" lon="-2.64428">
        <ele>22</ele>
        <time>2016-02-19T09:36:55Z</time>
      </trkpt>
      <trkpt lat="48.5239" lon="-2.64423">
        <ele>22</ele>
        <time>2016-02-19T09:36:58Z</time>
      </trkpt>
      <trkpt lat="48.52388" lon="-2.64416">
        <ele>22</ele>
        <time>2016-02-19T09:37:02Z</time>
      </trkpt>
      <trkpt lat="48.52387" lon="-2.64411">
        <ele>22</ele>
        <time>2016-02-19T09:37:05Z</time>
      </trkpt>
      <trkpt lat="48.52385" lon="-2.64405">
        <ele>22</ele>
        <time>2016-02-19T09:37:08Z</time>
      </trkpt>
      <trkpt lat="48.52384" lon="-2.64399">
        <ele>22</ele>
        <time>2016-02-19T09:37:11Z</time>
      </trkpt>
      <trkpt lat="48.52383" lon="-2.64393">
        <ele>22</ele>
        <time>2016-02-19T09:37:14Z</time>
      </trkpt>
      <trkpt lat="48.52381" lon="-2.64386">
        <ele>22</ele>
        <time>2016-02-19T09:37:18Z</time>
      </trkpt>
      <trkpt lat="48.52381" lon="-2.64383">
        <ele>22</ele>
        <time>2016-02-19T09:37:21Z</time>
      </trkpt>
      <trkpt lat="48.5238" lon="-2.64377">
        <ele>22</ele>
        <time>2016-02-19T09:37:24Z</time>
      </trkpt>
      <trkpt lat="48.52378" lon="-2.64371">
        <ele>22</ele>
        <time>2016-02-19T09:37:27Z</time>
      </trkpt>
      <trkpt lat="48.52377" lon="-2.64365">
        <ele>22</ele>
        <time>2016-02-19T09:37:30Z</time>
      </trkpt>
      <trkpt lat="48.52375" lon="-2.64359">
        <ele>22</ele>
        <time>2016-02-19T09:37:33Z</time>
      </trkpt>
      <trkpt lat="48.52374" lon="-2.64353">
        <ele>22</ele>
        <time>2016-02-19T09:37:36Z</time>
      </trkpt>
      <trkpt lat="48.52373" lon="-2.64347">
        <ele>22</ele>
        <time>2016-02-19T09:37:40Z</time>
      </trkpt>
      <trkpt lat="48.52373" lon="-2.6434">
        <ele>22</ele>
        <time>2016-02-19T09:37:43Z</time>
      </trkpt>
      <trkpt lat="48.52373" lon="-2.64334">
        <ele>22</ele>
        <time>2016-02-19T09:37:46Z</time>
      </trkpt>
      <trkpt lat="48.52373" lon="-2.64328">
        <ele>22</ele>
        <time>2016-02-19T09:37:49Z</time>
      </trkpt>
      <trkpt lat="48.52373" lon="-2.64322">
        <ele>22</ele>
        <time>2016-02-19T09:37:52Z</time>
      </trkpt>
      <trkpt lat="48.52374" lon="-2.64317">
        <ele>22</ele>
        <time>2016-02-19T09:37:55Z</time>
      </trkpt>
      <trkpt lat="48.52374" lon="-2.6431">
        <ele>22</ele>
        <time>2016-02-19T09:38:00Z</time>
      </trkpt>
      <trkpt lat="48.52374" lon="-2.64305">
        <ele>21</ele>
        <time>2016-02-19T09:38:03Z</time>
      </trkpt>
      <trkpt lat="48.52374" lon="-2.64301">
        <ele>21</ele>
        <time>2016-02-19T09:38:30Z</time>
      </trkpt>
      <trkpt lat="48.52372" lon="-2.64299">
        <ele>21</ele>
        <time>2016-02-19T09:38:46Z</time>
      </trkpt>
      <trkpt lat="48.52372" lon="-2.64295">
        <ele>21</ele>
        <time>2016-02-19T09:38:49Z</time>
      </trkpt>
      <trkpt lat="48.52368" lon="-2.64287">
        <ele>20</ele>
        <time>2016-02-19T09:38:53Z</time>
      </trkpt>
      <trkpt lat="48.52365" lon="-2.64283">
        <ele>19</ele>
        <time>2016-02-19T09:38:56Z</time>
      </trkpt>
      <trkpt lat="48.52362" lon="-2.64276">
        <ele>19</ele>
        <time>2016-02-19T09:39:00Z</time>
      </trkpt>
      <trkpt lat="48.52361" lon="-2.64273">
        <ele>19</ele>
        <time>2016-02-19T09:39:04Z</time>
      </trkpt>
      <trkpt lat="48.52358" lon="-2.64265">
        <ele>19</ele>
        <time>2016-02-19T09:39:08Z</time>
      </trkpt>
      <trkpt lat="48.52356" lon="-2.64261">
        <ele>19</ele>
        <time>2016-02-19T09:39:11Z</time>
      </trkpt>
      <trkpt lat="48.52356" lon="-2.64253">
        <ele>19</ele>
        <time>2016-02-19T09:39:15Z</time>
      </trkpt>
      <trkpt lat="48.52354" lon="-2.64248">
        <ele>19</ele>
        <time>2016-02-19T09:39:18Z</time>
      </trkpt>
      <trkpt lat="48.52353" lon="-2.64241">
        <ele>19</ele>
        <time>2016-02-19T09:39:23Z</time>
      </trkpt>
      <trkpt lat="48.52352" lon="-2.64236">
        <ele>19</ele>
        <time>2016-02-19T09:39:27Z</time>
      </trkpt>
      <trkpt lat="48.52351" lon="-2.64231">
        <ele>19</ele>
        <time>2016-02-19T09:39:30Z</time>
      </trkpt>
      <trkpt lat="48.52351" lon="-2.64226">
        <ele>19</ele>
        <time>2016-02-19T09:39:33Z</time>
      </trkpt>
      <trkpt lat="48.52348" lon="-2.64218">
        <ele>19</ele>
        <time>2016-02-19T09:39:37Z</time>
      </trkpt>
      <trkpt lat="48.52346" lon="-2.64211">
        <ele>19</ele>
        <time>2016-02-19T09:39:41Z</time>
      </trkpt>
      <trkpt lat="48.52345" lon="-2.64204">
        <ele>19</ele>
        <time>2016-02-19T09:39:44Z</time>
      </trkpt>
      <trkpt lat="48.52344" lon="-2.64197">
        <ele>19</ele>
        <time>2016-02-19T09:39:48Z</time>
      </trkpt>
      <trkpt lat="48.52345" lon="-2.64191">
        <ele>19</ele>
        <time>2016-02-19T09:39:51Z</time>
      </trkpt>
      <trkpt lat="48.52346" lon="-2.64183">
        <ele>19</ele>
        <time>2016-02-19T09:39:56Z</time>
      </trkpt>
      <trkpt lat="48.52345" lon="-2.64178">
        <ele>19</ele>
        <time>2016-02-19T09:39:59Z</time>
      </trkpt>
      <trkpt lat="48.52344" lon="-2.64171">
        <ele>19</ele>
        <time>2016-02-19T09:40:03Z</time>
      </trkpt>
      <trkpt lat="48.52342" lon="-2.64163">
        <ele>19</ele>
        <time>2016-02-19T09:40:07Z</time>
      </trkpt>
      <trkpt lat="48.5234" lon="-2.64156">
        <ele>19</ele>
        <time>2016-02-19T09:40:11Z</time>
      </trkpt>
      <trkpt lat="48.52339" lon="-2.6415">
        <ele>19</ele>
        <time>2016-02-19T09:40:14Z</time>
      </trkpt>
      <trkpt lat="48.52339" lon="-2.64142">
        <ele>19</ele>
        <time>2016-02-19T09:40:18Z</time>
      </trkpt>
      <trkpt lat="48.52339" lon="-2.64136">
        <ele>19</ele>
        <time>2016-02-19T09:40:21Z</time>
      </trkpt>
      <trkpt lat="48.52339" lon="-2.6413">
        <ele>19</ele>
        <time>2016-02-19T09:40:24Z</time>
      </trkpt>
      <trkpt lat="48.52339" lon="-2.64122">
        <ele>19</ele>
        <time>2016-02-19T09:40:28Z</time>
      </trkpt>
      <trkpt lat="48.52339" lon="-2.64117">
        <ele>19</ele>
        <time>2016-02-19T09:40:31Z</time>
      </trkpt>
      <trkpt lat="48.52339" lon="-2.6411">
        <ele>19</ele>
        <time>2016-02-19T09:40:34Z</time>
      </trkpt>
      <trkpt lat="48.52339" lon="-2.64104">
        <ele>19</ele>
        <time>2016-02-19T09:40:37Z</time>
      </trkpt>
      <trkpt lat="48.52339" lon="-2.64098">
        <ele>19</ele>
        <time>2016-02-19T09:40:40Z</time>
      </trkpt>
      <trkpt lat="48.5234" lon="-2.6409">
        <ele>19</ele>
        <time>2016-02-19T09:40:44Z</time>
      </trkpt>
      <trkpt lat="48.5234" lon="-2.64083">
        <ele>19</ele>
        <time>2016-02-19T09:40:47Z</time>
      </trkpt>
      <trkpt lat="48.52338" lon="-2.64076">
        <ele>19</ele>
        <time>2016-02-19T09:40:51Z</time>
      </trkpt>
      <trkpt lat="48.52337" lon="-2.6407">
        <ele>19</ele>
        <time>2016-02-19T09:40:55Z</time>
      </trkpt>
      <trkpt lat="48.52336" lon="-2.64066">
        <ele>19</ele>
        <time>2016-02-19T09:40:59Z</time>
      </trkpt>
      <trkpt lat="48.52335" lon="-2.64063">
        <ele>19</ele>
        <time>2016-02-19T09:41:03Z</time>
      </trkpt>
      <trkpt lat="48.52335" lon="-2.6406">
        <ele>19</ele>
        <time>2016-02-19T09:41:06Z</time>
      </trkpt>
      <trkpt lat="48.52335" lon="-2.64057">
        <ele>19</ele>
        <time>2016-02-19T09:41:10Z</time>
      </trkpt>
      <trkpt lat="48.52334" lon="-2.64053">
        <ele>19</ele>
        <time>2016-02-19T09:41:15Z</time>
      </trkpt>
      <trkpt lat="48.52334" lon="-2.64051">
        <ele>18</ele>
        <time>2016-02-19T09:41:18Z</time>
      </trkpt>
      <trkpt lat="48.52333" lon="-2.64047">
        <ele>16</ele>
        <time>2016-02-19T09:41:22Z</time>
      </trkpt>
      <trkpt lat="48.52333" lon="-2.64043">
        <ele>15</ele>
        <time>2016-02-19T09:41:26Z</time>
      </trkpt>
      <trkpt lat="48.52332" lon="-2.64038">
        <ele>14</ele>
        <time>2016-02-19T09:41:30Z</time>
      </trkpt>
      <trkpt lat="48.5233" lon="-2.64035">
        <ele>14</ele>
        <time>2016-02-19T09:41:35Z</time>
      </trkpt>
      <trkpt lat="48.52329" lon="-2.64033">
        <ele>14</ele>
        <time>2016-02-19T09:41:40Z</time>
      </trkpt>
      <trkpt lat="48.52327" lon="-2.64036">
        <ele>14</ele>
        <time>2016-02-19T09:41:44Z</time>
      </trkpt>
      <trkpt lat="48.52326" lon="-2.64039">
        <ele>14</ele>
        <time>2016-02-19T09:41:58Z</time>
      </trkpt>
      <trkpt lat="48.52325" lon="-2.64044">
        <ele>14</ele>
        <time>2016-02-19T09:42:02Z</time>
      </trkpt>
      <trkpt lat="48.52325" lon="-2.64049">
        <ele>14</ele>
        <time>2016-02-19T09:42:10Z</time>
      </trkpt>
      <trkpt lat="48.52325" lon="-2.64054">
        <ele>14</ele>
        <time>2016-02-19T09:42:14Z</time>
      </trkpt>
      <trkpt lat="48.52326" lon="-2.64054">
        <ele>14</ele>
        <time>2016-02-19T09:42:28Z</time>
      </trkpt>
      <trkpt lat="48.52325" lon="-2.64052">
        <ele>14</ele>
        <time>2016-02-19T09:42:34Z</time>
      </trkpt>
      <trkpt lat="48.52326" lon="-2.64053">
        <ele>14</ele>
        <time>2016-02-19T09:42:41Z</time>
      </trkpt>
      <trkpt lat="48.52328" lon="-2.64055">
        <ele>14</ele>
        <time>2016-02-19T09:42:44Z</time>
      </trkpt>
      <trkpt lat="48.52327" lon="-2.64055">
        <ele>14</ele>
        <time>2016-02-19T09:42:50Z</time>
      </trkpt>
      <trkpt lat="48.52327" lon="-2.64052">
        <ele>14</ele>
        <time>2016-02-19T09:42:54Z</time>
      </trkpt>
      <trkpt lat="48.52326" lon="-2.64047">
        <ele>14</ele>
        <time>2016-02-19T09:42:57Z</time>
      </trkpt>
      <trkpt lat="48.52325" lon="-2.64042">
        <ele>14</ele>
        <time>2016-02-19T09:43:01Z</time>
      </trkpt>
      <trkpt lat="48.52326" lon="-2.64038">
        <ele>14</ele>
        <time>2016-02-19T09:43:05Z</time>
      </trkpt>
      <trkpt lat="48.52327" lon="-2.64035">
        <ele>14</ele>
        <time>2016-02-19T09:43:15Z</time>
      </trkpt>
      <trkpt lat="48.52327" lon="-2.64031">
        <ele>14</ele>
        <time>2016-02-19T09:43:19Z</time>
      </trkpt>
      <trkpt lat="48.52327" lon="-2.64029">
        <ele>14</ele>
        <time>2016-02-19T09:43:22Z</time>
      </trkpt>
      <trkpt lat="48.52327" lon="-2.64027">
        <ele>14</ele>
        <time>2016-02-19T09:43:47Z</time>
      </trkpt>
      <trkpt lat="48.52328" lon="-2.64029">
        <ele>14</ele>
        <time>2016-02-19T09:44:27Z</time>
      </trkpt>
      <trkpt lat="48.52329" lon="-2.64027">
        <ele>14</ele>
        <time>2016-02-19T09:44:47Z</time>
      </trkpt>
      <trkpt lat="48.52327" lon="-2.64025">
        <ele>14</ele>
        <time>2016-02-19T09:45:03Z</time>
      </trkpt>
      <trkpt lat="48.52327" lon="-2.64023">
        <ele>14</ele>
        <time>2016-02-19T09:45:07Z</time>
      </trkpt>
      <trkpt lat="48.52327" lon="-2.64019">
        <ele>14</ele>
        <time>2016-02-19T09:45:11Z</time>
      </trkpt>
      <trkpt lat="48.52327" lon="-2.64014">
        <ele>14</ele>
        <time>2016-02-19T09:45:15Z</time>
      </trkpt>
      <trkpt lat="48.52326" lon="-2.64008">
        <ele>14</ele>
        <time>2016-02-19T09:45:20Z</time>
      </trkpt>
      <trkpt lat="48.52326" lon="-2.64003">
        <ele>14</ele>
        <time>2016-02-19T09:45:24Z</time>
      </trkpt>
      <trkpt lat="48.52327" lon="-2.63997">
        <ele>14</ele>
        <time>2016-02-19T09:45:28Z</time>
      </trkpt>
      <trkpt lat="48.52328" lon="-2.63993">
        <ele>14</ele>
        <time>2016-02-19T09:45:32Z</time>
      </trkpt>
      <trkpt lat="48.52329" lon="-2.63988">
        <ele>14</ele>
        <time>2016-02-19T09:45:36Z</time>
      </trkpt>
      <trkpt lat="48.52329" lon="-2.63984">
        <ele>14</ele>
        <time>2016-02-19T09:45:40Z</time>
      </trkpt>
      <trkpt lat="48.52329" lon="-2.63981">
        <ele>14</ele>
        <time>2016-02-19T09:45:45Z</time>
      </trkpt>
      <trkpt lat="48.5233" lon="-2.63979">
        <ele>14</ele>
        <time>2016-02-19T09:45:55Z</time>
      </trkpt>
      <trkpt lat="48.52331" lon="-2.63975">
        <ele>14</ele>
        <time>2016-02-19T09:45:58Z</time>
      </trkpt>
      <trkpt lat="48.52332" lon="-2.6397">
        <ele>14</ele>
        <time>2016-02-19T09:46:02Z</time>
      </trkpt>
      <trkpt lat="48.52334" lon="-2.63966">
        <ele>14</ele>
        <time>2016-02-19T09:46:05Z</time>
      </trkpt>
      <trkpt lat="48.52337" lon="-2.63959">
        <ele>14</ele>
        <time>2016-02-19T09:46:10Z</time>
      </trkpt>
      <trkpt lat="48.52339" lon="-2.63954">
        <ele>14</ele>
        <time>2016-02-19T09:46:14Z</time>
      </trkpt>
      <trkpt lat="48.52341" lon="-2.6395">
        <ele>14</ele>
        <time>2016-02-19T09:46:18Z</time>
      </trkpt>
      <trkpt lat="48.52341" lon="-2.63946">
        <ele>15</ele>
        <time>2016-02-19T09:46:22Z</time>
      </trkpt>
      <trkpt lat="48.52341" lon="-2.63942">
        <ele>15</ele>
        <time>2016-02-19T09:46:26Z</time>
      </trkpt>
      <trkpt lat="48.52342" lon="-2.63938">
        <ele>16</ele>
        <time>2016-02-19T09:46:31Z</time>
      </trkpt>
      <trkpt lat="48.52342" lon="-2.63936">
        <ele>17</ele>
        <time>2016-02-19T09:46:34Z</time>
      </trkpt>
      <trkpt lat="48.52345" lon="-2.63932">
        <ele>17</ele>
        <time>2016-02-19T09:46:38Z</time>
      </trkpt>
      <trkpt lat="48.52346" lon="-2.63927">
        <ele>18</ele>
        <time>2016-02-19T09:46:42Z</time>
      </trkpt>
      <trkpt lat="48.52347" lon="-2.63922">
        <ele>19</ele>
        <time>2016-02-19T09:46:46Z</time>
      </trkpt>
      <trkpt lat="48.52349" lon="-2.63916">
        <ele>19</ele>
        <time>2016-02-19T09:46:50Z</time>
      </trkpt>
      <trkpt lat="48.52351" lon="-2.63911">
        <ele>19</ele>
        <time>2016-02-19T09:46:54Z</time>
      </trkpt>
      <trkpt lat="48.52355" lon="-2.63906">
        <ele>19</ele>
        <time>2016-02-19T09:46:58Z</time>
      </trkpt>
      <trkpt lat="48.52357" lon="-2.63902">
        <ele>19</ele>
        <time>2016-02-19T09:47:02Z</time>
      </trkpt>
      <trkpt lat="48.5236" lon="-2.63898">
        <ele>19</ele>
        <time>2016-02-19T09:47:06Z</time>
      </trkpt>
      <trkpt lat="48.52362" lon="-2.63893">
        <ele>19</ele>
        <time>2016-02-19T09:47:10Z</time>
      </trkpt>
      <trkpt lat="48.52362" lon="-2.63889">
        <ele>19</ele>
        <time>2016-02-19T09:47:13Z</time>
      </trkpt>
      <trkpt lat="48.52361" lon="-2.63884">
        <ele>18</ele>
        <time>2016-02-19T09:47:16Z</time>
      </trkpt>
      <trkpt lat="48.52361" lon="-2.63879">
        <ele>17</ele>
        <time>2016-02-19T09:47:20Z</time>
      </trkpt>
      <trkpt lat="48.52363" lon="-2.63874">
        <ele>16</ele>
        <time>2016-02-19T09:47:24Z</time>
      </trkpt>
      <trkpt lat="48.52363" lon="-2.63868">
        <ele>14</ele>
        <time>2016-02-19T09:47:27Z</time>
      </trkpt>
      <trkpt lat="48.52362" lon="-2.63862">
        <ele>13</ele>
        <time>2016-02-19T09:47:30Z</time>
      </trkpt>
      <trkpt lat="48.52361" lon="-2.63856">
        <ele>13</ele>
        <time>2016-02-19T09:47:33Z</time>
      </trkpt>
      <trkpt lat="48.52359" lon="-2.63849">
        <ele>13</ele>
        <time>2016-02-19T09:47:37Z</time>
      </trkpt>
      <trkpt lat="48.52358" lon="-2.63841">
        <ele>13</ele>
        <time>2016-02-19T09:47:41Z</time>
      </trkpt>
      <trkpt lat="48.52357" lon="-2.63833">
        <ele>12</ele>
        <time>2016-02-19T09:47:45Z</time>
      </trkpt>
      <trkpt lat="48.52357" lon="-2.63826">
        <ele>12</ele>
        <time>2016-02-19T09:47:48Z</time>
      </trkpt>
      <trkpt lat="48.52357" lon="-2.6382">
        <ele>12</ele>
        <time>2016-02-19T09:47:51Z</time>
      </trkpt>
      <trkpt lat="48.52358" lon="-2.63813">
        <ele>12</ele>
        <time>2016-02-19T09:47:54Z</time>
      </trkpt>
      <trkpt lat="48.52359" lon="-2.63804">
        <ele>12</ele>
        <time>2016-02-19T09:47:58Z</time>
      </trkpt>
      <trkpt lat="48.52363" lon="-2.63799">
        <ele>12</ele>
        <time>2016-02-19T09:48:02Z</time>
      </trkpt>
      <trkpt lat="48.52367" lon="-2.63798">
        <ele>12</ele>
        <time>2016-02-19T09:48:05Z</time>
      </trkpt>
      <trkpt lat="48.5237" lon="-2.63797">
        <ele>12</ele>
        <time>2016-02-19T09:48:08Z</time>
      </trkpt>
      <trkpt lat="48.52374" lon="-2.638">
        <ele>12</ele>
        <time>2016-02-19T09:48:11Z</time>
      </trkpt>
      <trkpt lat="48.52377" lon="-2.63803">
        <ele>12</ele>
        <time>2016-02-19T09:48:15Z</time>
      </trkpt>
      <trkpt lat="48.5238" lon="-2.63803">
        <ele>12</ele>
        <time>2016-02-19T09:48:18Z</time>
      </trkpt>
      <trkpt lat="48.52384" lon="-2.63801">
        <ele>12</ele>
        <time>2016-02-19T09:48:21Z</time>
      </trkpt>
      <trkpt lat="48.52387" lon="-2.63797">
        <ele>12</ele>
        <time>2016-02-19T09:48:24Z</time>
      </trkpt>
      <trkpt lat="48.52391" lon="-2.63794">
        <ele>12</ele>
        <time>2016-02-19T09:48:27Z</time>
      </trkpt>
      <trkpt lat="48.52395" lon="-2.63788">
        <ele>13</ele>
        <time>2016-02-19T09:48:32Z</time>
      </trkpt>
      <trkpt lat="48.52395" lon="-2.63784">
        <ele>13</ele>
        <time>2016-02-19T09:48:35Z</time>
      </trkpt>
      <trkpt lat="48.52396" lon="-2.63779">
        <ele>14</ele>
        <time>2016-02-19T09:48:38Z</time>
      </trkpt>
      <trkpt lat="48.52397" lon="-2.63774">
        <ele>14</ele>
        <time>2016-02-19T09:48:41Z</time>
      </trkpt>
      <trkpt lat="48.52398" lon="-2.63768">
        <ele>15</ele>
        <time>2016-02-19T09:48:45Z</time>
      </trkpt>
      <trkpt lat="48.524" lon="-2.63763">
        <ele>15</ele>
        <time>2016-02-19T09:48:48Z</time>
      </trkpt>
      <trkpt lat="48.52401" lon="-2.63758">
        <ele>16</ele>
        <time>2016-02-19T09:48:51Z</time>
      </trkpt>
      <trkpt lat="48.52403" lon="-2.63753">
        <ele>16</ele>
        <time>2016-02-19T09:48:55Z</time>
      </trkpt>
      <trkpt lat="48.52404" lon="-2.63748">
        <ele>16</ele>
        <time>2016-02-19T09:48:58Z</time>
      </trkpt>
      <trkpt lat="48.52407" lon="-2.63741">
        <ele>17</ele>
        <time>2016-02-19T09:49:02Z</time>
      </trkpt>
      <trkpt lat="48.52409" lon="-2.63736">
        <ele>17</ele>
        <time>2016-02-19T09:49:05Z</time>
      </trkpt>
      <trkpt lat="48.52414" lon="-2.63728">
        <ele>17</ele>
        <time>2016-02-19T09:49:10Z</time>
      </trkpt>
      <trkpt lat="48.52417" lon="-2.63723">
        <ele>17</ele>
        <time>2016-02-19T09:49:13Z</time>
      </trkpt>
      <trkpt lat="48.52418" lon="-2.63718">
        <ele>17</ele>
        <time>2016-02-19T09:49:16Z</time>
      </trkpt>
      <trkpt lat="48.5242" lon="-2.63709">
        <ele>17</ele>
        <time>2016-02-19T09:49:20Z</time>
      </trkpt>
      <trkpt lat="48.52422" lon="-2.63703">
        <ele>17</ele>
        <time>2016-02-19T09:49:23Z</time>
      </trkpt>
      <trkpt lat="48.52423" lon="-2.63697">
        <ele>17</ele>
        <time>2016-02-19T09:49:26Z</time>
      </trkpt>
      <trkpt lat="48.52425" lon="-2.63691">
        <ele>17</ele>
        <time>2016-02-19T09:49:29Z</time>
      </trkpt>
      <trkpt lat="48.52426" lon="-2.63683">
        <ele>17</ele>
        <time>2016-02-19T09:49:33Z</time>
      </trkpt>
      <trkpt lat="48.52426" lon="-2.63677">
        <ele>17</ele>
        <time>2016-02-19T09:49:36Z</time>
      </trkpt>
      <trkpt lat="48.52425" lon="-2.63669">
        <ele>17</ele>
        <time>2016-02-19T09:49:40Z</time>
      </trkpt>
      <trkpt lat="48.52423" lon="-2.63664">
        <ele>18</ele>
        <time>2016-02-19T09:49:43Z</time>
      </trkpt>
      <trkpt lat="48.52422" lon="-2.63658">
        <ele>18</ele>
        <time>2016-02-19T09:49:46Z</time>
      </trkpt>
      <trkpt lat="48.5242" lon="-2.63652">
        <ele>18</ele>
        <time>2016-02-19T09:49:49Z</time>
      </trkpt>
      <trkpt lat="48.52418" lon="-2.63644">
        <ele>19</ele>
        <time>2016-02-19T09:49:53Z</time>
      </trkpt>
      <trkpt lat="48.52419" lon="-2.63637">
        <ele>20</ele>
        <time>2016-02-19T09:49:57Z</time>
      </trkpt>
      <trkpt lat="48.52421" lon="-2.63631">
        <ele>21</ele>
        <time>2016-02-19T09:50:00Z</time>
      </trkpt>
      <trkpt lat="48.52422" lon="-2.63625">
        <ele>21</ele>
        <time>2016-02-19T09:50:03Z</time>
      </trkpt>
      <trkpt lat="48.52425" lon="-2.63617">
        <ele>21</ele>
        <time>2016-02-19T09:50:07Z</time>
      </trkpt>
      <trkpt lat="48.52427" lon="-2.6361">
        <ele>21</ele>
        <time>2016-02-19T09:50:11Z</time>
      </trkpt>
      <trkpt lat="48.52428" lon="-2.63603">
        <ele>22</ele>
        <time>2016-02-19T09:50:14Z</time>
      </trkpt>
      <trkpt lat="48.5243" lon="-2.63595">
        <ele>22</ele>
        <time>2016-02-19T09:50:18Z</time>
      </trkpt>
      <trkpt lat="48.52431" lon="-2.63588">
        <ele>22</ele>
        <time>2016-02-19T09:50:22Z</time>
      </trkpt>
      <trkpt lat="48.52432" lon="-2.63583">
        <ele>23</ele>
        <time>2016-02-19T09:50:25Z</time>
      </trkpt>
      <trkpt lat="48.52433" lon="-2.63578">
        <ele>23</ele>
        <time>2016-02-19T09:50:28Z</time>
      </trkpt>
      <trkpt lat="48.52436" lon="-2.6357">
        <ele>23</ele>
        <time>2016-02-19T09:50:32Z</time>
      </trkpt>
      <trkpt lat="48.52438" lon="-2.63565">
        <ele>23</ele>
        <time>2016-02-19T09:50:35Z</time>
      </trkpt>
      <trkpt lat="48.52442" lon="-2.63558">
        <ele>24</ele>
        <time>2016-02-19T09:50:39Z</time>
      </trkpt>
      <trkpt lat="48.52444" lon="-2.63552">
        <ele>24</ele>
        <time>2016-02-19T09:50:42Z</time>
      </trkpt>
      <trkpt lat="48.52446" lon="-2.63547">
        <ele>24</ele>
        <time>2016-02-19T09:50:45Z</time>
      </trkpt>
      <trkpt lat="48.52449" lon="-2.63541">
        <ele>24</ele>
        <time>2016-02-19T09:50:48Z</time>
      </trkpt>
      <trkpt lat="48.52451" lon="-2.63535">
        <ele>24</ele>
        <time>2016-02-19T09:50:51Z</time>
      </trkpt>
      <trkpt lat="48.52455" lon="-2.6353">
        <ele>24</ele>
        <time>2016-02-19T09:50:55Z</time>
      </trkpt>
      <trkpt lat="48.52458" lon="-2.63527">
        <ele>24</ele>
        <time>2016-02-19T09:50:58Z</time>
      </trkpt>
      <trkpt lat="48.52462" lon="-2.63522">
        <ele>24</ele>
        <time>2016-02-19T09:51:02Z</time>
      </trkpt>
      <trkpt lat="48.52464" lon="-2.63516">
        <ele>24</ele>
        <time>2016-02-19T09:51:05Z</time>
      </trkpt>
      <trkpt lat="48.52466" lon="-2.63508">
        <ele>24</ele>
        <time>2016-02-19T09:51:09Z</time>
      </trkpt>
      <trkpt lat="48.52467" lon="-2.635">
        <ele>24</ele>
        <time>2016-02-19T09:51:13Z</time>
      </trkpt>
      <trkpt lat="48.52468" lon="-2.63494">
        <ele>24</ele>
        <time>2016-02-19T09:51:16Z</time>
      </trkpt>
      <trkpt lat="48.52468" lon="-2.63488">
        <ele>24</ele>
        <time>2016-02-19T09:51:19Z</time>
      </trkpt>
      <trkpt lat="48.52468" lon="-2.63482">
        <ele>24</ele>
        <time>2016-02-19T09:51:22Z</time>
      </trkpt>
      <trkpt lat="48.52467" lon="-2.63474">
        <ele>24</ele>
        <time>2016-02-19T09:51:26Z</time>
      </trkpt>
      <trkpt lat="48.52465" lon="-2.63468">
        <ele>24</ele>
        <time>2016-02-19T09:51:29Z</time>
      </trkpt>
      <trkpt lat="48.52465" lon="-2.63462">
        <ele>24</ele>
        <time>2016-02-19T09:51:32Z</time>
      </trkpt>
      <trkpt lat="48.52465" lon="-2.63455">
        <ele>24</ele>
        <time>2016-02-19T09:51:35Z</time>
      </trkpt>
      <trkpt lat="48.52466" lon="-2.63449">
        <ele>25</ele>
        <time>2016-02-19T09:51:38Z</time>
      </trkpt>
      <trkpt lat="48.52467" lon="-2.63443">
        <ele>25</ele>
        <time>2016-02-19T09:51:42Z</time>
      </trkpt>
      <trkpt lat="48.52467" lon="-2.63437">
        <ele>25</ele>
        <time>2016-02-19T09:51:45Z</time>
      </trkpt>
      <trkpt lat="48.52464" lon="-2.63432">
        <ele>25</ele>
        <time>2016-02-19T09:51:48Z</time>
      </trkpt>
      <trkpt lat="48.5246" lon="-2.63426">
        <ele>25</ele>
        <time>2016-02-19T09:51:52Z</time>
      </trkpt>
      <trkpt lat="48.52457" lon="-2.63422">
        <ele>25</ele>
        <time>2016-02-19T09:51:55Z</time>
      </trkpt>
      <trkpt lat="48.52454" lon="-2.63418">
        <ele>25</ele>
        <time>2016-02-19T09:51:58Z</time>
      </trkpt>
      <trkpt lat="48.52453" lon="-2.63417">
        <ele>25</ele>
        <time>2016-02-19T09:52:01Z</time>
      </trkpt>
      <trkpt lat="48.52452" lon="-2.63415">
        <ele>25</ele>
        <time>2016-02-19T09:52:06Z</time>
      </trkpt>
      <trkpt lat="48.52452" lon="-2.63412">
        <ele>25</ele>
        <time>2016-02-19T09:52:16Z</time>
      </trkpt>
      <trkpt lat="48.52453" lon="-2.63407">
        <ele>25</ele>
        <time>2016-02-19T09:52:20Z</time>
      </trkpt>
      <trkpt lat="48.52457" lon="-2.63402">
        <ele>25</ele>
        <time>2016-02-19T09:52:24Z</time>
      </trkpt>
      <trkpt lat="48.52459" lon="-2.63397">
        <ele>25</ele>
        <time>2016-02-19T09:52:27Z</time>
      </trkpt>
      <trkpt lat="48.5246" lon="-2.63391">
        <ele>25</ele>
        <time>2016-02-19T09:52:30Z</time>
      </trkpt>
      <trkpt lat="48.52463" lon="-2.63386">
        <ele>25</ele>
        <time>2016-02-19T09:52:33Z</time>
      </trkpt>
      <trkpt lat="48.52466" lon="-2.63379">
        <ele>25</ele>
        <time>2016-02-19T09:52:37Z</time>
      </trkpt>
      <trkpt lat="48.52469" lon="-2.63375">
        <ele>24</ele>
        <time>2016-02-19T09:52:40Z</time>
      </trkpt>
      <trkpt lat="48.52473" lon="-2.63368">
        <ele>22</ele>
        <time>2016-02-19T09:52:45Z</time>
      </trkpt>
      <trkpt lat="48.52476" lon="-2.6336">
        <ele>20</ele>
        <time>2016-02-19T09:52:50Z</time>
      </trkpt>
      <trkpt lat="48.52479" lon="-2.63355">
        <ele>19</ele>
        <time>2016-02-19T09:52:53Z</time>
      </trkpt>
      <trkpt lat="48.52482" lon="-2.6335">
        <ele>18</ele>
        <time>2016-02-19T09:52:56Z</time>
      </trkpt>
      <trkpt lat="48.52484" lon="-2.63344">
        <ele>18</ele>
        <time>2016-02-19T09:53:00Z</time>
      </trkpt>
      <trkpt lat="48.52486" lon="-2.63337">
        <ele>18</ele>
        <time>2016-02-19T09:53:03Z</time>
      </trkpt>
      <trkpt lat="48.52487" lon="-2.6333">
        <ele>18</ele>
        <time>2016-02-19T09:53:06Z</time>
      </trkpt>
      <trkpt lat="48.52488" lon="-2.63323">
        <ele>18</ele>
        <time>2016-02-19T09:53:09Z</time>
      </trkpt>
      <trkpt lat="48.52491" lon="-2.63314">
        <ele>18</ele>
        <time>2016-02-19T09:53:13Z</time>
      </trkpt>
      <trkpt lat="48.52494" lon="-2.63305">
        <ele>18</ele>
        <time>2016-02-19T09:53:17Z</time>
      </trkpt>
      <trkpt lat="48.52497" lon="-2.633">
        <ele>18</ele>
        <time>2016-02-19T09:53:20Z</time>
      </trkpt>
      <trkpt lat="48.52499" lon="-2.63296">
        <ele>18</ele>
        <time>2016-02-19T09:53:23Z</time>
      </trkpt>
      <trkpt lat="48.52503" lon="-2.63292">
        <ele>18</ele>
        <time>2016-02-19T09:53:26Z</time>
      </trkpt>
      <trkpt lat="48.52507" lon="-2.63289">
        <ele>18</ele>
        <time>2016-02-19T09:53:30Z</time>
      </trkpt>
      <trkpt lat="48.52509" lon="-2.63284">
        <ele>18</ele>
        <time>2016-02-19T09:53:34Z</time>
      </trkpt>
      <trkpt lat="48.52512" lon="-2.63279">
        <ele>18</ele>
        <time>2016-02-19T09:53:38Z</time>
      </trkpt>
      <trkpt lat="48.52515" lon="-2.63272">
        <ele>18</ele>
        <time>2016-02-19T09:53:42Z</time>
      </trkpt>
      <trkpt lat="48.52518" lon="-2.63266">
        <ele>18</ele>
        <time>2016-02-19T09:53:45Z</time>
      </trkpt>
      <trkpt lat="48.52522" lon="-2.6326">
        <ele>18</ele>
        <time>2016-02-19T09:53:49Z</time>
      </trkpt>
      <trkpt lat="48.52524" lon="-2.63254">
        <ele>18</ele>
        <time>2016-02-19T09:53:52Z</time>
      </trkpt>
      <trkpt lat="48.52524" lon="-2.6325">
        <ele>18</ele>
        <time>2016-02-19T09:53:55Z</time>
      </trkpt>
      <trkpt lat="48.52525" lon="-2.63244">
        <ele>18</ele>
        <time>2016-02-19T09:53:59Z</time>
      </trkpt>
      <trkpt lat="48.52526" lon="-2.63239">
        <ele>18</ele>
        <time>2016-02-19T09:54:03Z</time>
      </trkpt>
      <trkpt lat="48.52527" lon="-2.63235">
        <ele>18</ele>
        <time>2016-02-19T09:54:06Z</time>
      </trkpt>
      <trkpt lat="48.5253" lon="-2.6323">
        <ele>18</ele>
        <time>2016-02-19T09:54:10Z</time>
      </trkpt>
      <trkpt lat="48.52534" lon="-2.63226">
        <ele>18</ele>
        <time>2016-02-19T09:54:13Z</time>
      </trkpt>
      <trkpt lat="48.52536" lon="-2.63221">
        <ele>18</ele>
        <time>2016-02-19T09:54:16Z</time>
      </trkpt>
      <trkpt lat="48.52539" lon="-2.63215">
        <ele>18</ele>
        <time>2016-02-19T09:54:20Z</time>
      </trkpt>
      <trkpt lat="48.52541" lon="-2.63209">
        <ele>18</ele>
        <time>2016-02-19T09:54:24Z</time>
      </trkpt>
      <trkpt lat="48.52543" lon="-2.63203">
        <ele>18</ele>
        <time>2016-02-19T09:54:28Z</time>
      </trkpt>
      <trkpt lat="48.52545" lon="-2.63198">
        <ele>18</ele>
        <time>2016-02-19T09:54:32Z</time>
      </trkpt>
      <trkpt lat="48.52548" lon="-2.63194">
        <ele>18</ele>
        <time>2016-02-19T09:54:37Z</time>
      </trkpt>
      <trkpt lat="48.5255" lon="-2.63191">
        <ele>18</ele>
        <time>2016-02-19T09:54:41Z</time>
      </trkpt>
      <trkpt lat="48.52552" lon="-2.63187">
        <ele>18</ele>
        <time>2016-02-19T09:54:44Z</time>
      </trkpt>
      <trkpt lat="48.52555" lon="-2.63179">
        <ele>18</ele>
        <time>2016-02-19T09:54:48Z</time>
      </trkpt>
      <trkpt lat="48.52558" lon="-2.63175">
        <ele>18</ele>
        <time>2016-02-19T09:54:51Z</time>
      </trkpt>
      <trkpt lat="48.5256" lon="-2.63171">
        <ele>18</ele>
        <time>2016-02-19T09:54:54Z</time>
      </trkpt>
      <trkpt lat="48.52564" lon="-2.63165">
        <ele>18</ele>
        <time>2016-02-19T09:54:58Z</time>
      </trkpt>
      <trkpt lat="48.52567" lon="-2.6316">
        <ele>18</ele>
        <time>2016-02-19T09:55:02Z</time>
      </trkpt>
      <trkpt lat="48.5257" lon="-2.63156">
        <ele>18</ele>
        <time>2016-02-19T09:55:06Z</time>
      </trkpt>
      <trkpt lat="48.52573" lon="-2.63152">
        <ele>18</ele>
        <time>2016-02-19T09:55:10Z</time>
      </trkpt>
      <trkpt lat="48.52575" lon="-2.63147">
        <ele>18</ele>
        <time>2016-02-19T09:55:14Z</time>
      </trkpt>
      <trkpt lat="48.52576" lon="-2.63143">
        <ele>18</ele>
        <time>2016-02-19T09:55:30Z</time>
      </trkpt>
      <trkpt lat="48.52577" lon="-2.63139">
        <ele>18</ele>
        <time>2016-02-19T09:55:33Z</time>
      </trkpt>
      <trkpt lat="48.52578" lon="-2.63133">
        <ele>18</ele>
        <time>2016-02-19T09:55:36Z</time>
      </trkpt>
      <trkpt lat="48.5258" lon="-2.63126">
        <ele>18</ele>
        <time>2016-02-19T09:55:40Z</time>
      </trkpt>
      <trkpt lat="48.52582" lon="-2.63118">
        <ele>17</ele>
        <time>2016-02-19T09:55:45Z</time>
      </trkpt>
      <trkpt lat="48.52583" lon="-2.63112">
        <ele>16</ele>
        <time>2016-02-19T09:55:48Z</time>
      </trkpt>
      <trkpt lat="48.52584" lon="-2.63105">
        <ele>16</ele>
        <time>2016-02-19T09:55:52Z</time>
      </trkpt>
      <trkpt lat="48.52584" lon="-2.631">
        <ele>16</ele>
        <time>2016-02-19T09:55:55Z</time>
      </trkpt>
      <trkpt lat="48.52583" lon="-2.63096">
        <ele>16</ele>
        <time>2016-02-19T09:55:58Z</time>
      </trkpt>
      <trkpt lat="48.52583" lon="-2.63091">
        <ele>16</ele>
        <time>2016-02-19T09:56:01Z</time>
      </trkpt>
      <trkpt lat="48.52582" lon="-2.63083">
        <ele>16</ele>
        <time>2016-02-19T09:56:05Z</time>
      </trkpt>
      <trkpt lat="48.52582" lon="-2.63079">
        <ele>16</ele>
        <time>2016-02-19T09:56:08Z</time>
      </trkpt>
      <trkpt lat="48.52581" lon="-2.63073">
        <ele>16</ele>
        <time>2016-02-19T09:56:12Z</time>
      </trkpt>
      <trkpt lat="48.52581" lon="-2.63068">
        <ele>16</ele>
        <time>2016-02-19T09:56:16Z</time>
      </trkpt>
      <trkpt lat="48.5258" lon="-2.63062">
        <ele>16</ele>
        <time>2016-02-19T09:56:19Z</time>
      </trkpt>
      <trkpt lat="48.5258" lon="-2.63056">
        <ele>16</ele>
        <time>2016-02-19T09:56:22Z</time>
      </trkpt>
      <trkpt lat="48.5258" lon="-2.6305">
        <ele>16</ele>
        <time>2016-02-19T09:56:25Z</time>
      </trkpt>
      <trkpt lat="48.5258" lon="-2.63044">
        <ele>16</ele>
        <time>2016-02-19T09:56:28Z</time>
      </trkpt>
      <trkpt lat="48.5258" lon="-2.63037">
        <ele>16</ele>
        <time>2016-02-19T09:56:32Z</time>
      </trkpt>
      <trkpt lat="48.52581" lon="-2.6303">
        <ele>16</ele>
        <time>2016-02-19T09:56:36Z</time>
      </trkpt>
      <trkpt lat="48.52582" lon="-2.63023">
        <ele>16</ele>
        <time>2016-02-19T09:56:39Z</time>
      </trkpt>
      <trkpt lat="48.52583" lon="-2.63018">
        <ele>16</ele>
        <time>2016-02-19T09:56:42Z</time>
      </trkpt>
      <trkpt lat="48.52583" lon="-2.63012">
        <ele>16</ele>
        <time>2016-02-19T09:56:45Z</time>
      </trkpt>
      <trkpt lat="48.52583" lon="-2.63005">
        <ele>16</ele>
        <time>2016-02-19T09:56:48Z</time>
      </trkpt>
      <trkpt lat="48.52581" lon="-2.62998">
        <ele>16</ele>
        <time>2016-02-19T09:56:52Z</time>
      </trkpt>
      <trkpt lat="48.52578" lon="-2.62989">
        <ele>16</ele>
        <time>2016-02-19T09:56:57Z</time>
      </trkpt>
      <trkpt lat="48.52574" lon="-2.62985">
        <ele>16</ele>
        <time>2016-02-19T09:57:00Z</time>
      </trkpt>
      <trkpt lat="48.5257" lon="-2.62984">
        <ele>16</ele>
        <time>2016-02-19T09:57:03Z</time>
      </trkpt>
      <trkpt lat="48.52565" lon="-2.62983">
        <ele>16</ele>
        <time>2016-02-19T09:57:07Z</time>
      </trkpt>
      <trkpt lat="48.52562" lon="-2.62984">
        <ele>16</ele>
        <time>2016-02-19T09:57:11Z</time>
      </trkpt>
      <trkpt lat="48.52558" lon="-2.62984">
        <ele>17</ele>
        <time>2016-02-19T09:57:15Z</time>
      </trkpt>
      <trkpt lat="48.52554" lon="-2.62983">
        <ele>18</ele>
        <time>2016-02-19T09:57:19Z</time>
      </trkpt>
      <trkpt lat="48.52551" lon="-2.62983">
        <ele>19</ele>
        <time>2016-02-19T09:57:23Z</time>
      </trkpt>
      <trkpt lat="48.52547" lon="-2.62983">
        <ele>20</ele>
        <time>2016-02-19T09:57:26Z</time>
      </trkpt>
      <trkpt lat="48.52543" lon="-2.62985">
        <ele>20</ele>
        <time>2016-02-19T09:57:29Z</time>
      </trkpt>
      <trkpt lat="48.52539" lon="-2.62987">
        <ele>21</ele>
        <time>2016-02-19T09:57:33Z</time>
      </trkpt>
      <trkpt lat="48.52533" lon="-2.62989">
        <ele>21</ele>
        <time>2016-02-19T09:57:37Z</time>
      </trkpt>
      <trkpt lat="48.52529" lon="-2.62989">
        <ele>21</ele>
        <time>2016-02-19T09:57:40Z</time>
      </trkpt>
      <trkpt lat="48.52524" lon="-2.6299">
        <ele>21</ele>
        <time>2016-02-19T09:57:43Z</time>
      </trkpt>
      <trkpt lat="48.5252" lon="-2.6299">
        <ele>21</ele>
        <time>2016-02-19T09:57:46Z</time>
      </trkpt>
      <trkpt lat="48.52513" lon="-2.62991">
        <ele>21</ele>
        <time>2016-02-19T09:57:50Z</time>
      </trkpt>
      <trkpt lat="48.52509" lon="-2.6299">
        <ele>21</ele>
        <time>2016-02-19T09:57:53Z</time>
      </trkpt>
      <trkpt lat="48.52505" lon="-2.62992">
        <ele>21</ele>
        <time>2016-02-19T09:57:57Z</time>
      </trkpt>
      <trkpt lat="48.52501" lon="-2.62989">
        <ele>21</ele>
        <time>2016-02-19T09:58:01Z</time>
      </trkpt>
      <trkpt lat="48.52497" lon="-2.62988">
        <ele>21</ele>
        <time>2016-02-19T09:58:04Z</time>
      </trkpt>
      <trkpt lat="48.52491" lon="-2.62987">
        <ele>21</ele>
        <time>2016-02-19T09:58:08Z</time>
      </trkpt>
      <trkpt lat="48.52486" lon="-2.62985">
        <ele>21</ele>
        <time>2016-02-19T09:58:12Z</time>
      </trkpt>
      <trkpt lat="48.52481" lon="-2.62983">
        <ele>21</ele>
        <time>2016-02-19T09:58:16Z</time>
      </trkpt>
      <trkpt lat="48.52477" lon="-2.62982">
        <ele>21</ele>
        <time>2016-02-19T09:58:19Z</time>
      </trkpt>
      <trkpt lat="48.52472" lon="-2.62977">
        <ele>21</ele>
        <time>2016-02-19T09:58:23Z</time>
      </trkpt>
      <trkpt lat="48.52466" lon="-2.62971">
        <ele>21</ele>
        <time>2016-02-19T09:58:28Z</time>
      </trkpt>
      <trkpt lat="48.52462" lon="-2.62964">
        <ele>21</ele>
        <time>2016-02-19T09:58:32Z</time>
      </trkpt>
      <trkpt lat="48.5246" lon="-2.62959">
        <ele>21</ele>
        <time>2016-02-19T09:58:35Z</time>
      </trkpt>
      <trkpt lat="48.52456" lon="-2.62954">
        <ele>21</ele>
        <time>2016-02-19T09:58:38Z</time>
      </trkpt>
      <trkpt lat="48.52453" lon="-2.62948">
        <ele>21</ele>
        <time>2016-02-19T09:58:42Z</time>
      </trkpt>
      <trkpt lat="48.5245" lon="-2.62942">
        <ele>20</ele>
        <time>2016-02-19T09:58:45Z</time>
      </trkpt>
      <trkpt lat="48.52448" lon="-2.62936">
        <ele>20</ele>
        <time>2016-02-19T09:58:48Z</time>
      </trkpt>
      <trkpt lat="48.52445" lon="-2.62929">
        <ele>19</ele>
        <time>2016-02-19T09:58:51Z</time>
      </trkpt>
      <trkpt lat="48.52442" lon="-2.6292">
        <ele>18</ele>
        <time>2016-02-19T09:58:55Z</time>
      </trkpt>
      <trkpt lat="48.52442" lon="-2.62914">
        <ele>18</ele>
        <time>2016-02-19T09:58:58Z</time>
      </trkpt>
      <trkpt lat="48.5244" lon="-2.62907">
        <ele>17</ele>
        <time>2016-02-19T09:59:02Z</time>
      </trkpt>
      <trkpt lat="48.52437" lon="-2.62901">
        <ele>17</ele>
        <time>2016-02-19T09:59:05Z</time>
      </trkpt>
      <trkpt lat="48.52435" lon="-2.62894">
        <ele>17</ele>
        <time>2016-02-19T09:59:09Z</time>
      </trkpt>
      <trkpt lat="48.52435" lon="-2.6289">
        <ele>17</ele>
        <time>2016-02-19T09:59:12Z</time>
      </trkpt>
      <trkpt lat="48.52433" lon="-2.62883">
        <ele>16</ele>
        <time>2016-02-19T09:59:15Z</time>
      </trkpt>
      <trkpt lat="48.52431" lon="-2.62876">
        <ele>15</ele>
        <time>2016-02-19T09:59:19Z</time>
      </trkpt>
      <trkpt lat="48.52429" lon="-2.62869">
        <ele>15</ele>
        <time>2016-02-19T09:59:23Z</time>
      </trkpt>
      <trkpt lat="48.5243" lon="-2.62863">
        <ele>15</ele>
        <time>2016-02-19T09:59:26Z</time>
      </trkpt>
      <trkpt lat="48.52429" lon="-2.62857">
        <ele>14</ele>
        <time>2016-02-19T09:59:29Z</time>
      </trkpt>
      <trkpt lat="48.52428" lon="-2.6285">
        <ele>13</ele>
        <time>2016-02-19T09:59:32Z</time>
      </trkpt>
      <trkpt lat="48.52426" lon="-2.62845">
        <ele>12</ele>
        <time>2016-02-19T09:59:35Z</time>
      </trkpt>
      <trkpt lat="48.52424" lon="-2.62838">
        <ele>11</ele>
        <time>2016-02-19T09:59:39Z</time>
      </trkpt>
      <trkpt lat="48.52423" lon="-2.62832">
        <ele>10</ele>
        <time>2016-02-19T09:59:42Z</time>
      </trkpt>
      <trkpt lat="48.5242" lon="-2.62827">
        <ele>10</ele>
        <time>2016-02-19T09:59:45Z</time>
      </trkpt>
      <trkpt lat="48.52417" lon="-2.62825">
        <ele>10</ele>
        <time>2016-02-19T09:59:48Z</time>
      </trkpt>
      <trkpt lat="48.52415" lon="-2.6282">
        <ele>10</ele>
        <time>2016-02-19T09:59:51Z</time>
      </trkpt>
      <trkpt lat="48.52412" lon="-2.62816">
        <ele>10</ele>
        <time>2016-02-19T09:59:54Z</time>
      </trkpt>
      <trkpt lat="48.52408" lon="-2.62812">
        <ele>10</ele>
        <time>2016-02-19T09:59:58Z</time>
      </trkpt>
      <trkpt lat="48.52406" lon="-2.62808">
        <ele>10</ele>
        <time>2016-02-19T10:00:01Z</time>
      </trkpt>
      <trkpt lat="48.52402" lon="-2.62804">
        <ele>10</ele>
        <time>2016-02-19T10:00:05Z</time>
      </trkpt>
      <trkpt lat="48.52399" lon="-2.628">
        <ele>11</ele>
        <time>2016-02-19T10:00:09Z</time>
      </trkpt>
      <trkpt lat="48.52396" lon="-2.62795">
        <ele>13</ele>
        <time>2016-02-19T10:00:13Z</time>
      </trkpt>
      <trkpt lat="48.52393" lon="-2.62793">
        <ele>13</ele>
        <time>2016-02-19T10:00:17Z</time>
      </trkpt>
      <trkpt lat="48.5239" lon="-2.6279">
        <ele>14</ele>
        <time>2016-02-19T10:00:22Z</time>
      </trkpt>
      <trkpt lat="48.52389" lon="-2.62791">
        <ele>15</ele>
        <time>2016-02-19T10:00:25Z</time>
      </trkpt>
      <trkpt lat="48.52386" lon="-2.62792">
        <ele>16</ele>
        <time>2016-02-19T10:00:30Z</time>
      </trkpt>
      <trkpt lat="48.52385" lon="-2.62793">
        <ele>17</ele>
        <time>2016-02-19T10:00:33Z</time>
      </trkpt>
      <trkpt lat="48.52382" lon="-2.62797">
        <ele>19</ele>
        <time>2016-02-19T10:00:39Z</time>
      </trkpt>
      <trkpt lat="48.52379" lon="-2.62799">
        <ele>21</ele>
        <time>2016-02-19T10:00:45Z</time>
      </trkpt>
      <trkpt lat="48.52376" lon="-2.62802">
        <ele>22</ele>
        <time>2016-02-19T10:00:51Z</time>
      </trkpt>
      <trkpt lat="48.52373" lon="-2.62806">
        <ele>24</ele>
        <time>2016-02-19T10:00:57Z</time>
      </trkpt>
      <trkpt lat="48.5237" lon="-2.62809">
        <ele>24</ele>
        <time>2016-02-19T10:01:01Z</time>
      </trkpt>
      <trkpt lat="48.52368" lon="-2.62811">
        <ele>25</ele>
        <time>2016-02-19T10:01:06Z</time>
      </trkpt>
      <trkpt lat="48.52367" lon="-2.62814">
        <ele>26</ele>
        <time>2016-02-19T10:01:10Z</time>
      </trkpt>
      <trkpt lat="48.52364" lon="-2.62818">
        <ele>26</ele>
        <time>2016-02-19T10:01:16Z</time>
      </trkpt>
      <trkpt lat="48.52362" lon="-2.62822">
        <ele>28</ele>
        <time>2016-02-19T10:01:22Z</time>
      </trkpt>
      <trkpt lat="48.52359" lon="-2.62825">
        <ele>28</ele>
        <time>2016-02-19T10:01:27Z</time>
      </trkpt>
      <trkpt lat="48.52357" lon="-2.62829">
        <ele>30</ele>
        <time>2016-02-19T10:01:34Z</time>
      </trkpt>
      <trkpt lat="48.52355" lon="-2.62832">
        <ele>31</ele>
        <time>2016-02-19T10:01:41Z</time>
      </trkpt>
      <trkpt lat="48.52353" lon="-2.62836">
        <ele>32</ele>
        <time>2016-02-19T10:01:45Z</time>
      </trkpt>
      <trkpt lat="48.52351" lon="-2.62839">
        <ele>33</ele>
        <time>2016-02-19T10:01:48Z</time>
      </trkpt>
      <trkpt lat="48.52346" lon="-2.62843">
        <ele>34</ele>
        <time>2016-02-19T10:01:52Z</time>
      </trkpt>
      <trkpt lat="48.52343" lon="-2.62846">
        <ele>36</ele>
        <time>2016-02-19T10:01:55Z</time>
      </trkpt>
      <trkpt lat="48.52337" lon="-2.62851">
        <ele>37</ele>
        <time>2016-02-19T10:01:59Z</time>
      </trkpt>
      <trkpt lat="48.52334" lon="-2.62854">
        <ele>38</ele>
        <time>2016-02-19T10:02:03Z</time>
      </trkpt>
      <trkpt lat="48.52331" lon="-2.62858">
        <ele>39</ele>
        <time>2016-02-19T10:02:07Z</time>
      </trkpt>
      <trkpt lat="48.52326" lon="-2.62862">
        <ele>41</ele>
        <time>2016-02-19T10:02:12Z</time>
      </trkpt>
      <trkpt lat="48.52323" lon="-2.62865">
        <ele>42</ele>
        <time>2016-02-19T10:02:16Z</time>
      </trkpt>
      <trkpt lat="48.52319" lon="-2.62871">
        <ele>42</ele>
        <time>2016-02-19T10:02:20Z</time>
      </trkpt>
      <trkpt lat="48.52317" lon="-2.62877">
        <ele>42</ele>
        <time>2016-02-19T10:02:23Z</time>
      </trkpt>
      <trkpt lat="48.52312" lon="-2.62882">
        <ele>42</ele>
        <time>2016-02-19T10:02:27Z</time>
      </trkpt>
      <trkpt lat="48.52308" lon="-2.62885">
        <ele>42</ele>
        <time>2016-02-19T10:02:31Z</time>
      </trkpt>
      <trkpt lat="48.52303" lon="-2.62889">
        <ele>42</ele>
        <time>2016-02-19T10:02:34Z</time>
      </trkpt>
      <trkpt lat="48.523" lon="-2.62894">
        <ele>42</ele>
        <time>2016-02-19T10:02:38Z</time>
      </trkpt>
      <trkpt lat="48.52297" lon="-2.62899">
        <ele>42</ele>
        <time>2016-02-19T10:02:42Z</time>
      </trkpt>
      <trkpt lat="48.52294" lon="-2.62904">
        <ele>42</ele>
        <time>2016-02-19T10:02:46Z</time>
      </trkpt>
      <trkpt lat="48.52292" lon="-2.62908">
        <ele>42</ele>
        <time>2016-02-19T10:02:50Z</time>
      </trkpt>
      <trkpt lat="48.52289" lon="-2.62909">
        <ele>42</ele>
        <time>2016-02-19T10:02:54Z</time>
      </trkpt>
      <trkpt lat="48.52286" lon="-2.62911">
        <ele>42</ele>
        <time>2016-02-19T10:02:58Z</time>
      </trkpt>
      <trkpt lat="48.52283" lon="-2.62913">
        <ele>42</ele>
        <time>2016-02-19T10:03:02Z</time>
      </trkpt>
      <trkpt lat="48.52279" lon="-2.62913">
        <ele>41</ele>
        <time>2016-02-19T10:03:06Z</time>
      </trkpt>
      <trkpt lat="48.52276" lon="-2.62912">
        <ele>40</ele>
        <time>2016-02-19T10:03:10Z</time>
      </trkpt>
      <trkpt lat="48.52272" lon="-2.62912">
        <ele>39</ele>
        <time>2016-02-19T10:03:14Z</time>
      </trkpt>
      <trkpt lat="48.5227" lon="-2.62913">
        <ele>37</ele>
        <time>2016-02-19T10:03:17Z</time>
      </trkpt>
      <trkpt lat="48.52266" lon="-2.62914">
        <ele>35</ele>
        <time>2016-02-19T10:03:21Z</time>
      </trkpt>
      <trkpt lat="48.52262" lon="-2.62916">
        <ele>34</ele>
        <time>2016-02-19T10:03:25Z</time>
      </trkpt>
      <trkpt lat="48.52258" lon="-2.62918">
        <ele>32</ele>
        <time>2016-02-19T10:03:29Z</time>
      </trkpt>
      <trkpt lat="48.52255" lon="-2.62922">
        <ele>30</ele>
        <time>2016-02-19T10:03:33Z</time>
      </trkpt>
      <trkpt lat="48.52251" lon="-2.62927">
        <ele>29</ele>
        <time>2016-02-19T10:03:37Z</time>
      </trkpt>
      <trkpt lat="48.52247" lon="-2.62932">
        <ele>28</ele>
        <time>2016-02-19T10:03:41Z</time>
      </trkpt>
      <trkpt lat="48.52242" lon="-2.62937">
        <ele>28</ele>
        <time>2016-02-19T10:03:45Z</time>
      </trkpt>
      <trkpt lat="48.52238" lon="-2.62941">
        <ele>28</ele>
        <time>2016-02-19T10:03:50Z</time>
      </trkpt>
      <trkpt lat="48.52235" lon="-2.62942">
        <ele>28</ele>
        <time>2016-02-19T10:03:54Z</time>
      </trkpt>
      <trkpt lat="48.5223" lon="-2.62942">
        <ele>28</ele>
        <time>2016-02-19T10:03:58Z</time>
      </trkpt>
      <trkpt lat="48.52227" lon="-2.62942">
        <ele>27</ele>
        <time>2016-02-19T10:04:01Z</time>
      </trkpt>
      <trkpt lat="48.52224" lon="-2.62941">
        <ele>25</ele>
        <time>2016-02-19T10:04:05Z</time>
      </trkpt>
      <trkpt lat="48.5222" lon="-2.62941">
        <ele>23</ele>
        <time>2016-02-19T10:04:08Z</time>
      </trkpt>
      <trkpt lat="48.52216" lon="-2.62941">
        <ele>23</ele>
        <time>2016-02-19T10:04:11Z</time>
      </trkpt>
      <trkpt lat="48.5221" lon="-2.62942">
        <ele>22</ele>
        <time>2016-02-19T10:04:15Z</time>
      </trkpt>
      <trkpt lat="48.52206" lon="-2.62941">
        <ele>22</ele>
        <time>2016-02-19T10:04:18Z</time>
      </trkpt>
      <trkpt lat="48.52202" lon="-2.6294">
        <ele>22</ele>
        <time>2016-02-19T10:04:22Z</time>
      </trkpt>
      <trkpt lat="48.52197" lon="-2.6294">
        <ele>20</ele>
        <time>2016-02-19T10:04:26Z</time>
      </trkpt>
      <trkpt lat="48.52192" lon="-2.62938">
        <ele>18</ele>
        <time>2016-02-19T10:04:30Z</time>
      </trkpt>
      <trkpt lat="48.52187" lon="-2.62937">
        <ele>15</ele>
        <time>2016-02-19T10:04:34Z</time>
      </trkpt>
      <trkpt lat="48.52183" lon="-2.62937">
        <ele>15</ele>
        <time>2016-02-19T10:04:37Z</time>
      </trkpt>
      <trkpt lat="48.52178" lon="-2.62938">
        <ele>15</ele>
        <time>2016-02-19T10:04:40Z</time>
      </trkpt>
      <trkpt lat="48.52173" lon="-2.62939">
        <ele>15</ele>
        <time>2016-02-19T10:04:44Z</time>
      </trkpt>
      <trkpt lat="48.52168" lon="-2.62939">
        <ele>15</ele>
        <time>2016-02-19T10:04:47Z</time>
      </trkpt>
      <trkpt lat="48.52164" lon="-2.62942">
        <ele>15</ele>
        <time>2016-02-19T10:04:50Z</time>
      </trkpt>
      <trkpt lat="48.5216" lon="-2.62943">
        <ele>14</ele>
        <time>2016-02-19T10:04:54Z</time>
      </trkpt>
      <trkpt lat="48.52155" lon="-2.62944">
        <ele>13</ele>
        <time>2016-02-19T10:04:57Z</time>
      </trkpt>
      <trkpt lat="48.52151" lon="-2.62947">
        <ele>12</ele>
        <time>2016-02-19T10:05:00Z</time>
      </trkpt>
      <trkpt lat="48.52146" lon="-2.62945">
        <ele>9</ele>
        <time>2016-02-19T10:05:05Z</time>
      </trkpt>
      <trkpt lat="48.5214" lon="-2.62946">
        <ele>6</ele>
        <time>2016-02-19T10:05:09Z</time>
      </trkpt>
      <trkpt lat="48.52135" lon="-2.62945">
        <ele>3</ele>
        <time>2016-02-19T10:05:12Z</time>
      </trkpt>
      <trkpt lat="48.52132" lon="-2.62946">
        <ele>3</ele>
        <time>2016-02-19T10:05:15Z</time>
      </trkpt>
      <trkpt lat="48.52128" lon="-2.62946">
        <ele>2</ele>
        <time>2016-02-19T10:05:18Z</time>
      </trkpt>
      <trkpt lat="48.52123" lon="-2.62945">
        <ele>9</ele>
        <time>2016-02-19T10:05:22Z</time>
      </trkpt>
      <trkpt lat="48.52116" lon="-2.62946">
        <ele>8.8</ele>
        <time>2016-02-19T10:05:26Z</time>
      </trkpt>
      <trkpt lat="48.52113" lon="-2.62946">
        <ele>8.6</ele>
        <time>2016-02-19T10:05:29Z</time>
      </trkpt>
      <trkpt lat="48.5211" lon="-2.62946">
        <ele>8.5</ele>
        <time>2016-02-19T10:05:32Z</time>
      </trkpt>
      <trkpt lat="48.52107" lon="-2.62943">
        <ele>5</ele>
        <time>2016-02-19T10:05:41Z</time>
      </trkpt>
      <trkpt lat="48.52107" lon="-2.62938">
        <ele>5</ele>
        <time>2016-02-19T10:05:45Z</time>
      </trkpt>
      <trkpt lat="48.5211" lon="-2.62936">
        <ele>7</ele>
        <time>2016-02-19T10:05:50Z</time>
      </trkpt>
      <trkpt lat="48.52113" lon="-2.62936">
        <ele>8</ele>
        <time>2016-02-19T10:05:54Z</time>
      </trkpt>
      <trkpt lat="48.52115" lon="-2.62937">
        <ele>9</ele>
        <time>2016-02-19T10:06:00Z</time>
      </trkpt>
      <trkpt lat="48.52119" lon="-2.62941">
        <ele>11</ele>
        <time>2016-02-19T10:06:04Z</time>
      </trkpt>
      <trkpt lat="48.52118" lon="-2.62939">
        <ele>12</ele>
        <time>2016-02-19T10:06:12Z</time>
      </trkpt>
      <trkpt lat="48.52115" lon="-2.62935">
        <ele>13</ele>
        <time>2016-02-19T10:06:17Z</time>
      </trkpt>
      <trkpt lat="48.52112" lon="-2.62933">
        <ele>14</ele>
        <time>2016-02-19T10:06:20Z</time>
      </trkpt>
      <trkpt lat="48.52109" lon="-2.6293">
        <ele>16</ele>
        <time>2016-02-19T10:06:24Z</time>
      </trkpt>
      <trkpt lat="48.52106" lon="-2.6293">
        <ele>16</ele>
        <time>2016-02-19T10:06:28Z</time>
      </trkpt>
      <trkpt lat="48.52102" lon="-2.62929">
        <ele>16</ele>
        <time>2016-02-19T10:06:32Z</time>
      </trkpt>
      <trkpt lat="48.52099" lon="-2.62929">
        <ele>16</ele>
        <time>2016-02-19T10:06:36Z</time>
      </trkpt>
      <trkpt lat="48.52095" lon="-2.62929">
        <ele>16</ele>
        <time>2016-02-19T10:06:40Z</time>
      </trkpt>
      <trkpt lat="48.52093" lon="-2.62931">
        <ele>16</ele>
        <time>2016-02-19T10:06:44Z</time>
      </trkpt>
      <trkpt lat="48.52091" lon="-2.62931">
        <ele>16</ele>
        <time>2016-02-19T10:06:49Z</time>
      </trkpt>
      <trkpt lat="48.52091" lon="-2.6293">
        <ele>16</ele>
        <time>2016-02-19T10:06:54Z</time>
      </trkpt>
      <trkpt lat="48.52092" lon="-2.62928">
        <ele>16</ele>
        <time>2016-02-19T10:07:06Z</time>
      </trkpt>
      <trkpt lat="48.52093" lon="-2.62925">
        <ele>16</ele>
        <time>2016-02-19T10:07:10Z</time>
      </trkpt>
      <trkpt lat="48.52093" lon="-2.62922">
        <ele>16</ele>
        <time>2016-02-19T10:07:14Z</time>
      </trkpt>
      <trkpt lat="48.52095" lon="-2.62919">
        <ele>17</ele>
        <time>2016-02-19T10:07:17Z</time>
      </trkpt>
      <trkpt lat="48.52097" lon="-2.62914">
        <ele>17</ele>
        <time>2016-02-19T10:07:20Z</time>
      </trkpt>
      <trkpt lat="48.521" lon="-2.62909">
        <ele>17</ele>
        <time>2016-02-19T10:07:24Z</time>
      </trkpt>
      <trkpt lat="48.52102" lon="-2.62906">
        <ele>17</ele>
        <time>2016-02-19T10:07:27Z</time>
      </trkpt>
      <trkpt lat="48.52105" lon="-2.62904">
        <ele>17</ele>
        <time>2016-02-19T10:07:30Z</time>
      </trkpt>
      <trkpt lat="48.52107" lon="-2.62901">
        <ele>17</ele>
        <time>2016-02-19T10:07:33Z</time>
      </trkpt>
      <trkpt lat="48.52111" lon="-2.62895">
        <ele>17</ele>
        <time>2016-02-19T10:07:38Z</time>
      </trkpt>
      <trkpt lat="48.52113" lon="-2.6289">
        <ele>17</ele>
        <time>2016-02-19T10:07:41Z</time>
      </trkpt>
      <trkpt lat="48.52115" lon="-2.62884">
        <ele>17</ele>
        <time>2016-02-19T10:07:44Z</time>
      </trkpt>
      <trkpt lat="48.52118" lon="-2.62877">
        <ele>17</ele>
        <time>2016-02-19T10:07:48Z</time>
      </trkpt>
      <trkpt lat="48.52121" lon="-2.62871">
        <ele>17</ele>
        <time>2016-02-19T10:07:53Z</time>
      </trkpt>
      <trkpt lat="48.52122" lon="-2.62869">
        <ele>17</ele>
        <time>2016-02-19T10:07:56Z</time>
      </trkpt>
      <trkpt lat="48.52122" lon="-2.62866">
        <ele>17</ele>
        <time>2016-02-19T10:07:59Z</time>
      </trkpt>
      <trkpt lat="48.52123" lon="-2.62864">
        <ele>17</ele>
        <time>2016-02-19T10:08:02Z</time>
      </trkpt>
      <trkpt lat="48.52124" lon="-2.62863">
        <ele>17</ele>
        <time>2016-02-19T10:08:05Z</time>
      </trkpt>
      <trkpt lat="48.52124" lon="-2.6286">
        <ele>19</ele>
        <time>2016-02-19T10:08:08Z</time>
      </trkpt>
      <trkpt lat="48.52126" lon="-2.62857">
        <ele>21</ele>
        <time>2016-02-19T10:08:12Z</time>
      </trkpt>
      <trkpt lat="48.52127" lon="-2.62852">
        <ele>21</ele>
        <time>2016-02-19T10:08:16Z</time>
      </trkpt>
      <trkpt lat="48.52129" lon="-2.62851">
        <ele>21</ele>
        <time>2016-02-19T10:08:20Z</time>
      </trkpt>
      <trkpt lat="48.52129" lon="-2.62849">
        <ele>22</ele>
        <time>2016-02-19T10:08:23Z</time>
      </trkpt>
      <trkpt lat="48.5213" lon="-2.62846">
        <ele>23</ele>
        <time>2016-02-19T10:08:26Z</time>
      </trkpt>
      <trkpt lat="48.52133" lon="-2.6284">
        <ele>23</ele>
        <time>2016-02-19T10:08:30Z</time>
      </trkpt>
      <trkpt lat="48.52134" lon="-2.62832">
        <ele>23</ele>
        <time>2016-02-19T10:08:35Z</time>
      </trkpt>
      <trkpt lat="48.52132" lon="-2.62824">
        <ele>23</ele>
        <time>2016-02-19T10:08:40Z</time>
      </trkpt>
      <trkpt lat="48.52131" lon="-2.6282">
        <ele>22</ele>
        <time>2016-02-19T10:08:43Z</time>
      </trkpt>
      <trkpt lat="48.52129" lon="-2.62815">
        <ele>21</ele>
        <time>2016-02-19T10:08:46Z</time>
      </trkpt>
      <trkpt lat="48.52127" lon="-2.62809">
        <ele>21</ele>
        <time>2016-02-19T10:08:49Z</time>
      </trkpt>
      <trkpt lat="48.52126" lon="-2.62804">
        <ele>20</ele>
        <time>2016-02-19T10:08:52Z</time>
      </trkpt>
      <trkpt lat="48.52125" lon="-2.62799">
        <ele>19</ele>
        <time>2016-02-19T10:08:56Z</time>
      </trkpt>
      <trkpt lat="48.52122" lon="-2.62794">
        <ele>18</ele>
        <time>2016-02-19T10:08:59Z</time>
      </trkpt>
      <trkpt lat="48.52121" lon="-2.6279">
        <ele>18</ele>
        <time>2016-02-19T10:09:02Z</time>
      </trkpt>
      <trkpt lat="48.5212" lon="-2.62783">
        <ele>18</ele>
        <time>2016-02-19T10:09:05Z</time>
      </trkpt>
      <trkpt lat="48.52119" lon="-2.62776">
        <ele>17</ele>
        <time>2016-02-19T10:09:09Z</time>
      </trkpt>
      <trkpt lat="48.52117" lon="-2.62772">
        <ele>17</ele>
        <time>2016-02-19T10:09:13Z</time>
      </trkpt>
      <trkpt lat="48.52115" lon="-2.62769">
        <ele>17</ele>
        <time>2016-02-19T10:09:17Z</time>
      </trkpt>
      <trkpt lat="48.52112" lon="-2.62764">
        <ele>17</ele>
        <time>2016-02-19T10:09:22Z</time>
      </trkpt>
      <trkpt lat="48.52111" lon="-2.62759">
        <ele>17</ele>
        <time>2016-02-19T10:09:26Z</time>
      </trkpt>
      <trkpt lat="48.52113" lon="-2.62755">
        <ele>17</ele>
        <time>2016-02-19T10:09:31Z</time>
      </trkpt>
      <trkpt lat="48.52114" lon="-2.62751">
        <ele>17</ele>
        <time>2016-02-19T10:09:35Z</time>
      </trkpt>
      <trkpt lat="48.52116" lon="-2.62747">
        <ele>17</ele>
        <time>2016-02-19T10:09:40Z</time>
      </trkpt>
      <trkpt lat="48.52117" lon="-2.62743">
        <ele>17</ele>
        <time>2016-02-19T10:09:44Z</time>
      </trkpt>
      <trkpt lat="48.52118" lon="-2.62742">
        <ele>17</ele>
        <time>2016-02-19T10:09:47Z</time>
      </trkpt>
      <trkpt lat="48.52119" lon="-2.62741">
        <ele>17</ele>
        <time>2016-02-19T10:09:50Z</time>
      </trkpt>
      <trkpt lat="48.5212" lon="-2.62739">
        <ele>16</ele>
        <time>2016-02-19T10:09:53Z</time>
      </trkpt>
      <trkpt lat="48.52121" lon="-2.62734">
        <ele>15</ele>
        <time>2016-02-19T10:09:57Z</time>
      </trkpt>
      <trkpt lat="48.52122" lon="-2.62728">
        <ele>14</ele>
        <time>2016-02-19T10:10:00Z</time>
      </trkpt>
      <trkpt lat="48.52123" lon="-2.62721">
        <ele>13</ele>
        <time>2016-02-19T10:10:05Z</time>
      </trkpt>
      <trkpt lat="48.52121" lon="-2.62716">
        <ele>13</ele>
        <time>2016-02-19T10:10:09Z</time>
      </trkpt>
      <trkpt lat="48.52122" lon="-2.62711">
        <ele>13</ele>
        <time>2016-02-19T10:10:12Z</time>
      </trkpt>
      <trkpt lat="48.52121" lon="-2.62705">
        <ele>13</ele>
        <time>2016-02-19T10:10:15Z</time>
      </trkpt>
      <trkpt lat="48.5212" lon="-2.62699">
        <ele>13</ele>
        <time>2016-02-19T10:10:19Z</time>
      </trkpt>
      <trkpt lat="48.52118" lon="-2.62693">
        <ele>13</ele>
        <time>2016-02-19T10:10:22Z</time>
      </trkpt>
      <trkpt lat="48.52118" lon="-2.62686">
        <ele>13</ele>
        <time>2016-02-19T10:10:26Z</time>
      </trkpt>
      <trkpt lat="48.52118" lon="-2.62681">
        <ele>13</ele>
        <time>2016-02-19T10:10:29Z</time>
      </trkpt>
      <trkpt lat="48.52117" lon="-2.62675">
        <ele>13</ele>
        <time>2016-02-19T10:10:33Z</time>
      </trkpt>
      <trkpt lat="48.52118" lon="-2.62671">
        <ele>13</ele>
        <time>2016-02-19T10:10:37Z</time>
      </trkpt>
      <trkpt lat="48.52119" lon="-2.62665">
        <ele>13</ele>
        <time>2016-02-19T10:10:41Z</time>
      </trkpt>
      <trkpt lat="48.52122" lon="-2.62662">
        <ele>13</ele>
        <time>2016-02-19T10:10:45Z</time>
      </trkpt>
      <trkpt lat="48.52126" lon="-2.62658">
        <ele>12</ele>
        <time>2016-02-19T10:10:49Z</time>
      </trkpt>
      <trkpt lat="48.52126" lon="-2.62656">
        <ele>12</ele>
        <time>2016-02-19T10:10:52Z</time>
      </trkpt>
      <trkpt lat="48.52126" lon="-2.6265">
        <ele>11</ele>
        <time>2016-02-19T10:10:55Z</time>
      </trkpt>
      <trkpt lat="48.52126" lon="-2.62644">
        <ele>11</ele>
        <time>2016-02-19T10:10:58Z</time>
      </trkpt>
      <trkpt lat="48.52126" lon="-2.62638">
        <ele>11</ele>
        <time>2016-02-19T10:11:01Z</time>
      </trkpt>
      <trkpt lat="48.52128" lon="-2.62634">
        <ele>11</ele>
        <time>2016-02-19T10:11:04Z</time>
      </trkpt>
      <trkpt lat="48.52129" lon="-2.62628">
        <ele>11</ele>
        <time>2016-02-19T10:11:08Z</time>
      </trkpt>
      <trkpt lat="48.52133" lon="-2.62624">
        <ele>11</ele>
        <time>2016-02-19T10:11:12Z</time>
      </trkpt>
      <trkpt lat="48.52134" lon="-2.62621">
        <ele>11</ele>
        <time>2016-02-19T10:11:16Z</time>
      </trkpt>
      <trkpt lat="48.52134" lon="-2.62616">
        <ele>11</ele>
        <time>2016-02-19T10:11:20Z</time>
      </trkpt>
      <trkpt lat="48.52132" lon="-2.62611">
        <ele>11</ele>
        <time>2016-02-19T10:11:24Z</time>
      </trkpt>
      <trkpt lat="48.52132" lon="-2.62606">
        <ele>11</ele>
        <time>2016-02-19T10:11:28Z</time>
      </trkpt>
      <trkpt lat="48.52132" lon="-2.62601">
        <ele>11</ele>
        <time>2016-02-19T10:11:32Z</time>
      </trkpt>
      <trkpt lat="48.52134" lon="-2.62596">
        <ele>11</ele>
        <time>2016-02-19T10:11:36Z</time>
      </trkpt>
      <trkpt lat="48.52134" lon="-2.62591">
        <ele>11</ele>
        <time>2016-02-19T10:11:40Z</time>
      </trkpt>
      <trkpt lat="48.52134" lon="-2.62585">
        <ele>11</ele>
        <time>2016-02-19T10:11:44Z</time>
      </trkpt>
      <trkpt lat="48.52134" lon="-2.62581">
        <ele>11</ele>
        <time>2016-02-19T10:11:48Z</time>
      </trkpt>
      <trkpt lat="48.52134" lon="-2.62575">
        <ele>11</ele>
        <time>2016-02-19T10:11:51Z</time>
      </trkpt>
      <trkpt lat="48.52134" lon="-2.62568">
        <ele>11</ele>
        <time>2016-02-19T10:11:55Z</time>
      </trkpt>
      <trkpt lat="48.52134" lon="-2.62562">
        <ele>13</ele>
        <time>2016-02-19T10:11:58Z</time>
      </trkpt>
      <trkpt lat="48.52134" lon="-2.62557">
        <ele>14</ele>
        <time>2016-02-19T10:12:01Z</time>
      </trkpt>
      <trkpt lat="48.52134" lon="-2.62551">
        <ele>15</ele>
        <time>2016-02-19T10:12:04Z</time>
      </trkpt>
      <trkpt lat="48.52135" lon="-2.62547">
        <ele>16</ele>
        <time>2016-02-19T10:12:07Z</time>
      </trkpt>
      <trkpt lat="48.52136" lon="-2.62542">
        <ele>16</ele>
        <time>2016-02-19T10:12:10Z</time>
      </trkpt>
      <trkpt lat="48.52136" lon="-2.62537">
        <ele>16</ele>
        <time>2016-02-19T10:12:13Z</time>
      </trkpt>
      <trkpt lat="48.52138" lon="-2.62533">
        <ele>16</ele>
        <time>2016-02-19T10:12:16Z</time>
      </trkpt>
      <trkpt lat="48.52141" lon="-2.62528">
        <ele>16</ele>
        <time>2016-02-19T10:12:19Z</time>
      </trkpt>
      <trkpt lat="48.52144" lon="-2.62522">
        <ele>16</ele>
        <time>2016-02-19T10:12:22Z</time>
      </trkpt>
      <trkpt lat="48.52144" lon="-2.62517">
        <ele>16</ele>
        <time>2016-02-19T10:12:25Z</time>
      </trkpt>
      <trkpt lat="48.52144" lon="-2.6251">
        <ele>16</ele>
        <time>2016-02-19T10:12:29Z</time>
      </trkpt>
      <trkpt lat="48.52144" lon="-2.62505">
        <ele>16</ele>
        <time>2016-02-19T10:12:32Z</time>
      </trkpt>
      <trkpt lat="48.52145" lon="-2.62501">
        <ele>16</ele>
        <time>2016-02-19T10:12:35Z</time>
      </trkpt>
      <trkpt lat="48.52144" lon="-2.62495">
        <ele>16</ele>
        <time>2016-02-19T10:12:38Z</time>
      </trkpt>
      <trkpt lat="48.52143" lon="-2.6249">
        <ele>16</ele>
        <time>2016-02-19T10:12:41Z</time>
      </trkpt>
      <trkpt lat="48.52143" lon="-2.62485">
        <ele>16</ele>
        <time>2016-02-19T10:12:45Z</time>
      </trkpt>
      <trkpt lat="48.52142" lon="-2.6248">
        <ele>18</ele>
        <time>2016-02-19T10:12:48Z</time>
      </trkpt>
      <trkpt lat="48.5214" lon="-2.62477">
        <ele>20</ele>
        <time>2016-02-19T10:12:51Z</time>
      </trkpt>
      <trkpt lat="48.52142" lon="-2.62473">
        <ele>21</ele>
        <time>2016-02-19T10:12:54Z</time>
      </trkpt>
      <trkpt lat="48.52142" lon="-2.62467">
        <ele>22</ele>
        <time>2016-02-19T10:12:57Z</time>
      </trkpt>
      <trkpt lat="48.52142" lon="-2.62462">
        <ele>22</ele>
        <time>2016-02-19T10:13:00Z</time>
      </trkpt>
      <trkpt lat="48.5214" lon="-2.62456">
        <ele>23</ele>
        <time>2016-02-19T10:13:03Z</time>
      </trkpt>
      <trkpt lat="48.5214" lon="-2.62451">
        <ele>24</ele>
        <time>2016-02-19T10:13:06Z</time>
      </trkpt>
      <trkpt lat="48.52136" lon="-2.62446">
        <ele>25</ele>
        <time>2016-02-19T10:13:09Z</time>
      </trkpt>
      <trkpt lat="48.52133" lon="-2.62441">
        <ele>26</ele>
        <time>2016-02-19T10:13:13Z</time>
      </trkpt>
      <trkpt lat="48.52131" lon="-2.62437">
        <ele>26</ele>
        <time>2016-02-19T10:13:16Z</time>
      </trkpt>
      <trkpt lat="48.52128" lon="-2.62432">
        <ele>26</ele>
        <time>2016-02-19T10:13:20Z</time>
      </trkpt>
      <trkpt lat="48.52126" lon="-2.62427">
        <ele>27</ele>
        <time>2016-02-19T10:13:24Z</time>
      </trkpt>
      <trkpt lat="48.52124" lon="-2.62421">
        <ele>27</ele>
        <time>2016-02-19T10:13:28Z</time>
      </trkpt>
      <trkpt lat="48.52122" lon="-2.62416">
        <ele>27</ele>
        <time>2016-02-19T10:13:32Z</time>
      </trkpt>
      <trkpt lat="48.52121" lon="-2.62411">
        <ele>27</ele>
        <time>2016-02-19T10:13:35Z</time>
      </trkpt>
      <trkpt lat="48.52117" lon="-2.62407">
        <ele>27</ele>
        <time>2016-02-19T10:13:38Z</time>
      </trkpt>
      <trkpt lat="48.52113" lon="-2.62404">
        <ele>27</ele>
        <time>2016-02-19T10:13:41Z</time>
      </trkpt>
      <trkpt lat="48.52109" lon="-2.62403">
        <ele>27</ele>
        <time>2016-02-19T10:13:45Z</time>
      </trkpt>
      <trkpt lat="48.52105" lon="-2.62401">
        <ele>26</ele>
        <time>2016-02-19T10:13:48Z</time>
      </trkpt>
      <trkpt lat="48.52102" lon="-2.62397">
        <ele>26</ele>
        <time>2016-02-19T10:13:51Z</time>
      </trkpt>
      <trkpt lat="48.52097" lon="-2.62393">
        <ele>26</ele>
        <time>2016-02-19T10:13:55Z</time>
      </trkpt>
      <trkpt lat="48.52094" lon="-2.62387">
        <ele>26</ele>
        <time>2016-02-19T10:13:58Z</time>
      </trkpt>
      <trkpt lat="48.52091" lon="-2.62383">
        <ele>26</ele>
        <time>2016-02-19T10:14:02Z</time>
      </trkpt>
      <trkpt lat="48.52087" lon="-2.62376">
        <ele>26</ele>
        <time>2016-02-19T10:14:06Z</time>
      </trkpt>
      <trkpt lat="48.52085" lon="-2.62372">
        <ele>26</ele>
        <time>2016-02-19T10:14:10Z</time>
      </trkpt>
      <trkpt lat="48.52082" lon="-2.62368">
        <ele>26</ele>
        <time>2016-02-19T10:14:14Z</time>
      </trkpt>
      <trkpt lat="48.52079" lon="-2.62366">
        <ele>26</ele>
        <time>2016-02-19T10:14:18Z</time>
      </trkpt>
      <trkpt lat="48.52075" lon="-2.62365">
        <ele>27</ele>
        <time>2016-02-19T10:14:21Z</time>
      </trkpt>
      <trkpt lat="48.52073" lon="-2.6236">
        <ele>28</ele>
        <time>2016-02-19T10:14:25Z</time>
      </trkpt>
      <trkpt lat="48.52069" lon="-2.62357">
        <ele>31</ele>
        <time>2016-02-19T10:14:29Z</time>
      </trkpt>
      <trkpt lat="48.52065" lon="-2.62361">
        <ele>31</ele>
        <time>2016-02-19T10:14:33Z</time>
      </trkpt>
      <trkpt lat="48.52061" lon="-2.62361">
        <ele>32</ele>
        <time>2016-02-19T10:14:36Z</time>
      </trkpt>
      <trkpt lat="48.52058" lon="-2.6236">
        <ele>32</ele>
        <time>2016-02-19T10:14:39Z</time>
      </trkpt>
      <trkpt lat="48.52055" lon="-2.62359">
        <ele>32</ele>
        <time>2016-02-19T10:14:42Z</time>
      </trkpt>
      <trkpt lat="48.52052" lon="-2.62361">
        <ele>32</ele>
        <time>2016-02-19T10:14:45Z</time>
      </trkpt>
      <trkpt lat="48.52047" lon="-2.62362">
        <ele>33</ele>
        <time>2016-02-19T10:14:48Z</time>
      </trkpt>
      <trkpt lat="48.52043" lon="-2.62364">
        <ele>34</ele>
        <time>2016-02-19T10:14:51Z</time>
      </trkpt>
      <trkpt lat="48.5204" lon="-2.62364">
        <ele>35</ele>
        <time>2016-02-19T10:14:54Z</time>
      </trkpt>
      <trkpt lat="48.52037" lon="-2.62362">
        <ele>36</ele>
        <time>2016-02-19T10:14:57Z</time>
      </trkpt>
      <trkpt lat="48.52034" lon="-2.62363">
        <ele>36</ele>
        <time>2016-02-19T10:15:00Z</time>
      </trkpt>
      <trkpt lat="48.5203" lon="-2.62364">
        <ele>36</ele>
        <time>2016-02-19T10:15:03Z</time>
      </trkpt>
      <trkpt lat="48.52026" lon="-2.62368">
        <ele>36</ele>
        <time>2016-02-19T10:15:06Z</time>
      </trkpt>
      <trkpt lat="48.52022" lon="-2.62369">
        <ele>36</ele>
        <time>2016-02-19T10:15:10Z</time>
      </trkpt>
      <trkpt lat="48.52019" lon="-2.62368">
        <ele>36</ele>
        <time>2016-02-19T10:15:14Z</time>
      </trkpt>
      <trkpt lat="48.52016" lon="-2.62365">
        <ele>36</ele>
        <time>2016-02-19T10:15:18Z</time>
      </trkpt>
      <trkpt lat="48.52012" lon="-2.62362">
        <ele>36</ele>
        <time>2016-02-19T10:15:22Z</time>
      </trkpt>
      <trkpt lat="48.52008" lon="-2.62358">
        <ele>33</ele>
        <time>2016-02-19T10:15:26Z</time>
      </trkpt>
      <trkpt lat="48.52004" lon="-2.62356">
        <ele>30</ele>
        <time>2016-02-19T10:15:30Z</time>
      </trkpt>
      <trkpt lat="48.51999" lon="-2.62357">
        <ele>30</ele>
        <time>2016-02-19T10:15:33Z</time>
      </trkpt>
      <trkpt lat="48.51995" lon="-2.62357">
        <ele>30</ele>
        <time>2016-02-19T10:15:36Z</time>
      </trkpt>
      <trkpt lat="48.51992" lon="-2.62357">
        <ele>29</ele>
        <time>2016-02-19T10:15:39Z</time>
      </trkpt>
      <trkpt lat="48.51989" lon="-2.62358">
        <ele>27</ele>
        <time>2016-02-19T10:15:42Z</time>
      </trkpt>
      <trkpt lat="48.51986" lon="-2.62358">
        <ele>25</ele>
        <time>2016-02-19T10:15:46Z</time>
      </trkpt>
      <trkpt lat="48.51984" lon="-2.62357">
        <ele>25</ele>
        <time>2016-02-19T10:15:51Z</time>
      </trkpt>
      <trkpt lat="48.51983" lon="-2.62359">
        <ele>25</ele>
        <time>2016-02-19T10:15:54Z</time>
      </trkpt>
      <trkpt lat="48.51982" lon="-2.62361">
        <ele>28</ele>
        <time>2016-02-19T10:15:58Z</time>
      </trkpt>
      <trkpt lat="48.51981" lon="-2.6236">
        <ele>30</ele>
        <time>2016-02-19T10:16:07Z</time>
      </trkpt>
      <trkpt lat="48.5198" lon="-2.62359">
        <ele>30</ele>
        <time>2016-02-19T10:16:15Z</time>
      </trkpt>
      <trkpt lat="48.51979" lon="-2.62358">
        <ele>31</ele>
        <time>2016-02-19T10:16:19Z</time>
      </trkpt>
      <trkpt lat="48.51979" lon="-2.62356">
        <ele>31</ele>
        <time>2016-02-19T10:16:23Z</time>
      </trkpt>
      <trkpt lat="48.51978" lon="-2.62354">
        <ele>31</ele>
        <time>2016-02-19T10:16:27Z</time>
      </trkpt>
      <trkpt lat="48.51978" lon="-2.62353">
        <ele>32</ele>
        <time>2016-02-19T10:16:32Z</time>
      </trkpt>
      <trkpt lat="48.51977" lon="-2.62351">
        <ele>32</ele>
        <time>2016-02-19T10:16:36Z</time>
      </trkpt>
      <trkpt lat="48.51978" lon="-2.62353">
        <ele>33</ele>
        <time>2016-02-19T10:16:57Z</time>
      </trkpt>
      <trkpt lat="48.51977" lon="-2.62354">
        <ele>33</ele>
        <time>2016-02-19T10:17:03Z</time>
      </trkpt>
      <trkpt lat="48.51976" lon="-2.62356">
        <ele>33</ele>
        <time>2016-02-19T10:17:13Z</time>
      </trkpt>
      <trkpt lat="48.51976" lon="-2.62358">
        <ele>34</ele>
        <time>2016-02-19T10:17:27Z</time>
      </trkpt>
      <trkpt lat="48.51977" lon="-2.62359">
        <ele>34</ele>
        <time>2016-02-19T10:17:32Z</time>
      </trkpt>
      <trkpt lat="48.51978" lon="-2.62357">
        <ele>34</ele>
        <time>2016-02-19T10:17:40Z</time>
      </trkpt>
      <trkpt lat="48.51977" lon="-2.62355">
        <ele>34</ele>
        <time>2016-02-19T10:17:44Z</time>
      </trkpt>
      <trkpt lat="48.51978" lon="-2.62353">
        <ele>34</ele>
        <time>2016-02-19T10:17:47Z</time>
      </trkpt>
      <trkpt lat="48.51978" lon="-2.62351">
        <ele>34</ele>
        <time>2016-02-19T10:17:52Z</time>
      </trkpt>
      <trkpt lat="48.51977" lon="-2.62353">
        <ele>34</ele>
        <time>2016-02-19T10:18:14Z</time>
      </trkpt>
      <trkpt lat="48.51977" lon="-2.62355">
        <ele>35</ele>
        <time>2016-02-19T10:18:17Z</time>
      </trkpt>
      <trkpt lat="48.51977" lon="-2.62357">
        <ele>36</ele>
        <time>2016-02-19T10:18:22Z</time>
      </trkpt>
      <trkpt lat="48.51976" lon="-2.62355">
        <ele>42</ele>
        <time>2016-02-19T10:18:45Z</time>
      </trkpt>
      <trkpt lat="48.51975" lon="-2.62355">
        <ele>42</ele>
        <time>2016-02-19T10:18:57Z</time>
      </trkpt>
      <trkpt lat="48.51972" lon="-2.62353">
        <ele>42</ele>
        <time>2016-02-19T10:19:01Z</time>
      </trkpt>
      <trkpt lat="48.5197" lon="-2.62351">
        <ele>42</ele>
        <time>2016-02-19T10:19:06Z</time>
      </trkpt>
      <trkpt lat="48.51967" lon="-2.6235">
        <ele>38</ele>
        <time>2016-02-19T10:19:10Z</time>
      </trkpt>
      <trkpt lat="48.51964" lon="-2.62349">
        <ele>37</ele>
        <time>2016-02-19T10:19:14Z</time>
      </trkpt>
      <trkpt lat="48.51963" lon="-2.62348">
        <ele>37</ele>
        <time>2016-02-19T10:19:17Z</time>
      </trkpt>
      <trkpt lat="48.51961" lon="-2.62347">
        <ele>36</ele>
        <time>2016-02-19T10:19:20Z</time>
      </trkpt>
      <trkpt lat="48.51958" lon="-2.62346">
        <ele>33</ele>
        <time>2016-02-19T10:19:24Z</time>
      </trkpt>
      <trkpt lat="48.51955" lon="-2.62345">
        <ele>30</ele>
        <time>2016-02-19T10:19:28Z</time>
      </trkpt>
      <trkpt lat="48.51953" lon="-2.62344">
        <ele>30</ele>
        <time>2016-02-19T10:19:32Z</time>
      </trkpt>
      <trkpt lat="48.5195" lon="-2.62343">
        <ele>28</ele>
        <time>2016-02-19T10:19:37Z</time>
      </trkpt>
      <trkpt lat="48.51948" lon="-2.62342">
        <ele>28</ele>
        <time>2016-02-19T10:19:40Z</time>
      </trkpt>
      <trkpt lat="48.51947" lon="-2.62339">
        <ele>28</ele>
        <time>2016-02-19T10:19:43Z</time>
      </trkpt>
      <trkpt lat="48.51946" lon="-2.62339">
        <ele>28</ele>
        <time>2016-02-19T10:19:46Z</time>
      </trkpt>
      <trkpt lat="48.51944" lon="-2.62338">
        <ele>28</ele>
        <time>2016-02-19T10:19:49Z</time>
      </trkpt>
      <trkpt lat="48.51942" lon="-2.62338">
        <ele>28</ele>
        <time>2016-02-19T10:19:53Z</time>
      </trkpt>
      <trkpt lat="48.5194" lon="-2.62336">
        <ele>29</ele>
        <time>2016-02-19T10:19:56Z</time>
      </trkpt>
      <trkpt lat="48.51937" lon="-2.62335">
        <ele>30</ele>
        <time>2016-02-19T10:19:59Z</time>
      </trkpt>
      <trkpt lat="48.51935" lon="-2.62333">
        <ele>30</ele>
        <time>2016-02-19T10:20:02Z</time>
      </trkpt>
      <trkpt lat="48.51932" lon="-2.62331">
        <ele>30</ele>
        <time>2016-02-19T10:20:06Z</time>
      </trkpt>
      <trkpt lat="48.51929" lon="-2.62332">
        <ele>30</ele>
        <time>2016-02-19T10:20:10Z</time>
      </trkpt>
      <trkpt lat="48.51927" lon="-2.62332">
        <ele>32</ele>
        <time>2016-02-19T10:20:13Z</time>
      </trkpt>
      <trkpt lat="48.51923" lon="-2.62332">
        <ele>33</ele>
        <time>2016-02-19T10:20:16Z</time>
      </trkpt>
      <trkpt lat="48.51919" lon="-2.62333">
        <ele>33</ele>
        <time>2016-02-19T10:20:19Z</time>
      </trkpt>
      <trkpt lat="48.51915" lon="-2.62332">
        <ele>33</ele>
        <time>2016-02-19T10:20:23Z</time>
      </trkpt>
      <trkpt lat="48.51913" lon="-2.62329">
        <ele>33</ele>
        <time>2016-02-19T10:20:27Z</time>
      </trkpt>
      <trkpt lat="48.51911" lon="-2.62323">
        <ele>33</ele>
        <time>2016-02-19T10:20:31Z</time>
      </trkpt>
      <trkpt lat="48.51909" lon="-2.62318">
        <ele>33</ele>
        <time>2016-02-19T10:20:34Z</time>
      </trkpt>
      <trkpt lat="48.51907" lon="-2.62313">
        <ele>33</ele>
        <time>2016-02-19T10:20:37Z</time>
      </trkpt>
      <trkpt lat="48.51906" lon="-2.62308">
        <ele>33</ele>
        <time>2016-02-19T10:20:41Z</time>
      </trkpt>
      <trkpt lat="48.51905" lon="-2.62303">
        <ele>33</ele>
        <time>2016-02-19T10:20:45Z</time>
      </trkpt>
      <trkpt lat="48.51902" lon="-2.62298">
        <ele>33</ele>
        <time>2016-02-19T10:20:49Z</time>
      </trkpt>
      <trkpt lat="48.519" lon="-2.62294">
        <ele>33</ele>
        <time>2016-02-19T10:20:54Z</time>
      </trkpt>
      <trkpt lat="48.51899" lon="-2.62288">
        <ele>33</ele>
        <time>2016-02-19T10:20:58Z</time>
      </trkpt>
      <trkpt lat="48.51898" lon="-2.62284">
        <ele>33</ele>
        <time>2016-02-19T10:21:02Z</time>
      </trkpt>
      <trkpt lat="48.51897" lon="-2.62282">
        <ele>33</ele>
        <time>2016-02-19T10:21:05Z</time>
      </trkpt>
      <trkpt lat="48.51896" lon="-2.62278">
        <ele>34</ele>
        <time>2016-02-19T10:21:09Z</time>
      </trkpt>
      <trkpt lat="48.51895" lon="-2.62273">
        <ele>35</ele>
        <time>2016-02-19T10:21:13Z</time>
      </trkpt>
      <trkpt lat="48.51894" lon="-2.62267">
        <ele>35</ele>
        <time>2016-02-19T10:21:17Z</time>
      </trkpt>
      <trkpt lat="48.51892" lon="-2.62261">
        <ele>35</ele>
        <time>2016-02-19T10:21:21Z</time>
      </trkpt>
      <trkpt lat="48.51891" lon="-2.62256">
        <ele>35</ele>
        <time>2016-02-19T10:21:25Z</time>
      </trkpt>
      <trkpt lat="48.51891" lon="-2.62251">
        <ele>35</ele>
        <time>2016-02-19T10:21:29Z</time>
      </trkpt>
      <trkpt lat="48.51888" lon="-2.62244">
        <ele>35</ele>
        <time>2016-02-19T10:21:33Z</time>
      </trkpt>
      <trkpt lat="48.51886" lon="-2.62239">
        <ele>35</ele>
        <time>2016-02-19T10:21:36Z</time>
      </trkpt>
      <trkpt lat="48.51885" lon="-2.62234">
        <ele>35</ele>
        <time>2016-02-19T10:21:40Z</time>
      </trkpt>
      <trkpt lat="48.51883" lon="-2.62229">
        <ele>35</ele>
        <time>2016-02-19T10:21:43Z</time>
      </trkpt>
      <trkpt lat="48.51882" lon="-2.62224">
        <ele>35</ele>
        <time>2016-02-19T10:21:46Z</time>
      </trkpt>
      <trkpt lat="48.51881" lon="-2.62222">
        <ele>35</ele>
        <time>2016-02-19T10:21:49Z</time>
      </trkpt>
      <trkpt lat="48.5188" lon="-2.62217">
        <ele>35</ele>
        <time>2016-02-19T10:21:53Z</time>
      </trkpt>
      <trkpt lat="48.51877" lon="-2.62213">
        <ele>35</ele>
        <time>2016-02-19T10:21:57Z</time>
      </trkpt>
      <trkpt lat="48.51875" lon="-2.62208">
        <ele>35</ele>
        <time>2016-02-19T10:22:01Z</time>
      </trkpt>
      <trkpt lat="48.51873" lon="-2.62204">
        <ele>37</ele>
        <time>2016-02-19T10:22:04Z</time>
      </trkpt>
      <trkpt lat="48.51871" lon="-2.62197">
        <ele>39</ele>
        <time>2016-02-19T10:22:08Z</time>
      </trkpt>
      <trkpt lat="48.51869" lon="-2.62193">
        <ele>39</ele>
        <time>2016-02-19T10:22:12Z</time>
      </trkpt>
      <trkpt lat="48.51867" lon="-2.62188">
        <ele>39</ele>
        <time>2016-02-19T10:22:16Z</time>
      </trkpt>
      <trkpt lat="48.51865" lon="-2.62184">
        <ele>39</ele>
        <time>2016-02-19T10:22:21Z</time>
      </trkpt>
      <trkpt lat="48.51864" lon="-2.62182">
        <ele>39</ele>
        <time>2016-02-19T10:22:24Z</time>
      </trkpt>
      <trkpt lat="48.51862" lon="-2.6218">
        <ele>39</ele>
        <time>2016-02-19T10:22:27Z</time>
      </trkpt>
      <trkpt lat="48.51862" lon="-2.62178">
        <ele>39</ele>
        <time>2016-02-19T10:22:30Z</time>
      </trkpt>
      <trkpt lat="48.5186" lon="-2.62172">
        <ele>39</ele>
        <time>2016-02-19T10:22:34Z</time>
      </trkpt>
      <trkpt lat="48.51859" lon="-2.62168">
        <ele>39</ele>
        <time>2016-02-19T10:22:38Z</time>
      </trkpt>
      <trkpt lat="48.51857" lon="-2.62163">
        <ele>40</ele>
        <time>2016-02-19T10:22:42Z</time>
      </trkpt>
      <trkpt lat="48.51855" lon="-2.62159">
        <ele>40</ele>
        <time>2016-02-19T10:22:46Z</time>
      </trkpt>
      <trkpt lat="48.51852" lon="-2.62153">
        <ele>40</ele>
        <time>2016-02-19T10:22:50Z</time>
      </trkpt>
      <trkpt lat="48.51851" lon="-2.62149">
        <ele>40</ele>
        <time>2016-02-19T10:22:54Z</time>
      </trkpt>
      <trkpt lat="48.51851" lon="-2.62145">
        <ele>40</ele>
        <time>2016-02-19T10:22:57Z</time>
      </trkpt>
      <trkpt lat="48.51849" lon="-2.6214">
        <ele>40</ele>
        <time>2016-02-19T10:23:01Z</time>
      </trkpt>
      <trkpt lat="48.51847" lon="-2.62135">
        <ele>40</ele>
        <time>2016-02-19T10:23:05Z</time>
      </trkpt>
      <trkpt lat="48.51846" lon="-2.6213">
        <ele>41</ele>
        <time>2016-02-19T10:23:09Z</time>
      </trkpt>
      <trkpt lat="48.51844" lon="-2.62126">
        <ele>41</ele>
        <time>2016-02-19T10:23:13Z</time>
      </trkpt>
      <trkpt lat="48.51841" lon="-2.62123">
        <ele>41</ele>
        <time>2016-02-19T10:23:17Z</time>
      </trkpt>
      <trkpt lat="48.51838" lon="-2.6212">
        <ele>41</ele>
        <time>2016-02-19T10:23:20Z</time>
      </trkpt>
      <trkpt lat="48.51836" lon="-2.62118">
        <ele>42</ele>
        <time>2016-02-19T10:23:25Z</time>
      </trkpt>
      <trkpt lat="48.51835" lon="-2.62116">
        <ele>45</ele>
        <time>2016-02-19T10:23:31Z</time>
      </trkpt>
      <trkpt lat="48.51833" lon="-2.62115">
        <ele>46</ele>
        <time>2016-02-19T10:23:35Z</time>
      </trkpt>
      <trkpt lat="48.5183" lon="-2.62115">
        <ele>46</ele>
        <time>2016-02-19T10:23:39Z</time>
      </trkpt>
      <trkpt lat="48.51827" lon="-2.62115">
        <ele>46</ele>
        <time>2016-02-19T10:23:43Z</time>
      </trkpt>
      <trkpt lat="48.51824" lon="-2.62115">
        <ele>46</ele>
        <time>2016-02-19T10:23:47Z</time>
      </trkpt>
      <trkpt lat="48.5182" lon="-2.62116">
        <ele>46</ele>
        <time>2016-02-19T10:23:51Z</time>
      </trkpt>
      <trkpt lat="48.51816" lon="-2.62117">
        <ele>46</ele>
        <time>2016-02-19T10:23:55Z</time>
      </trkpt>
      <trkpt lat="48.51812" lon="-2.62118">
        <ele>42</ele>
        <time>2016-02-19T10:23:59Z</time>
      </trkpt>
      <trkpt lat="48.51809" lon="-2.62119">
        <ele>39</ele>
        <time>2016-02-19T10:24:02Z</time>
      </trkpt>
      <trkpt lat="48.51805" lon="-2.62119">
        <ele>38</ele>
        <time>2016-02-19T10:24:05Z</time>
      </trkpt>
      <trkpt lat="48.51802" lon="-2.62119">
        <ele>37</ele>
        <time>2016-02-19T10:24:08Z</time>
      </trkpt>
      <trkpt lat="48.51799" lon="-2.62118">
        <ele>37</ele>
        <time>2016-02-19T10:24:12Z</time>
      </trkpt>
      <trkpt lat="48.51795" lon="-2.62118">
        <ele>37</ele>
        <time>2016-02-19T10:24:15Z</time>
      </trkpt>
      <trkpt lat="48.5179" lon="-2.62119">
        <ele>36</ele>
        <time>2016-02-19T10:24:19Z</time>
      </trkpt>
      <trkpt lat="48.51786" lon="-2.62118">
        <ele>35</ele>
        <time>2016-02-19T10:24:22Z</time>
      </trkpt>
      <trkpt lat="48.51783" lon="-2.62119">
        <ele>35</ele>
        <time>2016-02-19T10:24:25Z</time>
      </trkpt>
      <trkpt lat="48.5178" lon="-2.62121">
        <ele>33</ele>
        <time>2016-02-19T10:24:29Z</time>
      </trkpt>
      <trkpt lat="48.51777" lon="-2.62121">
        <ele>34</ele>
        <time>2016-02-19T10:24:34Z</time>
      </trkpt>
      <trkpt lat="48.51776" lon="-2.6212">
        <ele>41</ele>
        <time>2016-02-19T10:24:43Z</time>
      </trkpt>
      <trkpt lat="48.51773" lon="-2.6212">
        <ele>41</ele>
        <time>2016-02-19T10:24:46Z</time>
      </trkpt>
      <trkpt lat="48.51769" lon="-2.62121">
        <ele>41</ele>
        <time>2016-02-19T10:24:49Z</time>
      </trkpt>
      <trkpt lat="48.51765" lon="-2.62121">
        <ele>41</ele>
        <time>2016-02-19T10:24:52Z</time>
      </trkpt>
      <trkpt lat="48.51762" lon="-2.62123">
        <ele>41</ele>
        <time>2016-02-19T10:24:55Z</time>
      </trkpt>
      <trkpt lat="48.51758" lon="-2.62123">
        <ele>41</ele>
        <time>2016-02-19T10:24:58Z</time>
      </trkpt>
      <trkpt lat="48.51754" lon="-2.62123">
        <ele>41</ele>
        <time>2016-02-19T10:25:01Z</time>
      </trkpt>
      <trkpt lat="48.5175" lon="-2.62122">
        <ele>41</ele>
        <time>2016-02-19T10:25:04Z</time>
      </trkpt>
      <trkpt lat="48.51746" lon="-2.62123">
        <ele>39</ele>
        <time>2016-02-19T10:25:07Z</time>
      </trkpt>
      <trkpt lat="48.51743" lon="-2.62125">
        <ele>39</ele>
        <time>2016-02-19T10:25:10Z</time>
      </trkpt>
      <trkpt lat="48.51739" lon="-2.62126">
        <ele>38</ele>
        <time>2016-02-19T10:25:13Z</time>
      </trkpt>
      <trkpt lat="48.51735" lon="-2.62126">
        <ele>36</ele>
        <time>2016-02-19T10:25:16Z</time>
      </trkpt>
      <trkpt lat="48.51731" lon="-2.62126">
        <ele>34</ele>
        <time>2016-02-19T10:25:19Z</time>
      </trkpt>
      <trkpt lat="48.51727" lon="-2.62126">
        <ele>32</ele>
        <time>2016-02-19T10:25:22Z</time>
      </trkpt>
      <trkpt lat="48.51724" lon="-2.62124">
        <ele>30</ele>
        <time>2016-02-19T10:25:25Z</time>
      </trkpt>
      <trkpt lat="48.5172" lon="-2.62123">
        <ele>27</ele>
        <time>2016-02-19T10:25:28Z</time>
      </trkpt>
      <trkpt lat="48.51716" lon="-2.62125">
        <ele>27</ele>
        <time>2016-02-19T10:25:31Z</time>
      </trkpt>
      <trkpt lat="48.51712" lon="-2.62126">
        <ele>26</ele>
        <time>2016-02-19T10:25:34Z</time>
      </trkpt>
      <trkpt lat="48.51708" lon="-2.62127">
        <ele>25</ele>
        <time>2016-02-19T10:25:37Z</time>
      </trkpt>
      <trkpt lat="48.51704" lon="-2.62128">
        <ele>24</ele>
        <time>2016-02-19T10:25:40Z</time>
      </trkpt>
      <trkpt lat="48.517" lon="-2.62129">
        <ele>24</ele>
        <time>2016-02-19T10:25:43Z</time>
      </trkpt>
      <trkpt lat="48.51696" lon="-2.6213">
        <ele>24</ele>
        <time>2016-02-19T10:25:46Z</time>
      </trkpt>
      <trkpt lat="48.51692" lon="-2.62134">
        <ele>23</ele>
        <time>2016-02-19T10:25:50Z</time>
      </trkpt>
      <trkpt lat="48.51688" lon="-2.62136">
        <ele>22</ele>
        <time>2016-02-19T10:25:53Z</time>
      </trkpt>
      <trkpt lat="48.51685" lon="-2.62137">
        <ele>22</ele>
        <time>2016-02-19T10:25:56Z</time>
      </trkpt>
      <trkpt lat="48.51681" lon="-2.62139">
        <ele>22</ele>
        <time>2016-02-19T10:25:59Z</time>
      </trkpt>
      <trkpt lat="48.51677" lon="-2.62139">
        <ele>22</ele>
        <time>2016-02-19T10:26:02Z</time>
      </trkpt>
      <trkpt lat="48.51672" lon="-2.62142">
        <ele>23</ele>
        <time>2016-02-19T10:26:06Z</time>
      </trkpt>
      <trkpt lat="48.51668" lon="-2.62143">
        <ele>23</ele>
        <time>2016-02-19T10:26:09Z</time>
      </trkpt>
      <trkpt lat="48.51664" lon="-2.62145">
        <ele>23</ele>
        <time>2016-02-19T10:26:12Z</time>
      </trkpt>
      <trkpt lat="48.51661" lon="-2.62146">
        <ele>23</ele>
        <time>2016-02-19T10:26:15Z</time>
      </trkpt>
      <trkpt lat="48.51658" lon="-2.62148">
        <ele>23</ele>
        <time>2016-02-19T10:26:18Z</time>
      </trkpt>
      <trkpt lat="48.51654" lon="-2.62149">
        <ele>24</ele>
        <time>2016-02-19T10:26:22Z</time>
      </trkpt>
      <trkpt lat="48.51651" lon="-2.6215">
        <ele>24</ele>
        <time>2016-02-19T10:26:25Z</time>
      </trkpt>
      <trkpt lat="48.51648" lon="-2.62151">
        <ele>24</ele>
        <time>2016-02-19T10:26:29Z</time>
      </trkpt>
      <trkpt lat="48.51643" lon="-2.62154">
        <ele>24</ele>
        <time>2016-02-19T10:26:32Z</time>
      </trkpt>
      <trkpt lat="48.5164" lon="-2.62157">
        <ele>24</ele>
        <time>2016-02-19T10:26:35Z</time>
      </trkpt>
      <trkpt lat="48.51637" lon="-2.62158">
        <ele>24</ele>
        <time>2016-02-19T10:26:39Z</time>
      </trkpt>
      <trkpt lat="48.51634" lon="-2.6216">
        <ele>24</ele>
        <time>2016-02-19T10:26:42Z</time>
      </trkpt>
      <trkpt lat="48.51631" lon="-2.62159">
        <ele>22</ele>
        <time>2016-02-19T10:26:46Z</time>
      </trkpt>
      <trkpt lat="48.51626" lon="-2.6216">
        <ele>22</ele>
        <time>2016-02-19T10:26:49Z</time>
      </trkpt>
      <trkpt lat="48.51623" lon="-2.62159">
        <ele>22</ele>
        <time>2016-02-19T10:26:52Z</time>
      </trkpt>
      <trkpt lat="48.51619" lon="-2.62158">
        <ele>22</ele>
        <time>2016-02-19T10:26:56Z</time>
      </trkpt>
      <trkpt lat="48.51615" lon="-2.62157">
        <ele>22</ele>
        <time>2016-02-19T10:26:59Z</time>
      </trkpt>
      <trkpt lat="48.51611" lon="-2.62157">
        <ele>22</ele>
        <time>2016-02-19T10:27:03Z</time>
      </trkpt>
      <trkpt lat="48.51608" lon="-2.62158">
        <ele>22</ele>
        <time>2016-02-19T10:27:07Z</time>
      </trkpt>
      <trkpt lat="48.51604" lon="-2.6216">
        <ele>22</ele>
        <time>2016-02-19T10:27:11Z</time>
      </trkpt>
      <trkpt lat="48.516" lon="-2.62161">
        <ele>22</ele>
        <time>2016-02-19T10:27:15Z</time>
      </trkpt>
      <trkpt lat="48.51596" lon="-2.62161">
        <ele>22</ele>
        <time>2016-02-19T10:27:19Z</time>
      </trkpt>
      <trkpt lat="48.51593" lon="-2.62163">
        <ele>22</ele>
        <time>2016-02-19T10:27:22Z</time>
      </trkpt>
      <trkpt lat="48.5159" lon="-2.62165">
        <ele>22</ele>
        <time>2016-02-19T10:27:26Z</time>
      </trkpt>
      <trkpt lat="48.51587" lon="-2.62166">
        <ele>22</ele>
        <time>2016-02-19T10:27:30Z</time>
      </trkpt>
      <trkpt lat="48.51584" lon="-2.62166">
        <ele>22</ele>
        <time>2016-02-19T10:27:33Z</time>
      </trkpt>
      <trkpt lat="48.51582" lon="-2.6217">
        <ele>22</ele>
        <time>2016-02-19T10:27:38Z</time>
      </trkpt>
      <trkpt lat="48.51579" lon="-2.62171">
        <ele>20</ele>
        <time>2016-02-19T10:27:42Z</time>
      </trkpt>
      <trkpt lat="48.51575" lon="-2.62172">
        <ele>19</ele>
        <time>2016-02-19T10:27:45Z</time>
      </trkpt>
      <trkpt lat="48.5157" lon="-2.6217">
        <ele>17</ele>
        <time>2016-02-19T10:27:48Z</time>
      </trkpt>
      <trkpt lat="48.51566" lon="-2.6217">
        <ele>17</ele>
        <time>2016-02-19T10:27:52Z</time>
      </trkpt>
      <trkpt lat="48.51562" lon="-2.62171">
        <ele>17</ele>
        <time>2016-02-19T10:27:55Z</time>
      </trkpt>
      <trkpt lat="48.51558" lon="-2.62172">
        <ele>17</ele>
        <time>2016-02-19T10:27:59Z</time>
      </trkpt>
      <trkpt lat="48.51555" lon="-2.62175">
        <ele>20</ele>
        <time>2016-02-19T10:28:03Z</time>
      </trkpt>
      <trkpt lat="48.51552" lon="-2.62176">
        <ele>23</ele>
        <time>2016-02-19T10:28:08Z</time>
      </trkpt>
      <trkpt lat="48.51549" lon="-2.62177">
        <ele>27</ele>
        <time>2016-02-19T10:28:12Z</time>
      </trkpt>
      <trkpt lat="48.51545" lon="-2.62177">
        <ele>30</ele>
        <time>2016-02-19T10:28:15Z</time>
      </trkpt>
      <trkpt lat="48.51541" lon="-2.62176">
        <ele>30</ele>
        <time>2016-02-19T10:28:19Z</time>
      </trkpt>
      <trkpt lat="48.51538" lon="-2.62176">
        <ele>31</ele>
        <time>2016-02-19T10:28:23Z</time>
      </trkpt>
      <trkpt lat="48.51535" lon="-2.62174">
        <ele>31</ele>
        <time>2016-02-19T10:28:27Z</time>
      </trkpt>
      <trkpt lat="48.51532" lon="-2.62173">
        <ele>31</ele>
        <time>2016-02-19T10:28:31Z</time>
      </trkpt>
      <trkpt lat="48.51528" lon="-2.6217">
        <ele>31</ele>
        <time>2016-02-19T10:28:35Z</time>
      </trkpt>
      <trkpt lat="48.51526" lon="-2.62167">
        <ele>31</ele>
        <time>2016-02-19T10:28:38Z</time>
      </trkpt>
      <trkpt lat="48.51522" lon="-2.62162">
        <ele>31</ele>
        <time>2016-02-19T10:28:42Z</time>
      </trkpt>
      <trkpt lat="48.51519" lon="-2.62162">
        <ele>31</ele>
        <time>2016-02-19T10:28:46Z</time>
      </trkpt>
      <trkpt lat="48.51517" lon="-2.62158">
        <ele>31</ele>
        <time>2016-02-19T10:28:50Z</time>
      </trkpt>
      <trkpt lat="48.51514" lon="-2.62153">
        <ele>31</ele>
        <time>2016-02-19T10:28:54Z</time>
      </trkpt>
      <trkpt lat="48.5151" lon="-2.62148">
        <ele>31</ele>
        <time>2016-02-19T10:28:58Z</time>
      </trkpt>
      <trkpt lat="48.51507" lon="-2.62145">
        <ele>31</ele>
        <time>2016-02-19T10:29:02Z</time>
      </trkpt>
      <trkpt lat="48.51504" lon="-2.62141">
        <ele>31</ele>
        <time>2016-02-19T10:29:06Z</time>
      </trkpt>
      <trkpt lat="48.51501" lon="-2.62138">
        <ele>31</ele>
        <time>2016-02-19T10:29:09Z</time>
      </trkpt>
      <trkpt lat="48.51498" lon="-2.62136">
        <ele>31</ele>
        <time>2016-02-19T10:29:12Z</time>
      </trkpt>
      <trkpt lat="48.51494" lon="-2.62134">
        <ele>31</ele>
        <time>2016-02-19T10:29:15Z</time>
      </trkpt>
      <trkpt lat="48.51491" lon="-2.62133">
        <ele>31</ele>
        <time>2016-02-19T10:29:19Z</time>
      </trkpt>
      <trkpt lat="48.5149" lon="-2.62132">
        <ele>31</ele>
        <time>2016-02-19T10:29:22Z</time>
      </trkpt>
      <trkpt lat="48.51485" lon="-2.62131">
        <ele>31</ele>
        <time>2016-02-19T10:29:26Z</time>
      </trkpt>
      <trkpt lat="48.51482" lon="-2.62128">
        <ele>31</ele>
        <time>2016-02-19T10:29:29Z</time>
      </trkpt>
      <trkpt lat="48.51479" lon="-2.62125">
        <ele>31</ele>
        <time>2016-02-19T10:29:33Z</time>
      </trkpt>
      <trkpt lat="48.51475" lon="-2.62121">
        <ele>31</ele>
        <time>2016-02-19T10:29:37Z</time>
      </trkpt>
      <trkpt lat="48.51474" lon="-2.6212">
        <ele>31</ele>
        <time>2016-02-19T10:29:40Z</time>
      </trkpt>
      <trkpt lat="48.51472" lon="-2.62118">
        <ele>31</ele>
        <time>2016-02-19T10:29:43Z</time>
      </trkpt>
      <trkpt lat="48.51469" lon="-2.62114">
        <ele>31</ele>
        <time>2016-02-19T10:29:47Z</time>
      </trkpt>
      <trkpt lat="48.51467" lon="-2.62111">
        <ele>31</ele>
        <time>2016-02-19T10:29:51Z</time>
      </trkpt>
      <trkpt lat="48.51463" lon="-2.62108">
        <ele>31</ele>
        <time>2016-02-19T10:29:55Z</time>
      </trkpt>
      <trkpt lat="48.51459" lon="-2.62107">
        <ele>31</ele>
        <time>2016-02-19T10:29:58Z</time>
      </trkpt>
      <trkpt lat="48.51455" lon="-2.62105">
        <ele>31</ele>
        <time>2016-02-19T10:30:01Z</time>
      </trkpt>
      <trkpt lat="48.51452" lon="-2.62103">
        <ele>31</ele>
        <time>2016-02-19T10:30:04Z</time>
      </trkpt>
      <trkpt lat="48.51448" lon="-2.621">
        <ele>31</ele>
        <time>2016-02-19T10:30:07Z</time>
      </trkpt>
      <trkpt lat="48.51444" lon="-2.62095">
        <ele>31</ele>
        <time>2016-02-19T10:30:11Z</time>
      </trkpt>
      <trkpt lat="48.51442" lon="-2.62091">
        <ele>30</ele>
        <time>2016-02-19T10:30:16Z</time>
      </trkpt>
      <trkpt lat="48.51438" lon="-2.62086">
        <ele>28</ele>
        <time>2016-02-19T10:30:20Z</time>
      </trkpt>
      <trkpt lat="48.51438" lon="-2.62081">
        <ele>26</ele>
        <time>2016-02-19T10:30:23Z</time>
      </trkpt>
      <trkpt lat="48.51435" lon="-2.62076">
        <ele>25</ele>
        <time>2016-02-19T10:30:26Z</time>
      </trkpt>
      <trkpt lat="48.51431" lon="-2.62073">
        <ele>25</ele>
        <time>2016-02-19T10:30:29Z</time>
      </trkpt>
      <trkpt lat="48.51429" lon="-2.62069">
        <ele>25</ele>
        <time>2016-02-19T10:30:32Z</time>
      </trkpt>
      <trkpt lat="48.51426" lon="-2.62066">
        <ele>25</ele>
        <time>2016-02-19T10:30:35Z</time>
      </trkpt>
      <trkpt lat="48.51423" lon="-2.62063">
        <ele>25</ele>
        <time>2016-02-19T10:30:39Z</time>
      </trkpt>
      <trkpt lat="48.51419" lon="-2.6206">
        <ele>25</ele>
        <time>2016-02-19T10:30:43Z</time>
      </trkpt>
      <trkpt lat="48.51414" lon="-2.62058">
        <ele>24</ele>
        <time>2016-02-19T10:30:47Z</time>
      </trkpt>
      <trkpt lat="48.51412" lon="-2.62056">
        <ele>24</ele>
        <time>2016-02-19T10:30:50Z</time>
      </trkpt>
      <trkpt lat="48.51408" lon="-2.62054">
        <ele>24</ele>
        <time>2016-02-19T10:30:53Z</time>
      </trkpt>
      <trkpt lat="48.51404" lon="-2.62051">
        <ele>24</ele>
        <time>2016-02-19T10:30:56Z</time>
      </trkpt>
      <trkpt lat="48.514" lon="-2.62047">
        <ele>24</ele>
        <time>2016-02-19T10:31:00Z</time>
      </trkpt>
      <trkpt lat="48.51397" lon="-2.62045">
        <ele>24</ele>
        <time>2016-02-19T10:31:03Z</time>
      </trkpt>
      <trkpt lat="48.51395" lon="-2.62043">
        <ele>24</ele>
        <time>2016-02-19T10:31:06Z</time>
      </trkpt>
      <trkpt lat="48.51392" lon="-2.62038">
        <ele>24</ele>
        <time>2016-02-19T10:31:10Z</time>
      </trkpt>
      <trkpt lat="48.51388" lon="-2.62035">
        <ele>24</ele>
        <time>2016-02-19T10:31:14Z</time>
      </trkpt>
      <trkpt lat="48.51384" lon="-2.62035">
        <ele>24</ele>
        <time>2016-02-19T10:31:17Z</time>
      </trkpt>
      <trkpt lat="48.51381" lon="-2.62033">
        <ele>22</ele>
        <time>2016-02-19T10:31:21Z</time>
      </trkpt>
      <trkpt lat="48.51376" lon="-2.62032">
        <ele>20</ele>
        <time>2016-02-19T10:31:25Z</time>
      </trkpt>
      <trkpt lat="48.51374" lon="-2.62031">
        <ele>20</ele>
        <time>2016-02-19T10:31:28Z</time>
      </trkpt>
      <trkpt lat="48.51371" lon="-2.6203">
        <ele>20</ele>
        <time>2016-02-19T10:31:32Z</time>
      </trkpt>
      <trkpt lat="48.51367" lon="-2.62029">
        <ele>18</ele>
        <time>2016-02-19T10:31:35Z</time>
      </trkpt>
      <trkpt lat="48.51362" lon="-2.62027">
        <ele>17</ele>
        <time>2016-02-19T10:31:39Z</time>
      </trkpt>
      <trkpt lat="48.5136" lon="-2.62026">
        <ele>17</ele>
        <time>2016-02-19T10:31:42Z</time>
      </trkpt>
      <trkpt lat="48.51359" lon="-2.62028">
        <ele>17</ele>
        <time>2016-02-19T10:31:46Z</time>
      </trkpt>
      <trkpt lat="48.51358" lon="-2.62028">
        <ele>19</ele>
        <time>2016-02-19T10:31:50Z</time>
      </trkpt>
      <trkpt lat="48.51356" lon="-2.62027">
        <ele>20</ele>
        <time>2016-02-19T10:31:53Z</time>
      </trkpt>
      <trkpt lat="48.51354" lon="-2.62027">
        <ele>21</ele>
        <time>2016-02-19T10:31:56Z</time>
      </trkpt>
      <trkpt lat="48.51352" lon="-2.62024">
        <ele>23</ele>
        <time>2016-02-19T10:32:02Z</time>
      </trkpt>
      <trkpt lat="48.5135" lon="-2.62021">
        <ele>23</ele>
        <time>2016-02-19T10:32:06Z</time>
      </trkpt>
      <trkpt lat="48.51348" lon="-2.62019">
        <ele>23</ele>
        <time>2016-02-19T10:32:09Z</time>
      </trkpt>
      <trkpt lat="48.51345" lon="-2.62017">
        <ele>23</ele>
        <time>2016-02-19T10:32:13Z</time>
      </trkpt>
      <trkpt lat="48.51341" lon="-2.62016">
        <ele>23</ele>
        <time>2016-02-19T10:32:17Z</time>
      </trkpt>
      <trkpt lat="48.51337" lon="-2.62015">
        <ele>21</ele>
        <time>2016-02-19T10:32:21Z</time>
      </trkpt>
      <trkpt lat="48.51336" lon="-2.62013">
        <ele>21</ele>
        <time>2016-02-19T10:32:25Z</time>
      </trkpt>
      <trkpt lat="48.51336" lon="-2.62011">
        <ele>21</ele>
        <time>2016-02-19T10:32:30Z</time>
      </trkpt>
      <trkpt lat="48.51334" lon="-2.62007">
        <ele>21</ele>
        <time>2016-02-19T10:32:34Z</time>
      </trkpt>
      <trkpt lat="48.51334" lon="-2.62006">
        <ele>21</ele>
        <time>2016-02-19T10:32:41Z</time>
      </trkpt>
      <trkpt lat="48.51332" lon="-2.62007">
        <ele>21</ele>
        <time>2016-02-19T10:32:47Z</time>
      </trkpt>
      <trkpt lat="48.51329" lon="-2.6201">
        <ele>21</ele>
        <time>2016-02-19T10:32:52Z</time>
      </trkpt>
      <trkpt lat="48.51326" lon="-2.62009">
        <ele>22</ele>
        <time>2016-02-19T10:32:56Z</time>
      </trkpt>
      <trkpt lat="48.51323" lon="-2.62007">
        <ele>23</ele>
        <time>2016-02-19T10:33:00Z</time>
      </trkpt>
      <trkpt lat="48.51321" lon="-2.62005">
        <ele>23</ele>
        <time>2016-02-19T10:33:03Z</time>
      </trkpt>
      <trkpt lat="48.5132" lon="-2.62001">
        <ele>23</ele>
        <time>2016-02-19T10:33:06Z</time>
      </trkpt>
      <trkpt lat="48.51317" lon="-2.61997">
        <ele>25</ele>
        <time>2016-02-19T10:33:09Z</time>
      </trkpt>
      <trkpt lat="48.51314" lon="-2.61993">
        <ele>26</ele>
        <time>2016-02-19T10:33:12Z</time>
      </trkpt>
      <trkpt lat="48.51311" lon="-2.61986">
        <ele>26</ele>
        <time>2016-02-19T10:33:16Z</time>
      </trkpt>
      <trkpt lat="48.51309" lon="-2.61981">
        <ele>26</ele>
        <time>2016-02-19T10:33:20Z</time>
      </trkpt>
      <trkpt lat="48.51307" lon="-2.61978">
        <ele>26</ele>
        <time>2016-02-19T10:33:24Z</time>
      </trkpt>
      <trkpt lat="48.51305" lon="-2.61974">
        <ele>26</ele>
        <time>2016-02-19T10:33:27Z</time>
      </trkpt>
      <trkpt lat="48.51303" lon="-2.61969">
        <ele>26</ele>
        <time>2016-02-19T10:33:31Z</time>
      </trkpt>
      <trkpt lat="48.513" lon="-2.61965">
        <ele>26</ele>
        <time>2016-02-19T10:33:35Z</time>
      </trkpt>
      <trkpt lat="48.51296" lon="-2.61963">
        <ele>26</ele>
        <time>2016-02-19T10:33:38Z</time>
      </trkpt>
      <trkpt lat="48.51292" lon="-2.61959">
        <ele>26</ele>
        <time>2016-02-19T10:33:42Z</time>
      </trkpt>
      <trkpt lat="48.51288" lon="-2.61958">
        <ele>26</ele>
        <time>2016-02-19T10:33:45Z</time>
      </trkpt>
      <trkpt lat="48.51285" lon="-2.61955">
        <ele>26</ele>
        <time>2016-02-19T10:33:49Z</time>
      </trkpt>
      <trkpt lat="48.51281" lon="-2.61953">
        <ele>25</ele>
        <time>2016-02-19T10:33:53Z</time>
      </trkpt>
      <trkpt lat="48.51278" lon="-2.6195">
        <ele>25</ele>
        <time>2016-02-19T10:33:57Z</time>
      </trkpt>
      <trkpt lat="48.51275" lon="-2.61948">
        <ele>25</ele>
        <time>2016-02-19T10:34:01Z</time>
      </trkpt>
      <trkpt lat="48.51272" lon="-2.61946">
        <ele>25</ele>
        <time>2016-02-19T10:34:05Z</time>
      </trkpt>
      <trkpt lat="48.5127" lon="-2.61942">
        <ele>25</ele>
        <time>2016-02-19T10:34:10Z</time>
      </trkpt>
      <trkpt lat="48.51267" lon="-2.61939">
        <ele>25</ele>
        <time>2016-02-19T10:34:14Z</time>
      </trkpt>
      <trkpt lat="48.51263" lon="-2.61935">
        <ele>25</ele>
        <time>2016-02-19T10:34:18Z</time>
      </trkpt>
      <trkpt lat="48.51261" lon="-2.6193">
        <ele>25</ele>
        <time>2016-02-19T10:34:22Z</time>
      </trkpt>
      <trkpt lat="48.51259" lon="-2.61925">
        <ele>25</ele>
        <time>2016-02-19T10:34:25Z</time>
      </trkpt>
      <trkpt lat="48.51258" lon="-2.61921">
        <ele>25</ele>
        <time>2016-02-19T10:34:29Z</time>
      </trkpt>
      <trkpt lat="48.51255" lon="-2.61917">
        <ele>25</ele>
        <time>2016-02-19T10:34:33Z</time>
      </trkpt>
      <trkpt lat="48.51253" lon="-2.61913">
        <ele>25</ele>
        <time>2016-02-19T10:34:37Z</time>
      </trkpt>
      <trkpt lat="48.51249" lon="-2.6191">
        <ele>27</ele>
        <time>2016-02-19T10:34:41Z</time>
      </trkpt>
      <trkpt lat="48.51247" lon="-2.61907">
        <ele>27</ele>
        <time>2016-02-19T10:34:44Z</time>
      </trkpt>
      <trkpt lat="48.51242" lon="-2.61903">
        <ele>27</ele>
        <time>2016-02-19T10:34:48Z</time>
      </trkpt>
      <trkpt lat="48.51238" lon="-2.619">
        <ele>27</ele>
        <time>2016-02-19T10:34:52Z</time>
      </trkpt>
      <trkpt lat="48.51236" lon="-2.61897">
        <ele>28</ele>
        <time>2016-02-19T10:34:57Z</time>
      </trkpt>
      <trkpt lat="48.51233" lon="-2.61894">
        <ele>28</ele>
        <time>2016-02-19T10:35:00Z</time>
      </trkpt>
      <trkpt lat="48.51231" lon="-2.61892">
        <ele>28</ele>
        <time>2016-02-19T10:35:03Z</time>
      </trkpt>
      <trkpt lat="48.51228" lon="-2.61888">
        <ele>29</ele>
        <time>2016-02-19T10:35:09Z</time>
      </trkpt>
      <trkpt lat="48.51226" lon="-2.61884">
        <ele>30</ele>
        <time>2016-02-19T10:35:13Z</time>
      </trkpt>
      <trkpt lat="48.51226" lon="-2.61882">
        <ele>30</ele>
        <time>2016-02-19T10:35:16Z</time>
      </trkpt>
      <trkpt lat="48.51225" lon="-2.61881">
        <ele>30</ele>
        <time>2016-02-19T10:35:19Z</time>
      </trkpt>
      <trkpt lat="48.51224" lon="-2.61879">
        <ele>30</ele>
        <time>2016-02-19T10:35:25Z</time>
      </trkpt>
      <trkpt lat="48.51222" lon="-2.61878">
        <ele>30</ele>
        <time>2016-02-19T10:35:28Z</time>
      </trkpt>
      <trkpt lat="48.5122" lon="-2.61878">
        <ele>30</ele>
        <time>2016-02-19T10:35:31Z</time>
      </trkpt>
      <trkpt lat="48.51217" lon="-2.61877">
        <ele>30</ele>
        <time>2016-02-19T10:35:35Z</time>
      </trkpt>
      <trkpt lat="48.51213" lon="-2.61877">
        <ele>30</ele>
        <time>2016-02-19T10:35:38Z</time>
      </trkpt>
      <trkpt lat="48.51209" lon="-2.61876">
        <ele>30</ele>
        <time>2016-02-19T10:35:41Z</time>
      </trkpt>
      <trkpt lat="48.51205" lon="-2.61873">
        <ele>29</ele>
        <time>2016-02-19T10:35:45Z</time>
      </trkpt>
      <trkpt lat="48.51203" lon="-2.61871">
        <ele>29</ele>
        <time>2016-02-19T10:35:48Z</time>
      </trkpt>
      <trkpt lat="48.51202" lon="-2.6187">
        <ele>29</ele>
        <time>2016-02-19T10:35:51Z</time>
      </trkpt>
      <trkpt lat="48.51199" lon="-2.61866">
        <ele>29</ele>
        <time>2016-02-19T10:35:55Z</time>
      </trkpt>
      <trkpt lat="48.51196" lon="-2.61863">
        <ele>29</ele>
        <time>2016-02-19T10:35:59Z</time>
      </trkpt>
      <trkpt lat="48.51194" lon="-2.6186">
        <ele>29</ele>
        <time>2016-02-19T10:36:03Z</time>
      </trkpt>
      <trkpt lat="48.51192" lon="-2.61858">
        <ele>29</ele>
        <time>2016-02-19T10:36:06Z</time>
      </trkpt>
      <trkpt lat="48.51189" lon="-2.61853">
        <ele>29</ele>
        <time>2016-02-19T10:36:10Z</time>
      </trkpt>
      <trkpt lat="48.51187" lon="-2.6185">
        <ele>29</ele>
        <time>2016-02-19T10:36:14Z</time>
      </trkpt>
      <trkpt lat="48.51185" lon="-2.61845">
        <ele>29</ele>
        <time>2016-02-19T10:36:17Z</time>
      </trkpt>
      <trkpt lat="48.51183" lon="-2.61839">
        <ele>29</ele>
        <time>2016-02-19T10:36:21Z</time>
      </trkpt>
      <trkpt lat="48.51181" lon="-2.61837">
        <ele>29</ele>
        <time>2016-02-19T10:36:24Z</time>
      </trkpt>
      <trkpt lat="48.5118" lon="-2.61833">
        <ele>29</ele>
        <time>2016-02-19T10:36:28Z</time>
      </trkpt>
      <trkpt lat="48.51177" lon="-2.61829">
        <ele>29</ele>
        <time>2016-02-19T10:36:32Z</time>
      </trkpt>
      <trkpt lat="48.51174" lon="-2.61828">
        <ele>29</ele>
        <time>2016-02-19T10:36:35Z</time>
      </trkpt>
      <trkpt lat="48.5117" lon="-2.61826">
        <ele>29</ele>
        <time>2016-02-19T10:36:39Z</time>
      </trkpt>
      <trkpt lat="48.51167" lon="-2.61824">
        <ele>29</ele>
        <time>2016-02-19T10:36:43Z</time>
      </trkpt>
      <trkpt lat="48.51163" lon="-2.6182">
        <ele>29</ele>
        <time>2016-02-19T10:36:47Z</time>
      </trkpt>
      <trkpt lat="48.51161" lon="-2.61816">
        <ele>29</ele>
        <time>2016-02-19T10:36:52Z</time>
      </trkpt>
      <trkpt lat="48.51159" lon="-2.61811">
        <ele>29</ele>
        <time>2016-02-19T10:36:56Z</time>
      </trkpt>
      <trkpt lat="48.51155" lon="-2.61807">
        <ele>29</ele>
        <time>2016-02-19T10:37:01Z</time>
      </trkpt>
      <trkpt lat="48.51151" lon="-2.61802">
        <ele>29</ele>
        <time>2016-02-19T10:37:05Z</time>
      </trkpt>
      <trkpt lat="48.51147" lon="-2.61799">
        <ele>29</ele>
        <time>2016-02-19T10:37:09Z</time>
      </trkpt>
      <trkpt lat="48.51144" lon="-2.61794">
        <ele>29</ele>
        <time>2016-02-19T10:37:12Z</time>
      </trkpt>
      <trkpt lat="48.51141" lon="-2.6179">
        <ele>29</ele>
        <time>2016-02-19T10:37:15Z</time>
      </trkpt>
      <trkpt lat="48.51138" lon="-2.61787">
        <ele>29</ele>
        <time>2016-02-19T10:37:18Z</time>
      </trkpt>
      <trkpt lat="48.51135" lon="-2.61783">
        <ele>29</ele>
        <time>2016-02-19T10:37:22Z</time>
      </trkpt>
      <trkpt lat="48.51132" lon="-2.61779">
        <ele>29</ele>
        <time>2016-02-19T10:37:27Z</time>
      </trkpt>
      <trkpt lat="48.51132" lon="-2.61774">
        <ele>29</ele>
        <time>2016-02-19T10:37:31Z</time>
      </trkpt>
      <trkpt lat="48.5113" lon="-2.61768">
        <ele>28</ele>
        <time>2016-02-19T10:37:35Z</time>
      </trkpt>
      <trkpt lat="48.51129" lon="-2.61765">
        <ele>27</ele>
        <time>2016-02-19T10:37:38Z</time>
      </trkpt>
      <trkpt lat="48.51127" lon="-2.61761">
        <ele>27</ele>
        <time>2016-02-19T10:37:42Z</time>
      </trkpt>
      <trkpt lat="48.51125" lon="-2.61757">
        <ele>27</ele>
        <time>2016-02-19T10:37:45Z</time>
      </trkpt>
      <trkpt lat="48.51122" lon="-2.61754">
        <ele>27</ele>
        <time>2016-02-19T10:37:48Z</time>
      </trkpt>
      <trkpt lat="48.51119" lon="-2.61752">
        <ele>27</ele>
        <time>2016-02-19T10:37:52Z</time>
      </trkpt>
      <trkpt lat="48.51115" lon="-2.61752">
        <ele>27</ele>
        <time>2016-02-19T10:37:55Z</time>
      </trkpt>
      <trkpt lat="48.51111" lon="-2.61751">
        <ele>27</ele>
        <time>2016-02-19T10:37:58Z</time>
      </trkpt>
      <trkpt lat="48.51108" lon="-2.6175">
        <ele>24</ele>
        <time>2016-02-19T10:38:01Z</time>
      </trkpt>
      <trkpt lat="48.51104" lon="-2.61746">
        <ele>22</ele>
        <time>2016-02-19T10:38:05Z</time>
      </trkpt>
      <trkpt lat="48.51101" lon="-2.61741">
        <ele>20</ele>
        <time>2016-02-19T10:38:08Z</time>
      </trkpt>
      <trkpt lat="48.51098" lon="-2.61736">
        <ele>17</ele>
        <time>2016-02-19T10:38:11Z</time>
      </trkpt>
      <trkpt lat="48.51097" lon="-2.6173">
        <ele>16</ele>
        <time>2016-02-19T10:38:14Z</time>
      </trkpt>
      <trkpt lat="48.51095" lon="-2.61724">
        <ele>16</ele>
        <time>2016-02-19T10:38:17Z</time>
      </trkpt>
      <trkpt lat="48.51095" lon="-2.61719">
        <ele>16</ele>
        <time>2016-02-19T10:38:20Z</time>
      </trkpt>
      <trkpt lat="48.51095" lon="-2.61713">
        <ele>16</ele>
        <time>2016-02-19T10:38:23Z</time>
      </trkpt>
      <trkpt lat="48.51094" lon="-2.61705">
        <ele>16</ele>
        <time>2016-02-19T10:38:26Z</time>
      </trkpt>
      <trkpt lat="48.51093" lon="-2.61695">
        <ele>16</ele>
        <time>2016-02-19T10:38:29Z</time>
      </trkpt>
      <trkpt lat="48.5109" lon="-2.61686">
        <ele>16</ele>
        <time>2016-02-19T10:38:32Z</time>
      </trkpt>
      <trkpt lat="48.51087" lon="-2.61677">
        <ele>16</ele>
        <time>2016-02-19T10:38:36Z</time>
      </trkpt>
      <trkpt lat="48.51083" lon="-2.61672">
        <ele>17</ele>
        <time>2016-02-19T10:38:40Z</time>
      </trkpt>
      <trkpt lat="48.5108" lon="-2.61667">
        <ele>17</ele>
        <time>2016-02-19T10:38:44Z</time>
      </trkpt>
      <trkpt lat="48.51079" lon="-2.6166">
        <ele>17</ele>
        <time>2016-02-19T10:38:47Z</time>
      </trkpt>
      <trkpt lat="48.51077" lon="-2.61652">
        <ele>17</ele>
        <time>2016-02-19T10:38:50Z</time>
      </trkpt>
      <trkpt lat="48.51076" lon="-2.61644">
        <ele>17</ele>
        <time>2016-02-19T10:38:53Z</time>
      </trkpt>
      <trkpt lat="48.51074" lon="-2.61636">
        <ele>17</ele>
        <time>2016-02-19T10:38:56Z</time>
      </trkpt>
      <trkpt lat="48.5107" lon="-2.61627">
        <ele>18</ele>
        <time>2016-02-19T10:39:00Z</time>
      </trkpt>
      <trkpt lat="48.51068" lon="-2.6162">
        <ele>18</ele>
        <time>2016-02-19T10:39:04Z</time>
      </trkpt>
      <trkpt lat="48.51067" lon="-2.6161">
        <ele>18</ele>
        <time>2016-02-19T10:39:07Z</time>
      </trkpt>
      <trkpt lat="48.51067" lon="-2.61599">
        <ele>19</ele>
        <time>2016-02-19T10:39:10Z</time>
      </trkpt>
      <trkpt lat="48.51067" lon="-2.61592">
        <ele>20</ele>
        <time>2016-02-19T10:39:13Z</time>
      </trkpt>
      <trkpt lat="48.51068" lon="-2.61586">
        <ele>21</ele>
        <time>2016-02-19T10:39:16Z</time>
      </trkpt>
      <trkpt lat="48.51068" lon="-2.61581">
        <ele>21</ele>
        <time>2016-02-19T10:39:19Z</time>
      </trkpt>
      <trkpt lat="48.51068" lon="-2.61575">
        <ele>21</ele>
        <time>2016-02-19T10:39:22Z</time>
      </trkpt>
      <trkpt lat="48.51068" lon="-2.61567">
        <ele>21</ele>
        <time>2016-02-19T10:39:25Z</time>
      </trkpt>
      <trkpt lat="48.51069" lon="-2.61561">
        <ele>21</ele>
        <time>2016-02-19T10:39:29Z</time>
      </trkpt>
      <trkpt lat="48.5107" lon="-2.61557">
        <ele>21</ele>
        <time>2016-02-19T10:39:34Z</time>
      </trkpt>
      <trkpt lat="48.51071" lon="-2.61552">
        <ele>21</ele>
        <time>2016-02-19T10:39:38Z</time>
      </trkpt>
      <trkpt lat="48.51069" lon="-2.61545">
        <ele>21</ele>
        <time>2016-02-19T10:39:41Z</time>
      </trkpt>
      <trkpt lat="48.51071" lon="-2.61544">
        <ele>21</ele>
        <time>2016-02-19T10:39:46Z</time>
      </trkpt>
      <trkpt lat="48.5107" lon="-2.61538">
        <ele>21</ele>
        <time>2016-02-19T10:39:50Z</time>
      </trkpt>
      <trkpt lat="48.51068" lon="-2.61532">
        <ele>21</ele>
        <time>2016-02-19T10:39:53Z</time>
      </trkpt>
      <trkpt lat="48.51066" lon="-2.61527">
        <ele>21</ele>
        <time>2016-02-19T10:39:56Z</time>
      </trkpt>
      <trkpt lat="48.51064" lon="-2.61519">
        <ele>21</ele>
        <time>2016-02-19T10:39:59Z</time>
      </trkpt>
      <trkpt lat="48.51062" lon="-2.61512">
        <ele>21</ele>
        <time>2016-02-19T10:40:02Z</time>
      </trkpt>
      <trkpt lat="48.51061" lon="-2.61506">
        <ele>21</ele>
        <time>2016-02-19T10:40:05Z</time>
      </trkpt>
      <trkpt lat="48.5106" lon="-2.61499">
        <ele>21</ele>
        <time>2016-02-19T10:40:08Z</time>
      </trkpt>
      <trkpt lat="48.5106" lon="-2.61491">
        <ele>21</ele>
        <time>2016-02-19T10:40:11Z</time>
      </trkpt>
      <trkpt lat="48.5106" lon="-2.61485">
        <ele>21</ele>
        <time>2016-02-19T10:40:14Z</time>
      </trkpt>
      <trkpt lat="48.51061" lon="-2.61478">
        <ele>21</ele>
        <time>2016-02-19T10:40:17Z</time>
      </trkpt>
      <trkpt lat="48.51061" lon="-2.61471">
        <ele>21</ele>
        <time>2016-02-19T10:40:20Z</time>
      </trkpt>
      <trkpt lat="48.51063" lon="-2.61466">
        <ele>21</ele>
        <time>2016-02-19T10:40:23Z</time>
      </trkpt>
      <trkpt lat="48.51065" lon="-2.61459">
        <ele>21</ele>
        <time>2016-02-19T10:40:27Z</time>
      </trkpt>
      <trkpt lat="48.51065" lon="-2.61454">
        <ele>21</ele>
        <time>2016-02-19T10:40:30Z</time>
      </trkpt>
      <trkpt lat="48.51063" lon="-2.61451">
        <ele>21</ele>
        <time>2016-02-19T10:40:34Z</time>
      </trkpt>
      <trkpt lat="48.51059" lon="-2.61449">
        <ele>21</ele>
        <time>2016-02-19T10:40:38Z</time>
      </trkpt>
      <trkpt lat="48.51055" lon="-2.61448">
        <ele>21</ele>
        <time>2016-02-19T10:40:42Z</time>
      </trkpt>
      <trkpt lat="48.51052" lon="-2.61449">
        <ele>21</ele>
        <time>2016-02-19T10:40:45Z</time>
      </trkpt>
      <trkpt lat="48.51048" lon="-2.61449">
        <ele>20</ele>
        <time>2016-02-19T10:40:49Z</time>
      </trkpt>
      <trkpt lat="48.51044" lon="-2.61447">
        <ele>20</ele>
        <time>2016-02-19T10:40:53Z</time>
      </trkpt>
      <trkpt lat="48.5104" lon="-2.61445">
        <ele>20</ele>
        <time>2016-02-19T10:40:56Z</time>
      </trkpt>
      <trkpt lat="48.51036" lon="-2.61444">
        <ele>19</ele>
        <time>2016-02-19T10:40:59Z</time>
      </trkpt>
      <trkpt lat="48.51031" lon="-2.61441">
        <ele>17</ele>
        <time>2016-02-19T10:41:03Z</time>
      </trkpt>
      <trkpt lat="48.51027" lon="-2.61438">
        <ele>17</ele>
        <time>2016-02-19T10:41:06Z</time>
      </trkpt>
      <trkpt lat="48.51023" lon="-2.61436">
        <ele>17</ele>
        <time>2016-02-19T10:41:10Z</time>
      </trkpt>
      <trkpt lat="48.51019" lon="-2.61435">
        <ele>17</ele>
        <time>2016-02-19T10:41:13Z</time>
      </trkpt>
      <trkpt lat="48.51016" lon="-2.61434">
        <ele>17</ele>
        <time>2016-02-19T10:41:17Z</time>
      </trkpt>
      <trkpt lat="48.51012" lon="-2.61433">
        <ele>17</ele>
        <time>2016-02-19T10:41:20Z</time>
      </trkpt>
      <trkpt lat="48.51009" lon="-2.61432">
        <ele>17</ele>
        <time>2016-02-19T10:41:23Z</time>
      </trkpt>
      <trkpt lat="48.51004" lon="-2.61431">
        <ele>17</ele>
        <time>2016-02-19T10:41:26Z</time>
      </trkpt>
      <trkpt lat="48.51001" lon="-2.6143">
        <ele>17</ele>
        <time>2016-02-19T10:41:29Z</time>
      </trkpt>
      <trkpt lat="48.50996" lon="-2.61428">
        <ele>17</ele>
        <time>2016-02-19T10:41:32Z</time>
      </trkpt>
      <trkpt lat="48.50992" lon="-2.61428">
        <ele>17</ele>
        <time>2016-02-19T10:41:35Z</time>
      </trkpt>
      <trkpt lat="48.50989" lon="-2.61427">
        <ele>15</ele>
        <time>2016-02-19T10:41:39Z</time>
      </trkpt>
      <trkpt lat="48.50985" lon="-2.61427">
        <ele>14</ele>
        <time>2016-02-19T10:41:42Z</time>
      </trkpt>
      <trkpt lat="48.50981" lon="-2.61427">
        <ele>14</ele>
        <time>2016-02-19T10:41:45Z</time>
      </trkpt>
      <trkpt lat="48.50977" lon="-2.61429">
        <ele>13</ele>
        <time>2016-02-19T10:41:48Z</time>
      </trkpt>
      <trkpt lat="48.50973" lon="-2.6143">
        <ele>10</ele>
        <time>2016-02-19T10:41:51Z</time>
      </trkpt>
      <trkpt lat="48.50969" lon="-2.61429">
        <ele>8</ele>
        <time>2016-02-19T10:41:54Z</time>
      </trkpt>
      <trkpt lat="48.50965" lon="-2.61427">
        <ele>6</ele>
        <time>2016-02-19T10:41:57Z</time>
      </trkpt>
      <trkpt lat="48.50961" lon="-2.61424">
        <ele>6</ele>
        <time>2016-02-19T10:42:01Z</time>
      </trkpt>
      <trkpt lat="48.50958" lon="-2.61423">
        <ele>6</ele>
        <time>2016-02-19T10:42:05Z</time>
      </trkpt>
      <trkpt lat="48.50956" lon="-2.61423">
        <ele>6</ele>
        <time>2016-02-19T10:42:08Z</time>
      </trkpt>
      <trkpt lat="48.50953" lon="-2.6142">
        <ele>9</ele>
        <time>2016-02-19T10:42:11Z</time>
      </trkpt>
      <trkpt lat="48.50949" lon="-2.61419">
        <ele>9</ele>
        <time>2016-02-19T10:42:14Z</time>
      </trkpt>
      <trkpt lat="48.50944" lon="-2.61416">
        <ele>9</ele>
        <time>2016-02-19T10:42:17Z</time>
      </trkpt>
      <trkpt lat="48.50941" lon="-2.61413">
        <ele>9</ele>
        <time>2016-02-19T10:42:20Z</time>
      </trkpt>
      <trkpt lat="48.50937" lon="-2.6141">
        <ele>9</ele>
        <time>2016-02-19T10:42:23Z</time>
      </trkpt>
      <trkpt lat="48.50932" lon="-2.61407">
        <ele>9</ele>
        <time>2016-02-19T10:42:26Z</time>
      </trkpt>
      <trkpt lat="48.5093" lon="-2.61403">
        <ele>9</ele>
        <time>2016-02-19T10:42:29Z</time>
      </trkpt>
      <trkpt lat="48.50927" lon="-2.61401">
        <ele>9</ele>
        <time>2016-02-19T10:42:32Z</time>
      </trkpt>
      <trkpt lat="48.50924" lon="-2.61403">
        <ele>9</ele>
        <time>2016-02-19T10:42:37Z</time>
      </trkpt>
      <trkpt lat="48.50921" lon="-2.61403">
        <ele>9</ele>
        <time>2016-02-19T10:42:41Z</time>
      </trkpt>
      <trkpt lat="48.50918" lon="-2.61401">
        <ele>9</ele>
        <time>2016-02-19T10:42:44Z</time>
      </trkpt>
      <trkpt lat="48.50914" lon="-2.614">
        <ele>9</ele>
        <time>2016-02-19T10:42:47Z</time>
      </trkpt>
      <trkpt lat="48.5091" lon="-2.61403">
        <ele>9</ele>
        <time>2016-02-19T10:42:50Z</time>
      </trkpt>
      <trkpt lat="48.50906" lon="-2.61405">
        <ele>9</ele>
        <time>2016-02-19T10:42:53Z</time>
      </trkpt>
      <trkpt lat="48.50902" lon="-2.61405">
        <ele>7</ele>
        <time>2016-02-19T10:42:56Z</time>
      </trkpt>
      <trkpt lat="48.50898" lon="-2.61406">
        <ele>6</ele>
        <time>2016-02-19T10:42:59Z</time>
      </trkpt>
      <trkpt lat="48.50894" lon="-2.61405">
        <ele>5</ele>
        <time>2016-02-19T10:43:02Z</time>
      </trkpt>
      <trkpt lat="48.50891" lon="-2.61403">
        <ele>5</ele>
        <time>2016-02-19T10:43:05Z</time>
      </trkpt>
      <trkpt lat="48.50888" lon="-2.61402">
        <ele>5</ele>
        <time>2016-02-19T10:43:08Z</time>
      </trkpt>
      <trkpt lat="48.50885" lon="-2.614">
        <ele>5</ele>
        <time>2016-02-19T10:43:11Z</time>
      </trkpt>
      <trkpt lat="48.50882" lon="-2.61402">
        <ele>5</ele>
        <time>2016-02-19T10:43:15Z</time>
      </trkpt>
      <trkpt lat="48.50878" lon="-2.61402">
        <ele>5</ele>
        <time>2016-02-19T10:43:18Z</time>
      </trkpt>
      <trkpt lat="48.50874" lon="-2.61403">
        <ele>5</ele>
        <time>2016-02-19T10:43:21Z</time>
      </trkpt>
      <trkpt lat="48.5087" lon="-2.61403">
        <ele>5</ele>
        <time>2016-02-19T10:43:24Z</time>
      </trkpt>
      <trkpt lat="48.50867" lon="-2.61402">
        <ele>5</ele>
        <time>2016-02-19T10:43:27Z</time>
      </trkpt>
      <trkpt lat="48.50864" lon="-2.61399">
        <ele>5</ele>
        <time>2016-02-19T10:43:30Z</time>
      </trkpt>
      <trkpt lat="48.50858" lon="-2.61397">
        <ele>5</ele>
        <time>2016-02-19T10:43:33Z</time>
      </trkpt>
      <trkpt lat="48.50854" lon="-2.61396">
        <ele>5</ele>
        <time>2016-02-19T10:43:36Z</time>
      </trkpt>
      <trkpt lat="48.5085" lon="-2.61395">
        <ele>5</ele>
        <time>2016-02-19T10:43:39Z</time>
      </trkpt>
      <trkpt lat="48.50846" lon="-2.61394">
        <ele>5</ele>
        <time>2016-02-19T10:43:42Z</time>
      </trkpt>
      <trkpt lat="48.50842" lon="-2.61393">
        <ele>5</ele>
        <time>2016-02-19T10:43:45Z</time>
      </trkpt>
      <trkpt lat="48.50839" lon="-2.61394">
        <ele>5</ele>
        <time>2016-02-19T10:43:48Z</time>
      </trkpt>
      <trkpt lat="48.50835" lon="-2.61395">
        <ele>4</ele>
        <time>2016-02-19T10:43:51Z</time>
      </trkpt>
      <trkpt lat="48.50832" lon="-2.61396">
        <ele>3</ele>
        <time>2016-02-19T10:43:54Z</time>
      </trkpt>
      <trkpt lat="48.50827" lon="-2.61396">
        <ele>3</ele>
        <time>2016-02-19T10:43:57Z</time>
      </trkpt>
      <trkpt lat="48.50823" lon="-2.61398">
        <ele>3</ele>
        <time>2016-02-19T10:44:00Z</time>
      </trkpt>
      <trkpt lat="48.50819" lon="-2.614">
        <ele>1</ele>
        <time>2016-02-19T10:44:03Z</time>
      </trkpt>
      <trkpt lat="48.50814" lon="-2.61403">
        <ele>1</ele>
        <time>2016-02-19T10:44:06Z</time>
      </trkpt>
      <trkpt lat="48.5081" lon="-2.61406">
        <ele>1</ele>
        <time>2016-02-19T10:44:09Z</time>
      </trkpt>
      <trkpt lat="48.50806" lon="-2.61402">
        <ele>1</ele>
        <time>2016-02-19T10:44:12Z</time>
      </trkpt>
      <trkpt lat="48.50802" lon="-2.614">
        <ele>1</ele>
        <time>2016-02-19T10:44:15Z</time>
      </trkpt>
      <trkpt lat="48.50798" lon="-2.61401">
        <ele>3</ele>
        <time>2016-02-19T10:44:18Z</time>
      </trkpt>
      <trkpt lat="48.50794" lon="-2.61403">
        <ele>3</ele>
        <time>2016-02-19T10:44:21Z</time>
      </trkpt>
      <trkpt lat="48.50791" lon="-2.61403">
        <ele>4</ele>
        <time>2016-02-19T10:44:24Z</time>
      </trkpt>
      <trkpt lat="48.50785" lon="-2.61405">
        <ele>5</ele>
        <time>2016-02-19T10:44:28Z</time>
      </trkpt>
      <trkpt lat="48.50782" lon="-2.61407">
        <ele>6</ele>
        <time>2016-02-19T10:44:31Z</time>
      </trkpt>
      <trkpt lat="48.50779" lon="-2.61406">
        <ele>6</ele>
        <time>2016-02-19T10:44:34Z</time>
      </trkpt>
      <trkpt lat="48.50776" lon="-2.61405">
        <ele>6</ele>
        <time>2016-02-19T10:44:37Z</time>
      </trkpt>
      <trkpt lat="48.50773" lon="-2.61404">
        <ele>6</ele>
        <time>2016-02-19T10:44:40Z</time>
      </trkpt>
      <trkpt lat="48.50769" lon="-2.61404">
        <ele>9</ele>
        <time>2016-02-19T10:44:46Z</time>
      </trkpt>
      <trkpt lat="48.50768" lon="-2.61405">
        <ele>18</ele>
        <time>2016-02-19T10:45:04Z</time>
      </trkpt>
      <trkpt lat="48.50767" lon="-2.61404">
        <ele>23</ele>
        <time>2016-02-19T10:45:36Z</time>
      </trkpt>
      <trkpt lat="48.50766" lon="-2.61402">
        <ele>26</ele>
        <time>2016-02-19T10:46:09Z</time>
      </trkpt>
      <trkpt lat="48.50762" lon="-2.61395">
        <ele>26</ele>
        <time>2016-02-19T10:46:13Z</time>
      </trkpt>
      <trkpt lat="48.50759" lon="-2.6139">
        <ele>26</ele>
        <time>2016-02-19T10:46:16Z</time>
      </trkpt>
      <trkpt lat="48.50758" lon="-2.61385">
        <ele>26</ele>
        <time>2016-02-19T10:46:19Z</time>
      </trkpt>
      <trkpt lat="48.50757" lon="-2.61379">
        <ele>26</ele>
        <time>2016-02-19T10:46:22Z</time>
      </trkpt>
      <trkpt lat="48.50756" lon="-2.61373">
        <ele>26</ele>
        <time>2016-02-19T10:46:25Z</time>
      </trkpt>
      <trkpt lat="48.50753" lon="-2.61366">
        <ele>26</ele>
        <time>2016-02-19T10:46:29Z</time>
      </trkpt>
      <trkpt lat="48.50751" lon="-2.61361">
        <ele>27</ele>
        <time>2016-02-19T10:46:32Z</time>
      </trkpt>
      <trkpt lat="48.5075" lon="-2.61356">
        <ele>27</ele>
        <time>2016-02-19T10:46:35Z</time>
      </trkpt>
      <trkpt lat="48.5075" lon="-2.61351">
        <ele>27</ele>
        <time>2016-02-19T10:46:38Z</time>
      </trkpt>
      <trkpt lat="48.50749" lon="-2.61346">
        <ele>28</ele>
        <time>2016-02-19T10:46:41Z</time>
      </trkpt>
      <trkpt lat="48.50745" lon="-2.6134">
        <ele>28</ele>
        <time>2016-02-19T10:46:45Z</time>
      </trkpt>
      <trkpt lat="48.5074" lon="-2.61338">
        <ele>28</ele>
        <time>2016-02-19T10:46:48Z</time>
      </trkpt>
      <trkpt lat="48.50735" lon="-2.61334">
        <ele>28</ele>
        <time>2016-02-19T10:46:51Z</time>
      </trkpt>
      <trkpt lat="48.5073" lon="-2.61325">
        <ele>27</ele>
        <time>2016-02-19T10:46:54Z</time>
      </trkpt>
      <trkpt lat="48.50727" lon="-2.61322">
        <ele>27</ele>
        <time>2016-02-19T10:46:57Z</time>
      </trkpt>
      <trkpt lat="48.50723" lon="-2.61321">
        <ele>27</ele>
        <time>2016-02-19T10:47:00Z</time>
      </trkpt>
      <trkpt lat="48.5072" lon="-2.61321">
        <ele>26</ele>
        <time>2016-02-19T10:47:03Z</time>
      </trkpt>
      <trkpt lat="48.50716" lon="-2.61319">
        <ele>25</ele>
        <time>2016-02-19T10:47:06Z</time>
      </trkpt>
      <trkpt lat="48.50712" lon="-2.61319">
        <ele>24</ele>
        <time>2016-02-19T10:47:09Z</time>
      </trkpt>
      <trkpt lat="48.5071" lon="-2.61319">
        <ele>23</ele>
        <time>2016-02-19T10:47:13Z</time>
      </trkpt>
      <trkpt lat="48.50705" lon="-2.61317">
        <ele>21</ele>
        <time>2016-02-19T10:47:17Z</time>
      </trkpt>
      <trkpt lat="48.50703" lon="-2.61317">
        <ele>20</ele>
        <time>2016-02-19T10:47:20Z</time>
      </trkpt>
      <trkpt lat="48.50698" lon="-2.61316">
        <ele>18</ele>
        <time>2016-02-19T10:47:24Z</time>
      </trkpt>
      <trkpt lat="48.50694" lon="-2.61318">
        <ele>18</ele>
        <time>2016-02-19T10:47:27Z</time>
      </trkpt>
      <trkpt lat="48.50691" lon="-2.61319">
        <ele>17</ele>
        <time>2016-02-19T10:47:30Z</time>
      </trkpt>
      <trkpt lat="48.50688" lon="-2.61321">
        <ele>17</ele>
        <time>2016-02-19T10:47:35Z</time>
      </trkpt>
      <trkpt lat="48.50687" lon="-2.61322">
        <ele>17</ele>
        <time>2016-02-19T10:47:48Z</time>
      </trkpt>
      <trkpt lat="48.50687" lon="-2.61324">
        <ele>17</ele>
        <time>2016-02-19T10:47:55Z</time>
      </trkpt>
      <trkpt lat="48.50685" lon="-2.61326">
        <ele>17</ele>
        <time>2016-02-19T10:48:14Z</time>
      </trkpt>
      <trkpt lat="48.50683" lon="-2.6133">
        <ele>17</ele>
        <time>2016-02-19T10:48:19Z</time>
      </trkpt>
      <trkpt lat="48.50679" lon="-2.61335">
        <ele>17</ele>
        <time>2016-02-19T10:48:23Z</time>
      </trkpt>
      <trkpt lat="48.50675" lon="-2.61339">
        <ele>17</ele>
        <time>2016-02-19T10:48:27Z</time>
      </trkpt>
      <trkpt lat="48.50672" lon="-2.61343">
        <ele>15</ele>
        <time>2016-02-19T10:48:30Z</time>
      </trkpt>
      <trkpt lat="48.50669" lon="-2.61344">
        <ele>14</ele>
        <time>2016-02-19T10:48:38Z</time>
      </trkpt>
      <trkpt lat="48.50669" lon="-2.61346">
        <ele>14</ele>
        <time>2016-02-19T10:48:47Z</time>
      </trkpt>
      <trkpt lat="48.50668" lon="-2.6135">
        <ele>14</ele>
        <time>2016-02-19T10:48:51Z</time>
      </trkpt>
      <trkpt lat="48.50664" lon="-2.61351">
        <ele>14</ele>
        <time>2016-02-19T10:48:55Z</time>
      </trkpt>
      <trkpt lat="48.5066" lon="-2.61354">
        <ele>14</ele>
        <time>2016-02-19T10:48:58Z</time>
      </trkpt>
      <trkpt lat="48.50658" lon="-2.61354">
        <ele>14</ele>
        <time>2016-02-19T10:49:01Z</time>
      </trkpt>
      <trkpt lat="48.50655" lon="-2.61354">
        <ele>14</ele>
        <time>2016-02-19T10:49:04Z</time>
      </trkpt>
      <trkpt lat="48.50652" lon="-2.61353">
        <ele>14</ele>
        <time>2016-02-19T10:49:10Z</time>
      </trkpt>
      <trkpt lat="48.50651" lon="-2.61352">
        <ele>14</ele>
        <time>2016-02-19T10:49:36Z</time>
      </trkpt>
      <trkpt lat="48.50653" lon="-2.61352">
        <ele>18</ele>
        <time>2016-02-19T10:50:04Z</time>
      </trkpt>
      <trkpt lat="48.50654" lon="-2.61356">
        <ele>18</ele>
        <time>2016-02-19T10:50:11Z</time>
      </trkpt>
      <trkpt lat="48.50653" lon="-2.61358">
        <ele>18</ele>
        <time>2016-02-19T10:50:14Z</time>
      </trkpt>
      <trkpt lat="48.50651" lon="-2.61362">
        <ele>19</ele>
        <time>2016-02-19T10:50:19Z</time>
      </trkpt>
      <trkpt lat="48.5065" lon="-2.61364">
        <ele>19</ele>
        <time>2016-02-19T10:50:23Z</time>
      </trkpt>
      <trkpt lat="48.50648" lon="-2.61366">
        <ele>19</ele>
        <time>2016-02-19T10:50:26Z</time>
      </trkpt>
      <trkpt lat="48.50645" lon="-2.61369">
        <ele>19</ele>
        <time>2016-02-19T10:50:30Z</time>
      </trkpt>
      <trkpt lat="48.50642" lon="-2.61374">
        <ele>19</ele>
        <time>2016-02-19T10:50:34Z</time>
      </trkpt>
      <trkpt lat="48.50639" lon="-2.61379">
        <ele>19</ele>
        <time>2016-02-19T10:50:38Z</time>
      </trkpt>
      <trkpt lat="48.50639" lon="-2.61382">
        <ele>19</ele>
        <time>2016-02-19T10:50:42Z</time>
      </trkpt>
      <trkpt lat="48.5064" lon="-2.61386">
        <ele>19</ele>
        <time>2016-02-19T10:50:46Z</time>
      </trkpt>
      <trkpt lat="48.50643" lon="-2.61391">
        <ele>19</ele>
        <time>2016-02-19T10:50:50Z</time>
      </trkpt>
      <trkpt lat="48.50644" lon="-2.61395">
        <ele>20</ele>
        <time>2016-02-19T10:50:54Z</time>
      </trkpt>
      <trkpt lat="48.50643" lon="-2.61398">
        <ele>22</ele>
        <time>2016-02-19T10:50:58Z</time>
      </trkpt>
      <trkpt lat="48.50639" lon="-2.614">
        <ele>23</ele>
        <time>2016-02-19T10:51:02Z</time>
      </trkpt>
      <trkpt lat="48.50636" lon="-2.61402">
        <ele>23</ele>
        <time>2016-02-19T10:51:06Z</time>
      </trkpt>
      <trkpt lat="48.50635" lon="-2.61403">
        <ele>24</ele>
        <time>2016-02-19T10:51:09Z</time>
      </trkpt>
      <trkpt lat="48.50635" lon="-2.61405">
        <ele>25</ele>
        <time>2016-02-19T10:51:12Z</time>
      </trkpt>
      <trkpt lat="48.50636" lon="-2.61406">
        <ele>28</ele>
        <time>2016-02-19T10:51:16Z</time>
      </trkpt>
      <trkpt lat="48.5064" lon="-2.61406">
        <ele>29</ele>
        <time>2016-02-19T10:51:20Z</time>
      </trkpt>
      <trkpt lat="48.50644" lon="-2.61405">
        <ele>30</ele>
        <time>2016-02-19T10:51:23Z</time>
      </trkpt>
      <trkpt lat="48.50648" lon="-2.61405">
        <ele>30</ele>
        <time>2016-02-19T10:51:26Z</time>
      </trkpt>
      <trkpt lat="48.50652" lon="-2.61405">
        <ele>31</ele>
        <time>2016-02-19T10:51:29Z</time>
      </trkpt>
      <trkpt lat="48.50656" lon="-2.61405">
        <ele>32</ele>
        <time>2016-02-19T10:51:32Z</time>
      </trkpt>
      <trkpt lat="48.5066" lon="-2.61404">
        <ele>33</ele>
        <time>2016-02-19T10:51:35Z</time>
      </trkpt>
      <trkpt lat="48.50665" lon="-2.61402">
        <ele>33</ele>
        <time>2016-02-19T10:51:39Z</time>
      </trkpt>
      <trkpt lat="48.50669" lon="-2.61401">
        <ele>34</ele>
        <time>2016-02-19T10:51:42Z</time>
      </trkpt>
      <trkpt lat="48.50673" lon="-2.614">
        <ele>34</ele>
        <time>2016-02-19T10:51:45Z</time>
      </trkpt>
      <trkpt lat="48.50676" lon="-2.61403">
        <ele>34</ele>
        <time>2016-02-19T10:51:48Z</time>
      </trkpt>
      <trkpt lat="48.50679" lon="-2.61408">
        <ele>34</ele>
        <time>2016-02-19T10:51:52Z</time>
      </trkpt>
      <trkpt lat="48.50681" lon="-2.61413">
        <ele>34</ele>
        <time>2016-02-19T10:51:56Z</time>
      </trkpt>
      <trkpt lat="48.50683" lon="-2.61418">
        <ele>34</ele>
        <time>2016-02-19T10:52:00Z</time>
      </trkpt>
      <trkpt lat="48.50685" lon="-2.61424">
        <ele>34</ele>
        <time>2016-02-19T10:52:04Z</time>
      </trkpt>
      <trkpt lat="48.50686" lon="-2.61431">
        <ele>34</ele>
        <time>2016-02-19T10:52:08Z</time>
      </trkpt>
      <trkpt lat="48.50687" lon="-2.61436">
        <ele>34</ele>
        <time>2016-02-19T10:52:11Z</time>
      </trkpt>
      <trkpt lat="48.50688" lon="-2.61442">
        <ele>34</ele>
        <time>2016-02-19T10:52:15Z</time>
      </trkpt>
      <trkpt lat="48.50689" lon="-2.61448">
        <ele>34</ele>
        <time>2016-02-19T10:52:19Z</time>
      </trkpt>
      <trkpt lat="48.50689" lon="-2.6145">
        <ele>34</ele>
        <time>2016-02-19T10:52:23Z</time>
      </trkpt>
      <trkpt lat="48.50688" lon="-2.61452">
        <ele>34</ele>
        <time>2016-02-19T10:52:27Z</time>
      </trkpt>
      <trkpt lat="48.5069" lon="-2.61457">
        <ele>34</ele>
        <time>2016-02-19T10:52:31Z</time>
      </trkpt>
      <trkpt lat="48.50693" lon="-2.61462">
        <ele>34</ele>
        <time>2016-02-19T10:52:35Z</time>
      </trkpt>
      <trkpt lat="48.50693" lon="-2.61462">
        <ele>34</ele>
        <time>2016-02-19T10:52:36Z</time>
      </trkpt>
    </trkseg>
  </trk>
</gpx>